[[{"header":{"parameterUnit":"m.s-1","parameterCategory":1,"la1":30.6,"la2":29.2853,"lo1":-89.7004,"lo2":-87.6739,"dy":0.0162,"dx":0.0183,"nx":112,"ny":82,"refTime":"2023-08-18T12:00:00:Z","depth":0,"parameterNumber":2,"parameterNumberName":"U-component_of_WINDS"},"data":[0.0,0.0,0.0,0.0,0.0,0.0,0.0,0.0,0.0,0.0,0.0,0.0,0.0,0.0,0.0,0.0,0.0,0.0,0.0,0.0,0.0,0.0,0.0,0.0,0.0,0.0,0.0,0.0,0.0,0.0,0.0,0.0,0.0,0.0,0.0,0.0,0.0,0.0,0.0,0.0,0.0,0.0,0.0,0.0,0.0,0.0,0.0,0.0,0.0,0.0,0.0,0.0,0.0,0.0,0.0,0.0,0.0,0.0,0.0,0.0,0.0,0.0,0.0,0.0,0.0,0.0,0.0,0.0,0.0,0.0,0.0,0.0,0.0,0.0,0.0,0.0,0.0,0.0,0.0,0.0,0.0,0.0,0.0,0.0,0.0,0.0,0.0,0.0,0.0,0.0,-3.2154,-3.6231,-4.2736,-4.6848,-4.6885,-4.6423,-4.3778,-3.8354,0.0,0.0,0.0,0.0,0.0,0.0,0.0,0.0,0.0,0.0,0.0,0.0,0.0,0.0,0.0,0.0,0.0,0.0,0.0,0.0,0.0,0.0,0.0,0.0,0.0,0.0,0.0,0.0,0.0,0.0,0.0,0.0,0.0,0.0,0.0,0.0,0.0,0.0,0.0,0.0,0.0,0.0,0.0,0.0,0.0,0.0,0.0,0.0,0.0,0.0,0.0,0.0,0.0,0.0,0.0,0.0,0.0,0.0,0.0,0.0,0.0,0.0,0.0,0.0,0.0,0.0,0.0,0.0,0.0,0.0,0.0,0.0,0.0,0.0,0.0,0.0,0.0,0.0,0.0,0.0,0.0,0.0,0.0,0.0,0.0,0.0,0.0,0.0,0.0,0.0,0.0,0.0,0.0,0.0,0.0,0.0,0.0,0.0,0.0,0.0,0.0,0.0,0.0,0.0,-3.4199,-4.12,-4.4624,-4.6546,-4.6876,-4.4231,-4.1277,-3.82,0.0,0.0,0.0,0.0,0.0,0.0,0.0,0.0,0.0,0.0,0.0,0.0,0.0,0.0,0.0,0.0,0.0,0.0,0.0,0.0,0.0,0.0,0.0,0.0,0.0,0.0,0.0,0.0,0.0,0.0,0.0,0.0,0.0,0.0,0.0,0.0,0.0,0.0,0.0,0.0,0.0,0.0,0.0,0.0,0.0,0.0,0.0,0.0,0.0,0.0,0.0,0.0,0.0,0.0,0.0,0.0,0.0,0.0,0.0,0.0,0.0,0.0,0.0,0.0,0.0,0.0,0.0,0.0,0.0,0.0,0.0,0.0,0.0,0.0,0.0,0.0,0.0,0.0,0.0,0.0,0.0,0.0,0.0,0.0,0.0,0.0,0.0,0.0,0.0,0.0,0.0,0.0,0.0,0.0,0.0,0.0,0.0,0.0,0.0,0.0,0.0,0.0,0.0,-3.2622,-3.6661,-4.247,-4.4795,-4.6004,-4.6192,-4.3508,-4.07,-3.8161,-3.5122,0.0,0.0,0.0,0.0,0.0,0.0,0.0,0.0,0.0,0.0,0.0,0.0,0.0,0.0,0.0,0.0,0.0,0.0,0.0,0.0,0.0,0.0,0.0,0.0,0.0,0.0,0.0,0.0,0.0,0.0,0.0,0.0,0.0,0.0,0.0,0.0,0.0,0.0,0.0,0.0,0.0,0.0,0.0,0.0,0.0,0.0,0.0,0.0,0.0,0.0,0.0,0.0,0.0,0.0,0.0,0.0,0.0,0.0,0.0,0.0,0.0,0.0,0.0,0.0,0.0,0.0,0.0,0.0,0.0,0.0,0.0,0.0,0.0,0.0,0.0,0.0,0.0,0.0,0.0,0.0,0.0,0.0,0.0,0.0,0.0,0.0,0.0,0.0,0.0,0.0,0.0,0.0,0.0,0.0,0.0,0.0,0.0,0.0,0.0,0.0,0.0,0.0,-3.5122,-3.7924,-4.2249,-4.4016,-4.4994,-4.5278,-4.2393,-3.9769,-3.7815,-3.3353,0.0,0.0,0.0,0.0,0.0,0.0,0.0,0.0,0.0,0.0,0.0,0.0,0.0,0.0,0.0,0.0,0.0,0.0,0.0,0.0,0.0,0.0,0.0,0.0,0.0,0.0,0.0,0.0,0.0,0.0,0.0,0.0,0.0,0.0,0.0,0.0,0.0,0.0,0.0,0.0,0.0,0.0,0.0,0.0,0.0,0.0,0.0,0.0,0.0,0.0,0.0,0.0,0.0,0.0,0.0,0.0,0.0,0.0,0.0,0.0,0.0,0.0,0.0,0.0,0.0,0.0,0.0,0.0,0.0,0.0,0.0,0.0,0.0,0.0,0.0,0.0,0.0,0.0,0.0,0.0,0.0,0.0,0.0,0.0,0.0,0.0,0.0,0.0,0.0,0.0,0.0,0.0,0.0,0.0,0.0,0.0,0.0,0.0,0.0,0.0,0.0,0.0,-3.3557,-3.6699,-4.1065,-4.2219,-4.3177,-4.4299,-3.9892,-3.6962,-3.6808,-3.1352,0.0,0.0,0.0,0.0,0.0,0.0,0.0,0.0,0.0,0.0,0.0,0.0,0.0,0.0,0.0,0.0,0.0,0.0,0.0,0.0,0.0,0.0,0.0,0.0,0.0,0.0,0.0,0.0,0.0,0.0,0.0,0.0,0.0,0.0,0.0,0.0,0.0,0.0,0.0,0.0,0.0,0.0,0.0,0.0,0.0,0.0,0.0,0.0,0.0,0.0,0.0,0.0,0.0,0.0,0.0,0.0,0.0,0.0,0.0,0.0,0.0,0.0,0.0,0.0,0.0,0.0,0.0,0.0,0.0,0.0,0.0,0.0,0.0,0.0,0.0,0.0,0.0,0.0,0.0,0.0,0.0,0.0,0.0,0.0,0.0,0.0,0.0,0.0,0.0,0.0,0.0,0.0,0.0,0.0,0.0,0.0,0.0,0.0,0.0,0.0,0.0,0.0,-3.3563,-3.6264,0.0,-4.179,-4.2833,-4.3492,-3.9354,-3.65,-3.5962,0.0,0.0,0.0,0.0,0.0,0.0,0.0,0.0,0.0,0.0,0.0,0.0,0.0,0.0,0.0,0.0,0.0,0.0,0.0,0.0,0.0,0.0,0.0,0.0,0.0,0.0,0.0,0.0,0.0,0.0,0.0,0.0,0.0,0.0,0.0,0.0,0.0,0.0,0.0,0.0,0.0,0.0,0.0,0.0,0.0,0.0,0.0,0.0,0.0,0.0,0.0,0.0,0.0,0.0,0.0,0.0,0.0,0.0,0.0,0.0,0.0,0.0,0.0,0.0,0.0,0.0,0.0,0.0,0.0,0.0,0.0,0.0,0.0,0.0,0.0,0.0,0.0,0.0,0.0,0.0,0.0,0.0,0.0,0.0,0.0,0.0,0.0,0.0,0.0,0.0,0.0,0.0,0.0,0.0,0.0,0.0,0.0,0.0,0.0,0.0,0.0,0.0,-3.1364,-3.3478,-3.5927,0.0,-4.0522,-4.1502,-4.212,-3.7755,-3.4899,-3.4692,0.0,0.0,0.0,0.0,0.0,0.0,0.0,0.0,0.0,0.0,0.0,0.0,0.0,0.0,0.0,0.0,0.0,0.0,0.0,0.0,0.0,0.0,0.0,0.0,0.0,0.0,0.0,0.0,0.0,0.0,0.0,0.0,0.0,0.0,0.0,0.0,0.0,0.0,0.0,0.0,0.0,0.0,0.0,0.0,0.0,0.0,0.0,0.0,0.0,0.0,0.0,0.0,0.0,0.0,0.0,0.0,0.0,0.0,0.0,0.0,0.0,0.0,0.0,0.0,0.0,0.0,0.0,0.0,0.0,0.0,0.0,0.0,0.0,0.0,0.0,0.0,0.0,0.0,0.0,0.0,0.0,0.0,0.0,0.0,0.0,0.0,0.0,0.0,0.0,0.0,0.0,0.0,0.0,0.0,0.0,0.0,0.0,0.0,0.0,0.0,0.0,0.0,-3.0734,-3.3089,-3.5512,-3.7729,-3.8223,-3.8845,-3.9986,-3.4679,-3.1759,0.0,0.0,0.0,0.0,0.0,0.0,0.0,0.0,0.0,0.0,0.0,0.0,0.0,0.0,0.0,0.0,0.0,0.0,0.0,0.0,0.0,0.0,0.0,0.0,0.0,0.0,0.0,0.0,0.0,0.0,0.0,0.0,0.0,0.0,0.0,0.0,0.0,0.0,0.0,0.0,0.0,0.0,0.0,0.0,0.0,0.0,0.0,0.0,0.0,0.0,0.0,0.0,0.0,0.0,0.0,0.0,0.0,0.0,0.0,0.0,0.0,0.0,0.0,0.0,0.0,0.0,0.0,0.0,0.0,0.0,0.0,0.0,0.0,0.0,0.0,0.0,0.0,0.0,0.0,0.0,0.0,0.0,0.0,0.0,0.0,0.0,0.0,0.0,0.0,0.0,0.0,0.0,0.0,0.0,0.0,0.0,0.0,0.0,0.0,0.0,0.0,0.0,0.0,-3.0932,-3.192,-3.356,-3.6758,-3.7156,-3.7755,-3.908,-3.4336,-3.1522,-3.2032,0.0,0.0,0.0,0.0,0.0,0.0,0.0,0.0,0.0,0.0,0.0,0.0,0.0,0.0,0.0,0.0,0.0,0.0,0.0,0.0,0.0,0.0,0.0,0.0,0.0,0.0,0.0,0.0,0.0,0.0,0.0,0.0,0.0,0.0,0.0,0.0,0.0,0.0,0.0,0.0,0.0,0.0,0.0,0.0,0.0,0.0,0.0,0.0,0.0,0.0,0.0,0.0,0.0,0.0,0.0,0.0,0.0,0.0,0.0,0.0,0.0,0.0,0.0,0.0,0.0,0.0,0.0,0.0,0.0,0.0,0.0,0.0,0.0,0.0,0.0,0.0,0.0,0.0,0.0,0.0,0.0,0.0,0.0,0.0,0.0,0.0,0.0,0.0,0.0,0.0,0.0,0.0,0.0,0.0,0.0,0.0,0.0,0.0,0.0,0.0,0.0,0.0,-3.1184,-3.147,-3.2587,-3.5697,-3.6136,-3.6454,-3.705,-3.324,-3.0751,-3.0686,0.0,0.0,0.0,0.0,0.0,0.0,0.0,0.0,0.0,0.0,0.0,0.0,0.0,0.0,0.0,0.0,0.0,0.0,0.0,0.0,0.0,0.0,0.0,0.0,0.0,0.0,0.0,0.0,0.0,0.0,0.0,0.0,0.0,0.0,0.0,0.0,0.0,0.0,0.0,0.0,0.0,0.0,0.0,0.0,0.0,0.0,0.0,0.0,0.0,0.0,0.0,0.0,0.0,0.0,0.0,0.0,0.0,0.0,0.0,0.0,0.0,0.0,0.0,0.0,0.0,0.0,0.0,0.0,0.0,0.0,0.0,0.0,0.0,0.0,0.0,0.0,0.0,0.0,0.0,0.0,0.0,0.0,0.0,0.0,0.0,0.0,0.0,0.0,0.0,0.0,0.0,0.0,0.0,0.0,0.0,0.0,0.0,0.0,0.0,0.0,0.0,0.0,-3.1463,-3.1554,-3.239,-3.4876,-3.5304,-3.5285,-3.4908,-3.1893,-2.9789,-2.9269,0.0,0.0,0.0,0.0,0.0,0.0,0.0,0.0,0.0,0.0,0.0,0.0,0.0,0.0,0.0,0.0,0.0,0.0,0.0,0.0,0.0,0.0,0.0,0.0,0.0,0.0,0.0,0.0,0.0,0.0,0.0,0.0,0.0,0.0,0.0,0.0,0.0,0.0,0.0,0.0,0.0,0.0,0.0,0.0,0.0,0.0,0.0,0.0,0.0,0.0,0.0,0.0,0.0,0.0,0.0,0.0,0.0,0.0,0.0,0.0,-4.4655,0.0,0.0,0.0,0.0,0.0,0.0,0.0,0.0,0.0,0.0,0.0,0.0,0.0,0.0,0.0,0.0,0.0,0.0,0.0,0.0,0.0,0.0,0.0,0.0,0.0,0.0,0.0,0.0,0.0,0.0,0.0,0.0,0.0,0.0,0.0,0.0,0.0,0.0,0.0,0.0,0.0,-3.1237,-3.1635,-3.2901,-3.6012,-3.5457,-3.5413,-3.6758,-3.2648,-3.0056,-3.0104,-2.7077,0.0,0.0,0.0,0.0,0.0,0.0,0.0,0.0,0.0,0.0,0.0,0.0,0.0,0.0,0.0,0.0,0.0,0.0,0.0,0.0,0.0,0.0,0.0,0.0,0.0,0.0,0.0,0.0,0.0,0.0,0.0,0.0,0.0,0.0,0.0,0.0,0.0,0.0,0.0,0.0,0.0,0.0,0.0,0.0,0.0,0.0,0.0,0.0,0.0,0.0,0.0,0.0,0.0,0.0,0.0,0.0,0.0,0.0,0.0,0.0,-4.5845,0.0,0.0,0.0,0.0,0.0,0.0,0.0,0.0,0.0,0.0,0.0,0.0,0.0,0.0,0.0,0.0,0.0,0.0,0.0,0.0,0.0,0.0,0.0,0.0,0.0,0.0,0.0,0.0,0.0,0.0,0.0,0.0,0.0,0.0,0.0,0.0,0.0,0.0,0.0,0.0,-3.133,-3.1734,-3.2857,-3.5454,-3.5584,-3.5523,-3.5717,-3.2714,-3.0516,-2.9808,-2.7346,0.0,0.0,0.0,0.0,0.0,0.0,0.0,0.0,0.0,0.0,0.0,0.0,0.0,0.0,0.0,0.0,0.0,0.0,0.0,0.0,0.0,0.0,0.0,0.0,0.0,0.0,0.0,0.0,0.0,0.0,0.0,0.0,0.0,0.0,0.0,0.0,0.0,0.0,0.0,0.0,0.0,0.0,0.0,0.0,0.0,0.0,0.0,0.0,0.0,0.0,0.0,0.0,0.0,-5.5931,-5.5864,-5.4518,-5.5224,-5.4619,-5.2905,-5.071,-4.8108,-4.5441,0.0,0.0,0.0,0.0,0.0,0.0,0.0,0.0,0.0,0.0,0.0,0.0,0.0,0.0,0.0,0.0,0.0,0.0,0.0,0.0,0.0,0.0,0.0,0.0,0.0,-3.843,-3.7777,0.0,0.0,0.0,0.0,0.0,0.0,0.0,0.0,0.0,0.0,0.0,0.0,-3.148,-3.2008,-3.2893,-3.4763,-3.5701,-3.5641,-3.4418,-3.2683,-3.1006,-2.9434,-2.7621,-2.6192,0.0,0.0,0.0,0.0,0.0,0.0,0.0,0.0,0.0,0.0,0.0,0.0,0.0,0.0,0.0,0.0,0.0,0.0,0.0,0.0,0.0,0.0,0.0,0.0,0.0,0.0,0.0,0.0,0.0,0.0,0.0,0.0,-4.4309,-4.4609,0.0,0.0,0.0,0.0,0.0,0.0,0.0,0.0,0.0,0.0,0.0,0.0,0.0,-5.474,-5.5702,-5.8062,-5.857,-5.7382,-6.0407,-6.0496,-5.8026,-5.8153,-5.7923,-5.7357,-5.5535,0.0,-4.8822,-4.741,0.0,0.0,0.0,0.0,0.0,0.0,0.0,0.0,0.0,0.0,0.0,0.0,0.0,0.0,0.0,0.0,0.0,0.0,0.0,0.0,0.0,0.0,-4.0015,-4.0131,-4.0169,-3.9669,0.0,-3.6409,-3.4934,-3.3205,-3.2048,0.0,0.0,0.0,0.0,0.0,0.0,0.0,-3.1629,-3.264,-3.3932,-3.5863,-3.5806,-3.5811,-3.6272,-3.3487,-3.1275,-3.0308,-2.7962,-2.6192,-2.5346,-2.5308,0.0,0.0,0.0,0.0,0.0,0.0,0.0,0.0,0.0,0.0,0.0,0.0,0.0,0.0,0.0,0.0,0.0,0.0,0.0,0.0,0.0,0.0,0.0,0.0,0.0,0.0,0.0,0.0,0.0,-4.495,-4.6895,-4.4531,-4.7851,-4.9414,0.0,0.0,0.0,0.0,0.0,0.0,0.0,0.0,0.0,-5.6451,-5.7819,-5.9022,-6.0013,-6.2059,-6.3017,-6.2969,-6.4409,-6.4124,-6.2307,-6.2313,-6.1609,-6.0396,-5.9638,-5.7461,-5.4227,-5.1073,-4.8469,-4.6355,0.0,0.0,0.0,0.0,-4.2558,-4.2338,-4.3724,-4.3555,0.0,-4.3163,0.0,0.0,0.0,0.0,0.0,0.0,0.0,0.0,0.0,0.0,0.0,-4.197,-4.2316,-4.2316,-4.1123,-3.9161,-3.7007,0.0,-3.3868,-3.3196,-3.2495,0.0,0.0,0.0,0.0,-3.1158,-3.2528,-3.3686,-3.4746,-3.5745,-3.5643,-3.5423,-3.5315,-3.3083,-3.1121,-2.9775,-2.8198,-2.6736,-2.5346,-2.5308,-2.5244,0.0,0.0,0.0,0.0,0.0,0.0,0.0,0.0,0.0,0.0,0.0,0.0,0.0,0.0,0.0,0.0,0.0,0.0,0.0,0.0,0.0,0.0,0.0,0.0,0.0,0.0,0.0,0.0,-4.7286,-4.913,-4.4883,-4.9726,-5.1797,0.0,0.0,0.0,0.0,0.0,0.0,-5.6148,-5.7374,-5.8715,-6.0468,-6.2183,-6.3489,-6.434,-6.567,-6.6609,-6.7226,-6.7226,-6.6612,-6.542,-6.5187,-6.4123,-6.2397,-6.2178,-6.0781,-5.828,-5.4241,-5.0962,-4.8403,-4.7201,-4.6336,-4.5662,-4.4897,-4.4401,-4.4334,-4.5641,-4.5287,-4.4355,-4.4816,0.0,-4.2008,-3.97,0.0,0.0,0.0,0.0,-4.0123,-4.0939,-4.2277,-4.347,-4.3701,-4.4201,-4.4355,-4.3316,-4.1431,-3.92,0.0,-3.563,-3.4971,-3.4339,0.0,0.0,0.0,0.0,-3.2062,-3.3242,-3.4402,-3.5116,-3.5179,-3.5154,-3.4814,-3.3936,-3.2545,-3.0968,-2.9204,-2.8357,-2.7121,-2.5385,-2.5308,-2.5293,-2.5219,0.0,0.0,0.0,0.0,0.0,0.0,0.0,0.0,0.0,0.0,0.0,0.0,0.0,0.0,0.0,0.0,0.0,0.0,0.0,0.0,0.0,0.0,0.0,0.0,0.0,0.0,0.0,0.0,0.0,-4.668,-5.3633,0.0,0.0,0.0,0.0,-5.4523,-5.5319,-5.7155,-6.0349,-6.2047,-6.3803,-6.5644,-6.7348,-6.8459,-6.8873,-6.8954,-6.872,-6.8125,-6.8125,-6.7507,-6.6309,-6.5498,-6.4433,-6.3205,-6.2435,-6.1089,-5.9165,-5.578,-5.378,-5.2626,-5.0173,-4.9182,-4.9067,-4.8191,-4.7373,-4.671,-4.6826,-4.5748,-4.4586,-4.624,-4.5586,-4.3855,-4.2124,-4.1577,0.0,0.0,-4.1008,-4.1893,-4.2739,-4.3585,-4.4432,-4.5287,-4.5518,-4.5094,-4.3431,-4.2354,-4.0931,0.0,-3.6577,-3.5224,-3.4353,0.0,-3.332,-3.2345,-3.2817,-3.3318,-3.3393,-3.4384,-3.4901,-3.4339,-3.4282,-3.3898,-3.3045,-3.2199,-3.0968,-2.9204,-2.8357,-2.7121,-2.5385,-2.5308,-2.5214,-2.5003,-2.5208,0.0,0.0,0.0,0.0,0.0,0.0,0.0,0.0,0.0,0.0,0.0,0.0,0.0,0.0,0.0,0.0,0.0,0.0,0.0,0.0,0.0,0.0,0.0,0.0,0.0,0.0,0.0,0.0,-5.3164,-5.8594,0.0,-5.6406,-5.6752,-5.7916,-5.9643,-6.0519,-6.2567,-6.6346,-6.759,-6.8758,-6.9989,-7.0606,-7.0767,-7.0495,-7.0622,-7.0585,-7.044,-6.9489,-6.8681,-6.7956,-6.6588,-6.4968,-6.3269,-6.3012,-6.1897,-6.0165,-5.7896,-5.6088,-5.4549,-5.201,-5.101,-5.0856,-4.9433,-4.8779,-4.8509,-4.8509,-4.7394,-4.5893,-4.5393,-4.4085,-4.2585,-4.1962,-4.1808,-4.1846,-4.2085,-4.2777,-4.3624,-4.447,-4.494,-4.521,-4.5518,-4.5594,-4.5441,-4.4825,-4.3624,-4.2354,-4.147,-3.9008,-3.7007,-3.6699,-3.6111,-3.5469,-3.494,-3.4797,-3.4686,-3.4533,-3.5007,-3.5045,-3.4276,-3.3705,-3.3045,-3.2199,-3.1346,-3.016,-2.8434,-2.8049,-2.7121,-2.5385,-2.5308,-2.5288,-2.5203,-2.5244,-2.5244,0.0,0.0,0.0,0.0,0.0,0.0,0.0,0.0,0.0,0.0,0.0,0.0,0.0,0.0,0.0,0.0,0.0,0.0,0.0,0.0,0.0,0.0,0.0,0.0,0.0,0.0,-5.9101,-5.7656,-6.2773,-6.5,-6.1289,-6.1909,-6.3266,-6.4973,-6.5809,-6.7648,-7.081,-7.1745,-7.2206,-7.2206,-7.2206,-7.1724,-7.0756,-7.0615,-7.0505,-7.0405,-6.9377,-6.8437,-6.7567,-6.6411,-6.4781,-6.2897,-6.2897,-6.2089,-6.0704,-5.9281,-5.7857,-5.6357,-5.4087,-5.3203,-5.301,-5.1625,-5.0933,-5.051,-4.9356,-4.824,-4.7009,-4.5316,-4.397,-4.3085,-4.3085,-4.3085,-4.3201,-4.3778,-4.4316,-4.4855,-4.5441,-4.5594,-4.5594,-4.5594,-4.5594,-4.5518,-4.521,-4.4278,-4.3355,-4.2777,-4.0585,-3.8777,-3.8469,-3.7738,-3.6941,-3.6387,-3.5837,-3.5391,-3.5149,-3.5346,-3.5038,-3.3891,-3.3237,-3.2468,-3.1346,-3.0731,-2.9692,-2.8011,-2.7895,-2.7121,-2.5385,-2.5577,-2.5731,-2.5731,-2.5685,-2.551,-2.5203,0.0,0.0,0.0,0.0,0.0,0.0,0.0,0.0,0.0,0.0,0.0,0.0,0.0,0.0,0.0,0.0,0.0,0.0,0.0,0.0,0.0,0.0,0.0,-5.1562,-5.8242,-6.2148,-5.9805,-6.6172,-6.914,-6.4961,-6.7695,-6.9896,-7.0317,-7.1145,-7.2201,-7.3504,-7.4322,-7.3976,-7.2283,-7.2245,-7.148,-6.9933,-6.914,-6.8474,-6.7936,-6.7793,-6.6828,-6.5174,-6.4907,-6.3815,-6.2139,-6.2101,-6.1601,-6.0704,-5.9819,-5.8973,-5.8088,-5.6395,-5.5703,-5.5588,-5.478,-5.3895,-5.2626,-4.9317,-4.8125,-4.7817,-4.6172,-4.5633,-4.5594,-4.5594,-4.5594,-4.5594,-4.5594,-4.5594,-4.5594,-4.5594,-4.5594,-4.5594,-4.5594,-4.5594,-4.5364,-4.4509,-4.4316,-4.3816,-4.2192,-4.1162,-4.0285,-3.9477,-3.8623,-3.7679,-3.6511,-3.5921,0.0,-3.5157,-3.5346,-3.4846,-3.3122,-3.2929,-3.2275,-3.0577,-3.0423,-2.9731,-2.8049,-2.7895,-2.7121,-2.5462,-2.6154,-2.6577,-2.6538,-2.6362,-2.5857,-2.4973,0.0,0.0,0.0,0.0,0.0,0.0,0.0,0.0,0.0,0.0,0.0,0.0,0.0,0.0,0.0,0.0,0.0,0.0,0.0,0.0,0.0,0.0,-5.6992,-5.7812,-6.1406,-6.4609,-6.6367,-7.0156,-7.2109,-7.0937,-7.2717,-7.393,-7.3897,-7.4584,-7.5094,-7.5313,-7.5515,-7.4861,-7.3206,-7.3129,-7.2055,-6.9771,-6.9617,-6.9207,-6.849,-6.8032,-6.7459,-6.673,-6.5545,-6.4257,-6.2935,-6.2358,-6.1243,-5.9781,-5.8973,-5.8127,-5.733,-5.683,-5.6252,-5.5511,-5.4087,-5.2626,-5.1164,-4.9586,-4.8625,-4.7932,-4.6894,-4.6124,-4.5594,-4.5594,-4.5594,-4.5594,-4.5594,-4.5594,-4.5594,-4.5594,-4.5594,-4.5594,-4.5594,-4.5594,-4.5518,-4.5287,-4.4739,-4.4162,-4.3701,-4.2431,-4.1162,-4.0323,-3.9977,-3.93,-3.7748,-3.7394,0.0,-3.5544,-3.5465,-3.5077,-3.3968,-3.3859,-3.316,-3.1506,-3.1346,-3.0621,-2.8896,-2.8203,-2.7698,-2.7198,-2.6192,-2.5575,-2.5438,-2.5391,-2.5132,0.0,0.0,0.0,0.0,0.0,0.0,0.0,0.0,0.0,0.0,0.0,0.0,0.0,0.0,0.0,0.0,0.0,0.0,0.0,0.0,0.0,0.0,-5.75,-6.1172,-6.3828,-6.5508,-6.7461,-7.0156,-7.2416,-7.3853,-7.4243,-7.5347,-7.595,-7.5716,-7.6098,-7.6222,-7.5991,-7.6015,-7.5245,-7.3553,-7.3168,-7.1898,-6.9706,-6.9061,-6.8513,-6.8133,-6.7029,-6.6252,-6.5779,-6.442,-6.3274,0.0,-6.1743,-6.0781,-5.9473,-5.9011,-5.8088,0.0,0.0,0.0,0.0,0.0,-5.2049,-5.0971,-4.9394,-4.8509,-4.7894,-4.674,-4.6009,-4.5594,-4.5594,-4.5594,-4.5594,-4.5594,-4.5594,-4.5594,-4.5594,-4.5594,-4.5594,-4.5594,-4.5594,-4.5594,-4.5594,-4.521,-4.4739,-4.4355,-4.3239,0.0,-4.12,-4.0477,-3.9554,-3.82,-3.77,-3.6969,-3.5654,-3.55,-3.5154,-3.4282,-3.4205,-3.3513,-3.1852,-3.1698,0.0,0.0,0.0,-2.8396,-2.8396,-2.7428,0.0,0.0,0.0,-2.6178,-2.5635,0.0,0.0,0.0,-2.6097,-2.6135,0.0,0.0,0.0,0.0,0.0,0.0,0.0,0.0,0.0,0.0,0.0,0.0,0.0,0.0,0.0,0.0,-6.1133,-6.4101,-6.8945,-6.9804,-7.0468,-7.1953,-7.341,-7.4648,-7.551,-7.6274,-7.6579,-7.6306,-7.6377,-7.6236,-7.5875,0.0,0.0,0.0,0.0,-7.1437,-6.959,-6.8013,-6.7239,-6.7222,-6.5577,-6.4381,-6.3671,-6.2723,-6.179,-6.0935,-6.0742,-6.0165,-5.9358,-5.9242,-5.828,-5.6791,-5.5895,-5.5049,-5.4164,-5.25,-5.1846,-5.1423,-4.9202,0.0,0.0,-4.6355,-4.5748,-4.5594,-4.5594,-4.5594,-4.5594,-4.5594,-4.5594,-4.5594,-4.5594,-4.5594,-4.5594,-4.5594,-4.5594,-4.5594,-4.5594,-4.5594,-4.5325,-4.447,-4.3662,-4.2816,-4.1962,-4.0508,-3.913,-3.8277,-3.7507,-3.6654,-3.5731,-3.5654,-3.5308,-3.443,0.0,0.0,-3.1968,-3.1737,-3.1006,-2.9357,-2.9242,-2.9165,-2.8973,-2.905,-2.9044,-2.8912,-2.8562,-2.7967,-2.7164,-2.6894,-2.709,-2.7798,-2.7053,-2.6785,0.0,0.0,0.0,0.0,0.0,0.0,0.0,0.0,0.0,0.0,0.0,0.0,0.0,0.0,0.0,-6.0546,-6.4453,-6.7773,-7.0156,-7.1549,-7.2514,-7.3007,-7.3801,-7.4652,-7.5514,-7.67,-7.7085,-7.6383,-7.6791,-7.6472,-7.5014,-7.563,-7.4899,-7.2514,-7.2976,-7.1783,-6.8667,-6.8321,-6.75,-6.6189,0.0,0.0,-6.4378,-6.3639,-6.2797,-6.1793,-6.0358,-5.9281,-5.8473,-5.778,-5.6868,-5.5857,-5.5049,-5.4203,-5.3318,-5.2269,-5.151,-5.0856,-5.0356,-4.9279,-4.8048,-4.774,-4.6701,-4.5594,-4.5594,-4.5594,0.0,-4.5594,-4.5594,-4.5594,-4.5594,-4.5594,-4.5594,-4.5594,-4.5594,-4.5594,-4.5594,-4.5594,-4.5325,-4.447,-4.3662,-4.2816,-4.1962,-4.0931,-3.9977,-3.9169,-3.8892,-3.8238,-3.6654,-3.6462,-3.6154,-3.5346,-3.4622,-3.3782,-3.2776,-3.2083,-3.1275,-3.0192,-3.0154,-2.9544,-2.8203,-2.8742,-2.8729,-2.7918,-2.7608,-2.7274,-2.6951,-2.7368,-2.764,-2.7798,-2.764,-2.7934,0.0,0.0,0.0,0.0,0.0,0.0,0.0,0.0,0.0,0.0,0.0,-5.387,0.0,0.0,-6.0204,-6.4295,-6.7851,-7.0547,-7.1836,-7.2948,-7.3348,-7.2598,-7.3373,-7.4163,-7.4598,-7.594,-7.6636,-7.6173,-7.6475,-7.6284,-7.5399,-7.5361,-7.4591,-7.2899,-7.2437,-7.1206,-6.909,-6.8205,-6.7321,-6.6474,-6.5296,-6.4436,-6.3897,-6.2712,-6.194,-6.1408,-6.0512,-5.9435,-5.8204,-5.6896,-5.6088,-5.5626,-5.4818,-5.3972,-5.3049,-5.1779,-5.1048,-5.0635,-5.0212,-4.9202,-4.8048,-4.7625,-4.6624,-4.5594,-4.5594,-4.5594,-4.5594,-4.5594,-4.5594,-4.5594,-4.5594,-4.5594,-4.5594,-4.5594,-4.5594,-4.5594,-4.5594,-4.5248,-4.4816,-4.4393,-4.3316,-4.2316,-4.1885,-4.1085,-4.0246,-3.9438,-3.9284,-3.8661,-3.6923,-3.6692,-3.6385,-3.5577,-3.5122,-3.4314,-3.3006,-3.1775,-3.0846,-3.0423,-3.0385,-3.0038,-2.9198,-2.9544,-2.9509,-2.9015,-2.8655,-2.839,-2.8285,-2.8371,-2.8411,-2.8411,-2.8411,-2.862,0.0,0.0,0.0,0.0,0.0,0.0,0.0,0.0,-5.2493,-5.4874,-5.6001,-5.7379,-6.0227,-6.1434,-6.3432,-6.7732,-7.0312,-7.2109,-7.3083,-7.3671,-7.3337,-7.1555,-7.2616,-7.3534,-7.3689,-7.4797,-7.5592,-7.5745,-7.5745,-7.5668,-7.5515,-7.5014,-7.4091,-7.2822,-7.1552,-7.036,-6.9206,-6.7782,-6.7013,-6.6821,-6.4628,-6.3462,-6.3231,-6.1743,-6.0973,-6.0781,-6.0473,-5.9435,-5.7934,-5.6357,-5.5703,-5.5626,-5.4818,-5.3972,-5.301,-5.1471,-5.0827,-5.0596,-4.9702,-4.8817,-4.7971,-4.7154,-4.6317,-4.5594,-4.5594,-4.5594,-4.5594,-4.5594,-4.5594,-4.5594,-4.5594,-4.5594,-4.5594,-4.5594,-4.5594,-4.5594,-4.5594,-4.494,-4.4239,-4.4085,-4.2854,-4.1731,-4.1585,-4.0969,-4.0285,-3.9631,-3.9515,-3.8969,-3.743,-3.7046,-3.6654,-3.5808,-3.5423,-3.4622,-3.3045,-3.15,-3.0654,-3.0654,-3.05,-3.0385,-3.0385,-3.0385,-3.0385,-3.0385,-2.9985,-2.9754,-2.9746,-2.9285,-2.9078,-2.9078,-2.901,-2.8987,-4.7461,-4.8672,-5.0469,-5.2734,-5.2851,-5.3984,0.0,0.0,-5.932,-6.1211,-6.2605,-6.346,-6.3385,-6.4103,-6.5679,-6.8786,-7.0156,-7.1364,-7.284,-7.3012,-7.2242,-7.0329,-7.16,-7.2925,-7.371,-7.3768,-7.4091,-7.4784,-7.4861,-7.4553,-7.3822,-7.4361,-7.3283,-7.0206,-7.0629,-6.9783,-6.7398,-6.7205,-6.6744,-6.6013,-6.4974,-6.4051,-6.3281,-6.2358,-6.1524,-6.0704,-5.9242,-5.8011,-5.706,-5.6088,-5.5703,-5.5626,-5.4818,-5.3972,-5.3087,-5.2115,-5.1318,-5.0596,-4.9702,-4.8817,-4.7971,-4.7154,-4.6317,-4.5594,-4.5594,-4.5594,-4.5594,-4.5594,-4.5594,-4.5594,-4.5594,-4.5594,-4.5594,-4.5594,-4.5594,-4.5594,-4.5594,-4.494,-4.4085,-4.3355,-4.247,-4.1546,-4.0785,-4.0554,-4.0477,-4.0362,-4.0362,-4.0054,-3.913,-3.8315,-3.7507,-3.6654,-3.5238,-3.393,-3.2968,-3.2083,-3.1545,-3.1545,-3.0846,-3.0385,-3.0385,-3.0385,-3.0385,-3.0385,-3.0115,-2.9969,-2.9969,-2.9561,-2.938,-2.9332,-2.9112,-2.8987,-4.8984,-5.0742,0.0,0.0,-5.5976,-5.8046,-6.1387,-6.1755,-6.2037,-6.4186,-6.502,-6.562,-6.648,-6.6638,-6.7208,0.0,-7.0503,-7.1636,-7.2168,-7.1672,-7.0774,-6.9382,-6.8889,-6.92,-7.0551,-7.1454,-7.2322,-7.3168,-7.3245,-7.3514,-7.4168,-7.3591,-7.2822,-7.1937,-7.0321,-6.8936,-6.7859,-6.6898,-6.5974,-6.5128,-6.4282,-6.3397,-6.2551,-6.1743,-6.1127,-6.0742,-5.9511,-5.8511,-5.7703,-5.6819,-5.6175,-5.5665,-5.5318,-5.4703,-5.378,-5.2423,-5.1395,-5.0635,-5.0289,-4.9586,-4.8702,-4.7855,-4.7048,-4.6278,-4.5748,-4.5594,-4.5594,-4.5594,-4.5594,-4.5594,-4.5594,-4.5594,-4.5594,-4.5594,-4.5594,-4.5594,-4.5594,-4.494,-4.4047,-4.3278,-4.2393,-4.1508,-4.0669,-4.0516,-4.0516,-4.0516,-4.0516,-4.0208,-3.94,-3.8546,-3.7507,-3.6154,-3.493,-3.4052,-3.3705,-3.2891,-3.2391,-3.2391,-3.1621,-3.1154,-3.1154,-3.0654,-3.0385,-3.0385,-3.0136,-3.0006,-2.9999,-2.9598,-2.9384,-2.9373,-2.9123,-2.8987,-5.0234,0.0,0.0,-5.668,-5.9648,-6.238,-6.311,-6.3784,-6.4751,-6.6458,-6.6476,-6.6663,-6.8093,-6.7588,-6.7459,-6.8951,-7.0134,-7.1038,-7.1585,-7.0563,-6.9336,-6.8083,-6.653,-6.582,-6.659,-6.859,-7.0321,-7.1437,-7.1706,-7.2476,-7.3937,-7.286,-7.2283,-7.2437,-6.9821,-6.8282,-6.8052,-6.6628,-6.5474,-6.4589,-6.3743,-6.2897,-6.2062,-6.1204,-6.0781,-6.0742,-5.9896,-5.9165,-5.855,-5.7434,-5.6637,-5.6011,-5.578,-5.5203,-5.4318,-5.2818,-5.1741,-5.0971,-5.051,-4.9933,-4.9202,-4.8125,-4.7355,-4.674,-4.5855,-4.5594,-4.5594,-4.5594,-4.5594,-4.5594,-4.5594,-4.5594,-4.5594,-4.5594,-4.5594,-4.5594,-4.5594,-4.494,-4.4047,-4.3278,-4.2585,-4.1816,-4.0708,-4.0708,-4.0785,-4.0554,-4.0516,-4.0285,-3.9708,-3.8661,-3.7353,-3.5692,-3.493,-3.4545,-3.4545,-3.3776,-3.316,-3.2929,-3.216,-3.1583,-3.1346,-3.0731,-3.0385,-3.0385,-3.0228,-3.0122,-3.0122,-2.9923,-2.983,-2.982,-2.9721,-2.9647,-5.0898,-5.3906,-5.7305,-6.0664,-6.414,-6.6873,-6.7565,-6.8203,-6.8667,-6.8549,-6.7734,-6.7126,-6.7396,-6.6182,-6.6051,-6.8759,-6.8535,-6.8843,-7.1161,-6.9925,-6.8052,-6.6191,-6.5179,-6.4012,0.0,-6.5294,-6.7936,-6.9667,-7.0514,-7.1321,-7.2206,-7.2206,-7.1475,-6.986,-6.8898,-6.7975,-6.7128,-6.632,-6.5474,-6.4589,-6.3743,-6.2897,-6.2062,-6.1204,-6.0781,-6.0742,-5.9896,-5.9473,-5.9358,-5.7665,-5.6983,-5.6868,-5.6011,-5.5203,-5.4395,-5.351,-5.2615,-5.1615,-5.001,-4.9433,-4.9125,-4.7471,-4.6923,-4.674,-4.5855,-4.5594,-4.5594,-4.5594,-4.5594,-4.5594,-4.5594,-4.5594,-4.5594,-4.5594,-4.5594,-4.5594,-4.5594,-4.494,-4.4047,-4.3278,-4.3085,-4.2508,-4.0785,-4.12,-4.147,-4.0631,-4.0516,-4.0477,-4.0477,-3.9008,-3.7353,-3.5692,-3.5462,-3.5462,-3.5462,-3.4661,-3.3821,-3.2968,-3.216,-3.1308,-3.0462,-3.0423,-3.0385,-3.0385,-3.0379,-3.0379,-3.0379,-3.0712,-3.0866,-3.0847,-3.1191,-3.1323,-5.3966,-5.7729,-6.168,-6.5156,-6.8164,-7.0423,-7.1034,-7.0446,-6.9352,-6.7906,-6.5098,-6.274,-6.2238,-6.1366,-6.1391,-6.3411,-6.5522,-6.7352,-6.8588,-6.8732,-6.7578,-6.4549,-6.3935,0.0,0.0,0.0,0.0,-6.7051,-6.8475,-6.986,-7.1245,-7.1898,-7.1668,-7.0514,-6.9129,-6.7744,-6.632,-6.5474,-6.432,-6.2935,-6.205,-6.1512,-6.1243,-6.0935,-6.0781,-6.0781,-6.0473,-6.0012,-5.9396,-5.8319,-5.7511,-5.6907,-5.6049,-5.5511,-5.5126,-5.3703,-5.301,-5.251,-5.0856,-5.025,-4.9971,-4.8279,-4.7702,-4.7432,-4.6018,-4.5594,-4.5594,-4.5594,-4.5594,-4.5594,-4.5594,-4.5594,-4.5594,-4.5594,-4.5594,-4.5594,-4.5594,-4.5364,-4.4902,-4.4047,-4.347,-4.2739,-4.1546,-4.1123,-4.0862,-4.0554,-4.0516,-4.0092,-3.8969,-3.8354,-3.7353,-3.5692,-3.55,-3.55,-3.55,-3.5231,-3.493,-3.4654,-3.3276,-3.2622,-3.2891,-3.1308,-3.0923,-3.2045,-3.0962,-3.0962,-3.2045,-3.1455,-3.1475,-3.2007,-3.1767,-3.1656,-5.7687,-6.1902,-6.6055,-6.9219,-7.1953,-7.3585,-7.2585,-7.1005,-6.8924,-6.594,-6.2166,-5.9088,-5.7934,-5.6907,-5.7009,-5.9304,-6.1616,-6.3898,-6.6185,-6.666,-6.6223,-6.4845,-6.4397,-6.382,0.0,0.0,0.0,-6.582,-6.7436,-6.9013,-7.0398,-7.1283,-7.136,-7.0514,-6.9129,-6.759,-6.5897,-6.5051,-6.3743,-6.2101,-6.1216,-6.0781,-6.0781,-6.0781,-6.0781,-6.0781,-6.0781,-6.0319,-5.9435,-5.8627,-5.778,-5.6907,-5.6049,-5.5703,-5.5511,-5.3818,-5.3203,-5.2972,-5.1279,-5.0712,-5.0481,-4.9048,-4.8355,-4.7855,-4.6471,-4.5864,-4.5594,-4.5594,-4.5594,-4.5594,-4.5594,-4.5594,-4.5594,-4.5594,-4.5594,-4.5594,-4.5594,-4.5594,-4.5325,-4.447,-4.4124,-4.3547,-4.2038,-4.1085,-4.0516,-4.0516,-4.0516,-4.0015,-3.8623,-3.82,-3.7469,-3.6077,-3.5654,-3.55,-3.55,-3.55,-3.5385,-3.5045,-3.3968,-3.3468,-3.3744,-3.216,-3.1814,-3.2891,-3.1852,-3.1814,-3.2891,-3.2407,-3.2422,-3.2864,-3.2722,-3.2657,-6.1969,-6.639,-7.039,-7.289,-7.5312,-7.6125,-7.2284,-7.0006,-6.7352,-6.2789,-5.9061,-5.6099,0.0,0.0,-5.3172,-5.6598,-5.7265,-5.9177,-6.4221,-6.4172,-6.4512,0.0,0.0,0.0,0.0,0.0,0.0,-6.609,0.0,-6.8821,-6.9667,-7.0514,-7.0552,-6.9667,-6.8783,-6.7513,-6.5782,-6.4859,-6.3628,-6.2101,-6.1216,-6.0781,-6.0781,-6.0781,-6.0781,-6.0781,-6.0781,-6.0319,-5.9435,-5.8627,-5.7791,-5.6928,-5.6032,-5.5735,-5.5514,-5.3839,-5.3223,-5.2954,-5.1289,-5.0712,-5.0558,-4.9625,-4.8817,-4.8009,-4.7086,-4.6278,-4.5671,-4.5594,-4.5594,-4.5594,-4.5594,-4.5594,-4.5594,-4.5594,-4.5594,-4.5594,-4.5594,-4.5594,-4.5364,-4.4509,-4.5017,-4.4739,-4.2239,-4.1123,-4.0554,-4.0516,-4.0516,-4.0208,-3.94,-3.8546,-3.7661,-3.6769,-3.5962,-3.55,-3.55,-3.55,-3.5122,-3.4244,-3.4205,-3.3821,-3.3006,-3.2929,-3.2929,-3.3045,-3.2968,-3.2929,-3.3045,-3.3555,-3.3726,-3.3505,-3.4034,-3.4246,-6.6444,-7.1248,-7.5351,-7.6055,-7.6211,-7.5228,-7.1399,-6.7253,-6.3087,-5.9125,-5.4598,-5.101,0.0,0.0,0.0,-5.4641,-5.7832,0.0,-6.5107,-6.7025,0.0,-6.809,0.0,-6.8744,-6.8744,-6.8129,0.0,0.0,-6.9129,-6.9475,-6.9706,-7.1091,-7.0898,-6.8821,-6.7898,-6.632,-6.4012,-6.2512,-6.1858,-6.2101,-6.1216,-6.0781,-6.0781,-6.0781,-6.0781,-6.0781,-6.0781,-6.0319,-5.9435,-5.8627,-5.786,-5.7068,-5.6179,-5.5939,-5.5863,-5.4018,-5.3335,-5.3086,-5.1318,-5.0712,-5.0442,-4.8933,-4.8702,-4.8663,-4.6586,-4.624,-4.6432,-4.5787,-4.5594,-4.5594,-4.5594,-4.5594,-4.5594,-4.5594,-4.5594,-4.5594,-4.5594,-4.5594,-4.5518,-4.5325,-4.4932,-4.4047,-4.2124,-4.1623,-4.1239,-4.0593,-4.0516,-4.0208,-3.94,-3.8546,-3.7661,-3.6769,-3.5962,-3.55,-3.55,-3.55,-3.5122,-3.4244,-3.4205,-3.409,-3.3898,-3.3237,-3.3506,-3.4808,-3.3545,-3.3545,-3.4846,-3.4344,-3.441,-3.4963,-3.4893,-3.486,-7.0829,-7.5254,-7.8672,-7.7969,-7.6755,-7.4508,-6.965,-6.4804,-5.9929,-5.4747,-5.1087,-4.8355,-4.674,-4.6817,0.0,0.0,0.0,0.0,-6.2974,-6.5513,-6.7552,0.0,-7.0283,0.0,-7.0783,-7.0706,-7.086,0.0,-7.0321,-6.9706,-6.9706,-7.0937,-7.0629,-6.8475,-6.7936,-6.6244,-6.332,-6.1627,-6.105,-6.1524,-6.1012,-6.0781,-6.0781,-6.0781,-6.0781,-6.0781,0.0,-6.0127,-5.8934,-5.8511,-5.7631,-5.6574,-5.607,-5.6005,-5.5981,-5.4076,-5.3383,-5.312,-5.1345,-5.0712,-5.0558,-4.9548,-4.9317,-4.9048,-4.724,-4.6778,-4.674,-4.5864,-4.5594,-4.5594,-4.5594,-4.5594,-4.5594,-4.5594,-4.5594,-4.5594,-4.5594,-4.5594,-4.5594,-4.5594,-4.4893,-4.4008,-4.3047,-4.2277,-4.1623,-4.1123,-4.0746,-4.0323,-3.99,-3.9084,-3.8238,-3.7353,-3.65,-3.5885,-3.5538,-3.55,-3.5269,-3.4814,-3.4776,-3.4776,-3.4776,-3.4314,-3.45,-3.5462,-3.4538,-3.45,-3.55,-3.5007,-3.4966,-3.5331,-3.5174,-3.5086,-7.493,-7.8437,-8.0741,-7.9062,-7.6866,-7.354,-6.7428,-6.2387,-5.7102,-5.0441,-4.8279,-4.6932,-4.4701,-4.4393,-4.5393,-4.8163,0.0,-5.3521,-6.0204,-6.2589,-6.5436,-7.0321,-7.1783,-7.2399,-7.2514,-7.3206,-7.3654,-7.3654,-7.1398,-7.0014,-7.0014,-7.0591,-7.009,-6.8282,-6.7898,-6.6346,-6.3512,-6.1704,-6.0858,-6.0973,-6.0858,-6.0781,-6.0781,-6.0781,-6.0781,-6.0781,0.0,0.0,-5.828,-5.8165,-5.7265,-5.5924,-5.5924,-5.6058,-5.6038,-5.4123,-5.3427,-5.3158,-5.1316,-5.0712,-5.0673,-5.0558,-5.001,-4.9202,-4.824,-4.7471,-4.674,-4.5864,-4.5594,-4.5594,-4.5594,-4.5594,-4.5594,-4.5594,-4.5594,-4.5594,-4.5594,-4.5594,-4.5594,-4.5594,-4.4979,-4.4432,-4.4316,-4.3085,-4.2085,-4.2,-4.1239,-4.0669,-4.0669,-3.9861,-3.8977,-3.8084,-3.7238,-3.6385,-3.5577,-3.55,-3.5462,-3.5346,-3.5423,-3.5462,-3.5346,-3.5423,-3.55,-3.55,-3.55,-3.55,-3.55,-3.55,-3.5376,-3.5166,-3.5166,-3.5166,-7.7727,-8.0129,-8.1446,-7.9881,-7.6015,-7.1162,-6.5585,-5.9358,0.0,0.0,-4.6086,-4.4816,-4.4393,-4.4893,-4.6663,-5.0577,-5.2702,-5.5934,-6.2012,-6.4359,-6.6821,0.0,-7.2322,-7.3553,-7.4207,-7.4399,0.0,0.0,0.0,-7.1783,-7.1783,-7.1206,-6.9783,-6.7398,-6.5282,-6.4243,-6.4359,-6.2012,-6.1166,-6.187,-6.1127,-6.0781,-6.0781,-6.0781,-6.0781,-6.0742,-6.005,0.0,-5.8242,-5.7511,-5.6798,-5.6152,-5.6152,-5.6297,-5.6277,-5.4312,-5.3563,-5.3291,-5.1378,-5.0712,-5.0596,-4.9856,-4.951,-4.9125,-4.7586,-4.7,-4.674,-4.5864,-4.5594,-4.5594,-4.5594,-4.5594,-4.5594,-4.5594,-4.5594,-4.5594,-4.5594,-4.5594,-4.5594,-4.5594,-4.5479,-4.5171,-4.4432,-4.4047,-4.3624,-4.297,-4.2124,-4.1585,-4.1585,-4.0239,-3.8977,-3.8084,-3.7238,-3.6385,-3.5577,-3.55,-3.5192,-3.4468,-3.5122,-3.5192,-3.4468,-3.5122,-3.55,-3.55,-3.55,-3.55,-3.55,-3.55,-3.5486,-3.5412,-3.5412,-3.5412,-7.8806,-8.0818,-8.1613,-7.997,-7.5333,-6.97,-6.3908,0.0,0.0,0.0,-4.4586,-4.4047,-4.3162,-4.4047,0.0,-4.8202,-5.0048,-5.3241,-5.9204,-6.1473,0.0,-6.9052,-7.1514,-7.2976,0.0,-7.4207,0.0,0.0,0.0,-7.2206,-7.2206,-7.0552,-6.8821,-6.7128,-6.4628,-6.332,-6.3281,-6.1627,-6.1012,-6.1396,-6.1012,-6.0781,-6.0781,-6.0781,-6.0781,-6.0781,-6.0358,0.0,-5.828,-5.7857,-5.7013,-5.6032,-5.6164,-5.6301,-5.627,-5.4381,-5.3654,-5.334,-5.144,-5.0776,-5.0635,-5.0212,-5.0087,-4.974,-4.8048,-4.7509,-4.7278,-4.5979,-4.5594,-4.5594,-4.5594,-4.5594,-4.5594,-4.5594,-4.5594,-4.5594,-4.5594,-4.5594,-4.5594,-4.5594,-4.5594,-4.5479,-4.5056,-4.4586,-4.4162,-4.3778,-4.2624,-4.1808,-4.1808,-4.07,-3.9592,-3.8777,-3.7892,-3.7046,-3.6192,-3.5731,-3.5308,-3.4891,-3.5269,-3.5308,-3.4891,-3.5269,-3.55,-3.55,-3.55,-3.55,-3.55,-3.55,-3.55,-3.55,-3.55,-3.55,-7.8657,-8.0565,-8.1176,-7.9486,-7.4433,-6.8344,-6.2421,-5.6006,0.0,-4.4221,-4.3431,-4.3355,-4.2038,-4.2893,-4.4239,0.0,-4.6971,-4.9933,-5.5868,-5.8319,-6.1512,0.0,-7.0167,0.0,0.0,0.0,0.0,0.0,0.0,0.0,-7.1668,-6.9484,-6.7829,-6.6984,-6.437,-6.2745,-6.2209,-6.1184,-6.0722,-6.0781,-6.0781,-6.0781,-6.0781,-6.0781,-6.0781,-6.0781,-6.0589,0.0,0.0,-5.8088,-5.7168,-5.5901,-5.6135,-5.6152,-5.592,-5.4367,-5.3618,-5.3073,-5.1463,-5.0795,-5.0712,-5.0712,-5.0442,-4.9894,-4.8509,-4.7855,-4.7278,-4.5979,-4.5594,-4.5594,-4.5594,-4.5594,-4.5594,-4.5594,-4.5594,-4.5594,-4.5594,-4.5594,-4.5594,-4.5594,-4.5594,-4.5594,-4.5594,-4.5017,-4.4586,-4.4586,-4.3316,-4.2354,-4.2354,-4.1431,-4.0554,-3.9892,-3.8738,-3.7661,-3.6769,-3.5962,-3.55,-3.55,-3.55,-3.55,-3.55,-3.55,-3.55,-3.55,-3.55,-3.55,-3.55,-3.55,-3.55,-3.55,-3.55,-3.55,-7.7063,-7.9022,-7.9931,-7.8396,-7.2958,-6.6549,-6.1165,0.0,-4.7583,-4.3874,-4.2547,-4.1962,-4.1808,-4.1923,-4.3077,-4.6278,0.0,-4.9086,-5.4972,-5.7934,-6.0858,-6.4512,0.0,0.0,0.0,0.0,0.0,0.0,0.0,0.0,-6.9975,-6.851,-6.7299,-6.6497,-6.3571,-6.2193,-6.2536,-6.0948,-6.0365,-6.0781,-6.0781,-6.0781,-6.0781,-6.0781,-6.0781,-6.0742,-5.9973,0.0,0.0,-5.7434,-5.6638,-5.5901,-5.6135,-5.5801,-5.5101,-5.4133,-5.3224,-5.229,-5.1269,-5.0795,-5.0712,-5.0712,-4.9625,-4.8317,-4.8163,-4.7048,-4.5787,-4.5633,-4.5594,-4.5594,-4.5594,-4.5594,-4.5594,-4.5594,-4.5594,-4.5594,-4.5594,-4.5594,-4.5594,-4.5594,-4.5594,-4.5594,-4.5594,-4.5518,-4.5479,-4.5479,-4.4662,-4.4085,-4.4085,-4.2662,-4.1654,-4.1585,-3.9431,-3.7661,-3.6769,-3.5962,-3.55,-3.55,-3.55,-3.55,-3.55,-3.55,-3.55,-3.55,-3.55,-3.55,-3.55,-3.55,-3.55,-3.55,-3.55,-3.55,-7.4128,-7.7174,-7.8807,-7.6672,-7.1093,-6.4896,-6.0165,0.0,-4.6854,-4.4336,-4.2739,-4.1808,-4.1808,-4.1808,-4.2231,-4.3615,0.0,0.0,-5.0433,0.0,-5.5049,0.0,0.0,0.0,0.0,0.0,0.0,0.0,0.0,0.0,-6.7752,-6.6713,-6.5629,-6.4468,-6.2307,-6.1141,-6.108,-6.0446,-6.0338,-6.0781,-6.0781,-6.0781,-6.0781,-6.0781,-6.0781,-6.0742,-5.9896,0.0,0.0,-5.7368,-5.6508,-5.5808,-5.5963,-5.554,-5.4758,-5.3987,-5.3044,-5.2046,-5.1189,-5.0795,-5.0712,-5.0712,-4.951,-4.8086,-4.8086,-4.7317,-4.6278,-4.5748,-4.5594,-4.5594,-4.5594,-4.5594,-4.5594,-4.5594,-4.5594,-4.5594,-4.5594,-4.5594,-4.5594,-4.5594,-4.5594,-4.5594,-4.5594,-4.5594,-4.5594,-4.5594,-4.4855,-4.4316,-4.4316,-4.2854,-4.1808,-4.1808,-3.9508,-3.8084,-3.8238,-3.6577,-3.5692,-3.6192,-3.5769,-3.55,-3.55,-3.55,-3.55,-3.55,-3.55,-3.55,-3.55,-3.55,-3.55,-3.55,-3.55,-3.55,-6.9833,-7.3446,-7.5678,-7.3887,-6.8394,-6.2455,0.0,0.0,-4.6158,-4.432,-4.2816,-4.1731,-4.147,-4.1431,-4.1508,0.0,0.0,-4.3192,-4.7201,-4.8163,0.0,0.0,0.0,0.0,0.0,0.0,0.0,0.0,0.0,0.0,0.0,-6.4305,-6.3437,-6.2899,-6.1167,-6.019,-6.0037,-5.9937,-6.0132,-6.061,-6.0734,-6.0781,-6.0781,-6.0512,-6.0435,-6.0358,0.0,0.0,0.0,-5.7253,-5.6483,-5.5696,-5.5608,-5.5033,-5.4211,-5.3491,-5.2601,-5.1678,-5.1083,-5.0795,-5.0673,-5.0404,-4.9317,-4.8048,-4.7817,-4.7163,-4.6394,-4.5787,-4.5594,-4.5594,-4.5594,-4.5594,-4.5594,-4.5594,-4.5594,-4.5594,-4.5594,-4.5594,-4.5594,-4.5594,-4.5594,-4.5594,-4.5594,-4.5594,-4.5594,-4.5594,-4.5094,-4.4586,-4.4316,-4.3047,-4.2085,-4.1808,-3.9738,-3.8546,-3.8892,-3.7046,-3.6,-3.6308,-3.5808,-3.55,-3.55,-3.55,-3.55,-3.55,-3.55,-3.55,-3.55,-3.55,-3.55,-3.55,-3.55,-3.55,-6.3911,-6.7205,-6.9783,-6.9744,-6.464,-5.8907,0.0,-5.0481,-4.5133,-4.347,-4.2431,-4.1546,-4.0669,-4.0516,-4.0785,-4.1662,-4.1808,0.0,-4.6423,-4.8355,0.0,0.0,0.0,0.0,0.0,0.0,0.0,0.0,0.0,0.0,0.0,-6.1164,-6.0787,-6.2348,-6.0328,-5.9434,-5.9885,-5.9571,-5.9625,-6.0118,-6.0597,-6.0781,-6.0781,-5.9896,-5.9511,0.0,0.0,0.0,0.0,-5.6983,-5.6483,-5.5619,-5.4959,-5.4189,-5.3305,-5.2603,-5.1707,-5.0928,-5.0889,-5.0795,-5.0558,-4.9702,-4.8817,-4.7971,-4.7154,-4.6317,-4.5594,-4.5594,-4.5594,-4.5594,-4.5594,-4.5594,-4.5594,-4.5594,-4.5594,-4.5594,-4.5594,-4.5594,-4.5594,-4.5594,-4.5594,-4.5594,-4.5594,-4.5594,-4.5594,-4.5594,-4.5594,-4.5287,-4.4393,-4.3585,-4.2777,-4.1885,-4.0277,-3.8931,-3.8084,-3.7199,-3.6346,-3.5577,-3.55,-3.55,-3.55,-3.55,-3.55,-3.55,-3.55,-3.55,-3.55,-3.55,-3.55,-3.55,-3.55,-3.55,-5.8635,-6.1473,-6.332,-6.2204,-5.8511,-5.4664,-5.2741,-4.7932,-4.3893,-4.3932,-4.2316,-4.1008,-4.1316,-4.0893,-4.0785,-4.1662,-4.1808,0.0,0.0,0.0,0.0,0.0,0.0,0.0,0.0,0.0,0.0,0.0,0.0,0.0,0.0,-6.0497,-5.9692,-6.0208,-5.9007,-5.8622,-5.9065,-5.8947,-5.9038,-5.9226,-5.9338,-5.9294,-5.9088,-5.8819,0.0,0.0,0.0,0.0,0.0,-5.6368,-5.5934,-5.5637,-5.4843,-5.4024,-5.3176,-5.2331,-5.1503,-5.0747,-5.0747,-5.074,-5.0558,-4.9663,-4.8817,-4.7971,-4.7154,-4.6278,-4.5594,-4.5594,-4.5594,-4.5594,-4.5594,-4.5594,-4.5594,-4.5594,-4.5594,-4.5594,-4.5594,-4.5594,-4.5594,-4.5594,-4.5594,-4.5594,-4.5594,-4.5594,-4.5594,-4.5594,-4.5594,-4.5518,-4.521,-4.397,-4.3008,-4.2739,-4.1162,-4.0015,-3.9746,-3.8392,-3.7738,-3.8084,-3.7546,-3.693,-3.6346,-3.6308,-3.6077,-3.55,-3.55,-3.55,-3.55,-3.55,-3.55,-3.55,-3.55,-3.55,0.0,-5.6126,-5.7742,-5.7049,-5.4318,0.0,-5.0433,-4.674,-4.3624,-4.3816,-4.2316,-4.1046,-4.1277,-4.0854,-4.0669,-4.1239,-4.1316,0.0,0.0,0.0,0.0,0.0,0.0,0.0,0.0,0.0,0.0,0.0,0.0,0.0,0.0,-5.9563,-5.8767,-5.8767,-5.8253,-5.7994,-5.7995,-5.8165,-5.8184,-5.8076,-5.8277,-5.8348,-5.828,-5.7973,0.0,0.0,0.0,0.0,0.0,-5.5934,-5.5511,-5.5164,-5.4318,-5.3472,-5.2626,-5.1779,-5.1125,-5.0712,-5.0712,-5.0712,-5.0519,-4.9317,-4.8125,-4.7048,-4.6547,-4.6009,-4.5594,-4.5594,-4.5594,-4.5594,-4.5594,-4.5594,-4.5594,-4.5594,-4.5594,-4.5594,-4.5594,-4.5594,-4.5594,-4.5594,-4.5594,-4.5594,-4.5594,-4.5594,-4.5594,-4.5594,-4.5594,-4.5479,-4.5171,-4.3932,-4.297,-4.2624,-4.1354,-4.0516,-4.0516,-3.9284,-3.8584,-3.8815,-3.8315,-3.7777,-3.7199,-3.7199,-3.6808,-3.5962,-3.5962,-3.5808,-3.55,-3.55,-3.55,-3.55,-3.55,-3.55,0.0,-5.1168,-5.2856,0.0,0.0,0.0,-4.9048,-4.6547,0.0,-4.3162,-4.2316,-4.147,-4.0746,-4.0554,-4.0554,-4.0669,-4.0669,-4.1285,0.0,-4.5607,0.0,0.0,0.0,0.0,0.0,0.0,0.0,0.0,0.0,0.0,0.0,-5.8524,-5.796,-5.7923,-5.7923,-5.7556,-5.6822,-5.7179,-5.7174,-5.6807,-5.727,-5.7685,-5.8088,-5.728,0.0,0.0,0.0,0.0,0.0,-5.5588,-5.5126,-5.4318,-5.3433,-5.2615,-5.1808,-5.101,-5.0712,-5.0712,-5.0635,-5.0596,-5.0327,-4.8586,-4.6932,-4.5594,-4.5594,-4.5594,-4.5594,-4.5594,-4.5594,-4.5594,-4.5594,-4.5594,-4.5594,-4.5594,-4.5594,-4.5594,-4.5594,-4.5594,-4.5594,-4.5594,-4.5594,-4.5594,-4.5594,-4.5594,-4.5594,-4.5594,-4.5594,-4.5287,-4.4393,-4.3585,-4.2777,-4.1885,-4.1008,-4.0516,-4.0516,-3.9823,-3.9053,-3.8238,-3.8161,-3.8161,-3.8084,-3.8084,-3.77,-3.6808,-3.6769,-3.6385,-3.5577,-3.5577,-3.5577,-3.55,-3.55,-3.55,-4.5963,0.0,-4.7441,-4.7634,-4.7095,-4.6326,0.0,-4.4393,-4.3124,-4.2277,-4.1393,-4.0931,-4.1393,-4.0931,-4.0939,-4.2277,-4.247,-4.2854,-4.3855,0.0,0.0,-5.5938,0.0,0.0,0.0,0.0,0.0,0.0,0.0,0.0,0.0,-5.8524,-5.7703,-5.7116,-5.7079,-5.7005,-5.6822,-5.6316,-5.6043,-5.5977,-5.609,-5.6207,-5.628,-5.6088,0.0,0.0,0.0,0.0,-5.478,-5.478,-5.428,-5.3433,-5.2538,-5.2077,-5.1808,-5.101,-5.0712,-5.0596,-4.9933,-4.9702,-4.9433,-4.774,-4.6471,-4.5594,-4.5594,-4.5594,-4.5594,-4.5594,-4.5594,-4.5594,-4.5594,-4.5594,-4.5594,-4.5594,-4.5594,-4.5594,-4.5594,-4.5594,-4.5594,-4.5594,-4.5594,-4.5594,-4.5594,-4.5594,-4.5594,-4.5594,-4.5594,-4.5287,-4.4393,-4.3585,-4.2777,-4.1885,-4.1008,-4.0516,-4.0516,-4.0323,-4.0131,-3.9938,-3.99,-3.9631,-3.9015,-3.8977,-3.8584,-3.77,-3.77,-3.7276,-3.6423,-3.6423,-3.6115,-3.55,-3.55,-3.55,-4.5201,-4.5457,-4.5594,-4.5594,-4.5594,-4.5479,-4.5017,-4.397,-4.297,-4.2508,-4.1393,-4.0631,-4.1123,-4.0823,-4.0939,-4.2277,-4.2508,0.0,0.0,0.0,-5.3465,0.0,0.0,0.0,0.0,0.0,0.0,0.0,0.0,0.0,0.0,-5.7617,-5.6712,-5.6271,-5.5904,-5.5721,-5.5721,-5.528,-5.5087,-5.5147,-5.4732,-5.4776,-5.5126,-5.4741,-5.4549,0.0,0.0,0.0,-5.3895,-5.3895,-5.3395,-5.2538,-5.2077,-5.1654,-5.1318,-5.0856,-5.0712,-5.0596,-4.9702,-4.8894,-4.8086,-4.7201,-4.6317,-4.5594,-4.5594,-4.5594,-4.5594,-4.5594,-4.5594,-4.5594,-4.5594,-4.5594,-4.5594,-4.5594,-4.5594,-4.5594,-4.5594,-4.5594,-4.5594,-4.5594,-4.5594,-4.5594,-4.5594,-4.5594,-4.5594,-4.5594,-4.5594,-4.5441,-4.4979,-4.3855,-4.2931,-4.247,-4.1239,-4.0516,-4.0516,-4.0516,-4.0516,-4.0516,-4.0516,-4.0285,-3.9861,-3.9861,-3.9477,-3.8623,-3.82,-3.7584,-3.6692,-3.6692,-3.6269,-3.55,-3.55,-3.55,-4.5179,-4.5453,-4.5594,-4.5594,-4.5594,-4.5556,-4.5441,-4.4278,-4.3201,-4.297,-4.1739,-4.0708,-4.0708,-4.0708,0.0,0.0,0.0,0.0,-4.8067,-4.9972,0.0,0.0,0.0,0.0,0.0,0.0,0.0,0.0,0.0,0.0,0.0,-5.6466,-5.5486,-5.5244,-5.4583,-5.4106,-5.3849,-5.3959,-5.4123,-5.4295,-5.345,-5.3484,-5.428,-5.3549,-5.3203,-5.3203,0.0,0.0,-5.301,-5.301,-5.251,-5.1731,-5.1731,-5.1318,-5.0673,-5.0558,-5.0519,-5.0366,-4.9356,-4.8009,-4.6701,-4.6701,-4.6201,-4.5594,-4.5594,-4.5594,-4.5594,-4.5594,-4.5594,-4.5594,-4.5594,-4.5594,-4.5594,-4.5594,-4.5594,-4.5594,-4.5594,-4.5594,-4.5594,-4.5594,-4.5594,-4.5594,-4.5594,-4.5594,-4.5594,-4.5594,-4.5594,-4.5556,-4.5441,-4.4162,-4.3201,-4.2931,-4.1585,-4.0631,-4.0516,-4.0516,-4.0516,-4.0516,-4.0516,-4.0516,-4.0516,-4.0516,-4.0169,-3.9515,-3.8623,-3.7777,-3.6885,-3.6769,-3.6269,-3.55,-3.55,-3.55,-4.4168,-4.4815,-4.5594,-4.5594,-4.5594,-4.5402,-4.4662,-4.4316,-4.3701,-4.2277,0.0,0.0,0.0,-4.1585,-4.1893,0.0,0.0,-4.7792,0.0,0.0,0.0,0.0,0.0,0.0,0.0,0.0,0.0,0.0,0.0,0.0,0.0,-5.6149,-5.4987,-5.3628,-5.3445,-5.2747,-5.1353,-5.2013,-5.2715,-5.3396,-5.2544,-5.2623,-5.3395,-5.328,-5.3203,-5.3203,0.0,-5.2779,-5.2115,-5.2115,-5.1625,-5.0894,-5.0894,-5.0827,-5.0596,-4.9856,-4.9586,-4.9394,-4.7817,-4.6624,-4.5787,-4.5787,-4.571,-4.5594,-4.5594,-4.5594,-4.5594,-4.5594,-4.5594,-4.5594,-4.5594,-4.5594,-4.5594,-4.5594,-4.5594,-4.5594,-4.5594,-4.5594,-4.5594,-4.5594,-4.5594,-4.5594,-4.5594,-4.5594,-4.5594,-4.5594,-4.5594,-4.5325,-4.4586,-4.4278,-4.3585,-4.2162,-4.1777,-4.1316,-4.0554,-4.0516,-4.0516,-4.0516,-4.0516,-4.0516,-4.0516,-4.0516,-4.0439,-4.0323,-3.9515,-3.8661,-3.7815,-3.7046,-3.6269,-3.55,-3.55,-3.55,-4.3905,-4.4208,-4.4614,-4.4614,-4.4958,-4.5122,-4.4231,-4.3881,-4.359,-4.3006,0.0,0.0,0.0,0.0,-4.3085,-4.4855,0.0,-4.9067,0.0,0.0,0.0,0.0,0.0,0.0,0.0,0.0,0.0,0.0,0.0,0.0,0.0,0.0,-5.2674,-5.194,-5.1463,-5.0912,-5.0141,-4.9627,-5.0434,-5.2544,-5.1715,-5.1697,-5.2462,-5.2049,-5.1856,-5.1856,0.0,-5.1625,-5.1241,-5.1241,-5.0741,-5.001,-5.001,-4.9702,-4.924,-4.8856,-4.8432,-4.7932,-4.7163,-4.6317,-4.5594,-4.5594,-4.5594,-4.5594,-4.5594,-4.5594,-4.5594,-4.5594,-4.5594,-4.5594,-4.5594,-4.5594,-4.5594,-4.5594,-4.5594,-4.5594,-4.5594,-4.5594,-4.5594,-4.5594,-4.5594,-4.5594,-4.5594,-4.5594,-4.5594,-4.5594,-4.5594,-4.5479,-4.5056,-4.4201,-4.3355,-4.2585,-4.1662,-4.0977,-4.0654,-4.0629,-4.0588,-4.0485,-4.0516,-4.0516,-4.0516,-4.0516,-4.0285,-3.9861,-3.9938,-3.9323,-3.8007,-3.7584,-3.6969,-3.6154,-3.5692,-3.55,-4.3352,-4.335,-4.3292,-4.2911,-4.3803,-4.4739,-4.4585,-4.4335,-4.4222,-4.4467,0.0,0.0,0.0,-4.3043,0.0,-4.6686,-4.8644,0.0,0.0,0.0,0.0,0.0,0.0,0.0,0.0,0.0,0.0,0.0,0.0,0.0,0.0,0.0,-5.0325,-4.9958,-4.9334,-4.8913,-4.8729,-4.7462,-4.8264,-5.1088,-5.0243,-5.0253,-5.1,-5.0587,-5.0404,-5.0404,-5.0596,-5.0596,-5.0404,-5.0404,-4.9894,-4.9086,-4.9086,-4.8586,-4.7817,-4.7817,-4.7317,-4.6586,-4.6586,-4.6163,-4.5594,-4.5594,-4.5594,-4.5594,-4.5594,-4.5594,-4.5594,-4.5594,-4.5594,-4.5594,-4.5594,-4.5594,-4.5594,-4.5594,-4.5594,-4.5594,-4.5594,-4.5594,-4.5594,-4.5594,-4.5594,-4.5594,-4.5594,-4.5594,-4.5594,-4.5594,-4.5594,-4.5594,-4.5594,-4.4278,-4.3294,-4.315,-4.1771,-4.0808,-4.0738,-4.071,-4.0665,-4.0577,-4.0566,-4.0468,-4.0236,-4.0231,-3.9838,-3.9035,-3.942,-3.9017,-3.7784,-3.7553,-3.7128,-3.6433,-3.5811,-3.5522,-4.1969,-4.1993,-4.1841,-4.0306,-4.1911,-4.4406,-4.6326,-4.6759,-4.6732,-4.668,0.0,0.0,0.0,-4.4605,-4.5889,-4.7296,0.0,0.0,0.0,0.0,0.0,0.0,0.0,0.0,0.0,0.0,0.0,0.0,0.0,0.0,0.0,0.0,0.0,-4.7406,-4.7296,-4.6929,-4.6177,-4.6067,-4.6837,-4.8471,-4.7641,-4.768,-4.8394,-4.9163,-4.9471,-4.9548,-5.0366,-5.025,-4.9471,-4.9471,-4.8971,-4.8202,-4.8202,-4.7702,-4.7,-4.7,-4.6432,-4.571,-4.571,-4.5671,-4.5594,-4.5594,-4.5594,-4.5594,-4.5594,-4.5594,-4.5594,-4.5594,-4.5594,-4.5594,-4.5594,-4.5594,-4.5594,-4.5594,-4.5594,-4.5594,-4.5594,-4.5594,-4.5594,-4.5594,-4.5594,-4.5594,-4.5594,-4.5594,-4.5594,-4.5594,-4.5594,-4.5594,-4.5594,-4.4778,-4.3967,-4.3285,-4.2415,-4.1596,-4.0874,-4.0805,-4.0805,-4.0796,-4.0721,-4.0337,-3.9497,-3.9417,-3.901,-3.8197,-3.7506,-3.7143,-3.7059,-3.6246,-3.5818,-3.5779,-3.5636,-3.5576,-4.0969,-4.1264,-4.1523,-4.0312,-4.1241,-4.2795,-4.4092,-4.5003,-4.56,-4.5813,-4.6816,0.0,0.0,0.0,-4.5475,0.0,0.0,0.0,0.0,0.0,0.0,0.0,0.0,0.0,0.0,0.0,0.0,0.0,0.0,0.0,0.0,0.0,0.0,-4.6361,-4.5865,-4.5461,-4.5149,-4.4672,-4.4909,-4.5957,-4.6674,-4.7376,-4.8125,-4.8432,-4.8586,-4.8625,-4.8933,-4.8894,-4.8586,-4.8586,-4.8086,-4.7317,-4.674,-4.6355,-4.6086,-4.6086,-4.5893,-4.5594,-4.5594,-4.5594,-4.5594,-4.5594,-4.5594,-4.5594,-4.5594,-4.5594,-4.5594,-4.5594,-4.5594,-4.5594,-4.5594,-4.5594,-4.5594,-4.5594,-4.5594,-4.5594,-4.5594,-4.5594,-4.5594,-4.5594,-4.5594,-4.5594,-4.5594,-4.5594,-4.5594,-4.5594,-4.5673,-4.5517,-4.5,-4.4215,-4.3447,-4.2602,-4.1824,-4.1257,-4.0939,-4.1016,-4.1033,-4.1033,-4.085,-4.0597,-4.029,-3.9772,-3.9107,-3.8231,-3.7946,-3.754,-3.7,-3.6689,-3.6494,-3.649,-3.5916,-3.5667,-3.9889,-4.0051,-4.0236,-3.9888,-4.0407,-4.1482,-4.3045,-4.4458,-4.5662,-4.6419,-4.7404,-4.7607,-4.5917,0.0,0.0,0.0,0.0,0.0,0.0,0.0,0.0,0.0,0.0,0.0,0.0,0.0,0.0,0.0,0.0,0.0,0.0,0.0,0.0,0.0,-4.4599,-4.4305,-4.4305,-4.3754,-4.3886,-4.4612,-4.573,-4.6616,-4.7317,-4.7586,-4.774,-4.774,-4.8009,-4.7971,-4.774,-4.774,-4.724,-4.6432,-4.5825,-4.5594,-4.5594,-4.5594,-4.5594,-4.5594,-4.5594,-4.5594,-4.5594,-4.5594,-4.5594,-4.5594,-4.5594,-4.5594,-4.5594,-4.5594,-4.5594,-4.5594,-4.5594,-4.5594,-4.5594,-4.5594,-4.5594,-4.5594,-4.5594,-4.5594,-4.5594,-4.5594,-4.5594,-4.5594,-4.5594,-4.5415,-4.5263,-4.5263,-4.5117,-4.4837,-4.4244,-4.3481,-4.2658,-4.1831,-4.1358,-4.1076,-4.1076,-4.1169,-4.1211,-4.1211,-4.1025,-4.0775,-4.0477,-3.9625,-3.8804,-3.7984,-3.7663,-3.7244,-3.6689,-3.6684,-3.6684,-3.6684,-3.6045,-3.5764,-3.8689,-3.8102,-3.7713,-3.8505,-3.9313,-4.0744,-4.3975,-4.5938,-4.7553,-4.9243,-4.7883,-4.6132,-4.5334,-4.4866,0.0,0.0,0.0,0.0,0.0,0.0,0.0,0.0,0.0,0.0,0.0,0.0,0.0,0.0,0.0,0.0,0.0,0.0,0.0,0.0,-4.3515,-4.3515,-4.3515,-4.3515,-4.3886,-4.4612,-4.4612,-4.4954,-4.5633,-4.6509,-4.6885,-4.6923,-4.774,-4.7625,-4.6885,-4.6885,-4.6394,-4.5594,-4.5594,-4.5594,-4.5594,-4.5594,-4.5594,-4.5594,-4.5594,-4.5594,-4.5594,-4.5594,-4.5594,-4.5594,-4.5594,-4.5594,-4.5594,-4.5594,-4.5594,-4.5594,-4.5594,-4.5594,-4.5594,-4.5594,-4.5594,-4.5594,-4.5594,-4.5594,-4.5594,-4.5594,-4.5594,-4.5594,-4.5594,-4.4986,-4.4486,-4.4486,-4.3873,-4.3411,-4.3376,-4.2641,-4.1827,-4.1087,-4.1126,-4.1211,-4.1211,-4.1172,-4.1172,-4.1211,-4.1172,-4.0739,-3.9735,-3.8811,-3.7981,-3.723,-3.6372,-3.5961,-3.6016,-3.6016,-3.6016,-3.6016,-3.5921,-3.5903,-3.8689,-3.8946,-3.9255,-3.946,-4.0561,-4.2139,0.0,-4.5058,0.0,0.0,-4.7684,-4.597,-4.5731,0.0,0.0,0.0,0.0,0.0,0.0,0.0,0.0,0.0,0.0,0.0,0.0,0.0,0.0,0.0,0.0,0.0,0.0,0.0,0.0,0.0,-4.3515,-4.3515,-4.3515,-4.3515,-4.3886,-4.4612,-4.4612,-4.4954,-4.5594,-4.5864,-4.597,-4.6009,-4.624,-4.6201,-4.597,-4.597,-4.5825,-4.5594,-4.5594,-4.5594,-4.5594,-4.5594,-4.5594,-4.5594,-4.5594,-4.5594,-4.5594,-4.5594,-4.5594,-4.5594,-4.5594,-4.5594,-4.5594,-4.5594,-4.5594,-4.5594,-4.5594,-4.5594,-4.5594,-4.5594,-4.5594,-4.5594,-4.5594,-4.5594,-4.5594,-4.5594,-4.568,-4.574,-4.574,-4.5136,-4.4647,-4.4647,-4.4004,-4.3339,-4.2753,-4.1976,-4.1394,-4.1168,-4.1171,-4.1211,-4.1211,-4.0625,-4.0547,-4.1172,-4.0039,-3.9804,-4.0701,-3.9913,-3.9326,-3.9099,-3.7653,-3.6874,-3.6914,-3.6289,-3.6016,-3.6016,-3.5975,-3.5973,-3.7734,-3.8322,-3.9108,-3.9717,-4.1332,-4.3094,-4.4415,0.0,0.0,0.0,-4.7829,-4.5993,-4.6324,-4.4929,0.0,0.0,0.0,0.0,0.0,0.0,0.0,0.0,0.0,0.0,0.0,0.0,0.0,0.0,0.0,0.0,0.0,0.0,0.0,0.0,-4.3515,-4.3515,-4.3515,-4.3515,-4.3886,-4.4612,-4.4612,-4.4954,-4.5594,-4.5594,-4.5594,-4.5594,-4.5594,-4.5594,-4.5594,-4.5594,-4.5594,-4.5594,-4.5594,-4.5594,-4.5594,-4.5594,-4.5594,-4.5556,-4.521,-4.5325,-4.5556,-4.521,-4.5325,-4.5594,-4.5594,-4.5594,-4.5594,-4.5594,-4.5364,-4.5171,-4.5518,-4.5094,-4.4786,-4.5441,-4.5594,-4.5594,-4.5594,-4.5325,-4.521,-4.5518,-4.514,-4.488,-4.5228,-4.4429,-4.375,-4.375,-4.3114,-4.2451,-4.1992,-4.1484,-4.1211,-4.1211,-4.1211,-4.1211,-4.1211,-4.0703,-4.0508,-4.0664,-3.9687,-3.9609,-4.0625,-3.9844,-3.9375,-3.9375,-3.8008,-3.7305,-3.7305,-3.6445,-3.6016,-3.6016,-3.6016,-3.6016,-3.6486,-3.7052,-3.8006,-3.9622,-4.1882,-4.3901,-4.4635,-4.7168,-4.9537,-5.0105,0.0,-4.6104,-4.6746,0.0,0.0,0.0,0.0,0.0,0.0,0.0,0.0,0.0,0.0,0.0,0.0,0.0,0.0,0.0,0.0,0.0,0.0,0.0,0.0,-4.324,-4.3277,-4.3277,-4.3277,-4.3277,-4.3664,0.0,-4.4385,-4.4764,-4.5479,-4.5556,-4.5594,-4.5594,-4.5594,-4.5594,-4.5594,-4.5594,-4.5594,-4.5594,-4.5594,-4.5556,-4.5479,-4.5556,-4.5518,-4.5287,-4.4547,-4.4816,-4.5325,-4.447,-4.4816,-4.5556,-4.5441,-4.5479,-4.5556,-4.5441,-4.4855,-4.447,-4.521,-4.4239,-4.347,-4.5017,-4.5441,-4.5479,-4.5479,-4.4855,-4.4517,-4.5227,-4.4197,-4.3465,-4.4291,-4.3257,-4.2266,-4.2227,-4.1633,-4.1211,-4.1211,-4.1211,-4.1211,-4.1211,-4.1211,-4.1211,-4.1211,-4.1055,-4.0703,-4.0078,-3.9805,-3.9726,-3.9883,-3.9141,-3.8711,-3.8711,-3.7851,-3.7383,-3.7305,-3.6445,-3.6016,-3.6016,-3.6016,-3.6016,-3.7991,-3.8322,-3.8836,-4.0451,-4.313,-4.5443,-4.559,-4.6691,-4.7333,-4.6232,-4.5957,-4.5773,0.0,0.0,0.0,0.0,0.0,0.0,0.0,0.0,0.0,0.0,0.0,0.0,0.0,0.0,0.0,0.0,0.0,0.0,0.0,0.0,0.0,-4.1625,-4.1625,-4.1625,-4.1625,-4.1625,-4.1979,0.0,-4.2636,-4.3319,-4.4586,-4.5287,-4.5594,-4.5594,-4.5594,-4.5594,-4.5594,-4.5594,-4.5594,-4.5594,-4.5594,-4.5171,-4.4662,-4.5364,-4.4786,-4.3701,-4.4162,-4.4432,-4.4432,-4.3624,-4.4355,-4.5364,-4.4047,-4.4547,-4.5325,-4.4008,-4.397,-4.4201,-4.3739,-4.3355,-4.3201,-4.3547,-4.4124,-4.4586,-4.4586,-4.4432,-4.4174,-4.3779,-4.3524,-4.3454,-4.3725,-4.3021,-4.2146,-4.1521,-4.1289,-4.1211,-4.1211,-4.1211,-4.1211,-4.1211,-4.1211,-4.1211,-4.1211,-3.9961,-3.9648,-4.0859,-3.8984,-3.8476,-3.9844,-3.9726,-3.9609,-3.9609,-3.875,-3.7969,-3.7305,-3.6445,-3.6016,-3.6016,-3.6016,-3.6016,-3.7551,-3.7845,0.0,-4.1075,0.0,-4.5333,-4.5333,-4.5369,-4.5039,-4.3791,-4.4488,0.0,0.0,0.0,0.0,0.0,0.0,0.0,0.0,0.0,0.0,0.0,0.0,0.0,0.0,0.0,0.0,0.0,0.0,0.0,0.0,-4.0583,-4.0788,-4.1323,-4.1172,-4.1095,-4.1095,-4.1095,-4.1445,-4.2108,-4.2108,-4.2661,-4.3778,-4.5017,-4.5594,-4.5594,-4.5594,-4.5364,-4.5017,-4.5441,-4.5133,-4.4432,-4.4825,-4.447,-4.3778,-4.4239,-4.3855,-4.3162,-4.3585,-4.3739,-4.3701,-4.3701,-4.4008,-4.4316,-4.3816,-4.4008,-4.4201,-4.3355,-4.3085,-4.3085,-4.3085,-4.247,-4.2085,-4.2893,-4.3431,-4.3726,-4.3782,-4.342,-4.3135,-4.3274,-4.2679,-4.233,-4.2873,-4.2335,-4.168,-4.125,-4.1211,-4.1055,-4.0625,-4.0937,-4.1055,-4.0625,-4.0586,-4.0586,-4.0586,-3.9726,-3.9414,-3.9922,-3.9062,-3.8945,-3.9844,-3.9883,-3.9687,-3.9297,-3.8437,-3.7969,-3.793,-3.6641,-3.6211,-3.6601,-3.6172,-3.6016,-3.6611,-3.6978,-3.8227,-4.1148,-4.2983,0.0,-4.4067,-4.3681,-4.3057,-4.2249,0.0,0.0,0.0,0.0,0.0,0.0,0.0,0.0,0.0,0.0,0.0,0.0,0.0,0.0,0.0,0.0,0.0,0.0,0.0,0.0,-3.9835,-3.9823,-4.02,-4.1138,-4.084,-4.0691,-4.0691,-4.0735,-4.1074,-4.1655,-4.1914,-4.2339,-4.2931,-4.447,-4.5171,-4.5171,-4.5171,-4.4739,-4.4162,-4.4863,-4.4355,-4.3162,-4.3816,-4.3585,-4.2893,-4.3047,-4.2893,-4.2662,-4.2816,-4.2893,-4.297,-4.347,-4.3393,-4.3162,-4.3547,-4.3393,-4.3047,-4.2739,-4.2239,-4.1923,-4.2508,-4.1593,-4.087,-4.2325,-4.2672,-4.2749,-4.2911,-4.2377,-4.2044,-4.2825,-4.1813,-4.1123,-4.1954,-4.1595,-4.1133,-4.1016,-4.1094,-4.0898,-4.0,-4.0547,-4.0703,-3.9961,-3.9883,-3.9883,-3.9883,-3.9766,-3.9492,-3.9062,-3.9297,-3.9648,-4.0117,-3.9844,-3.9414,-3.8828,-3.8125,-3.7891,-3.8164,-3.6836,-3.6523,-3.707,-3.6328,-3.6016,-3.6978,0.0,-3.7933,0.0,-4.0928,-4.1572,0.0,0.0,-4.2249,0.0,0.0,0.0,0.0,0.0,0.0,0.0,0.0,0.0,0.0,0.0,0.0,0.0,0.0,0.0,0.0,0.0,0.0,0.0,0.0,0.0,-3.8223,-3.8853,-3.93,-3.9415,-3.9158,-3.9019,-3.9019,-3.9252,-3.9548,-3.9969,-4.1218,-4.1903,-4.2,-4.3008,-4.3431,-4.3431,-4.3431,-4.3355,-4.3278,-4.3393,-4.3316,-4.3124,-4.3201,-4.2739,-4.2085,-4.2816,-4.2124,-4.0977,-4.17,-4.1962,-4.1854,-4.1208,-4.197,-4.2854,-4.1439,-4.197,-4.2777,-4.1285,-4.1316,-4.1662,-4.1016,-4.0669,-4.0592,-4.0939,-4.1016,-4.121,-4.1848,-4.1967,-4.18,-4.1259,-4.1166,-4.1208,-4.1327,-4.1289,-4.0937,-4.0195,-4.0703,-4.0898,-4.0,-4.0,-4.0039,-3.9922,-3.9883,-3.9883,-3.9883,-3.9219,-3.9375,-4.0742,-3.8828,-3.8672,-4.0937,-3.957,-3.9062,-3.9726,-3.9609,-3.8476,-3.6367,-3.6875,-3.6797,-3.6172,-3.6055,-3.6016,-3.6046,-3.645,-3.7015,0.0,-3.8836,-3.9738,-3.9738,0.0,-3.9496,0.0,0.0,0.0,0.0,0.0,0.0,0.0,0.0,0.0,0.0,0.0,0.0,0.0,0.0,0.0,0.0,0.0,0.0,0.0,0.0,-3.748,-3.8102,-3.7903,-3.7949,-3.8423,-3.8176,-3.8028,-3.8028,-3.8753,-3.9352,-3.991,-4.0705,-4.1085,-4.1085,-4.147,-4.2162,-4.3085,-4.3085,-4.2816,-4.2431,-4.2893,-4.2508,-4.17,-4.2162,-4.1854,-4.1123,-4.1508,-4.117,-4.0631,-4.1508,-4.147,-4.1162,-4.1739,-4.1816,-4.1585,-4.1316,-4.1431,-4.1477,-4.0708,-4.0785,-4.1001,-4.0679,-4.059,-4.0636,-4.0747,-4.0743,-4.084,-4.1164,-4.128,-4.1241,-4.0958,-4.1076,-4.1211,-4.1211,-4.1211,-4.0898,-4.0039,-4.0234,-3.9961,-3.8633,-3.9297,-3.9726,-3.9219,-3.9609,-3.9687,-3.9219,-3.8828,-3.8711,-3.8984,-3.8398,-3.8555,-3.9687,-3.9023,-3.8555,-3.8437,-3.8437,-3.8125,-3.7461,-3.6875,-3.6641,-3.6719,-3.6211,-3.6016,0.0,0.0,-3.5716,-3.5936,-3.7037,-3.8102,0.0,0.0,0.0,0.0,0.0,0.0,0.0,0.0,0.0,0.0,0.0,0.0,0.0,0.0,0.0,0.0,0.0,0.0,0.0,0.0,0.0,0.0,0.0,-3.6829,-3.766,-3.7115,-3.7032,-3.7565,-3.7326,-3.7243,-3.7292,-3.8449,-3.9313,-3.9908,-4.0321,-4.0516,-4.0516,-4.0516,-4.1208,-4.2431,-4.2431,-4.2085,-4.1508,-4.2162,-4.1662,-4.0554,-4.12,-4.1085,-4.0516,-4.0516,-4.0516,-4.0593,-4.1239,-4.1046,-4.0708,-4.2008,-4.1554,-4.0631,-4.1277,-4.1008,-4.0516,-4.0516,-4.0515,-4.0581,-4.0667,-4.0726,-4.0752,-4.0832,-4.0698,-4.0581,-4.0818,-4.0857,-4.0883,-4.1025,-4.1128,-4.1133,-4.0898,-4.0859,-4.0508,-3.9414,-3.9414,-3.9023,-3.75,-3.8437,-3.8984,-3.8359,-3.8867,-3.8984,-3.832,-3.8281,-3.8086,-3.7656,-3.7812,-3.8125,-3.8594,-3.8398,-3.8086,-3.7656,-3.7422,-3.75,-3.793,-3.6875,-3.6562,-3.6953,-3.6289,-3.6016,0.0,-3.3917,0.0,-3.4894,-3.5738,0.0,0.0,0.0,0.0,0.0,0.0,0.0,0.0,0.0,0.0,0.0,0.0,0.0,0.0,0.0,0.0,0.0,0.0,0.0,0.0,0.0,0.0,0.0,0.0,-3.5969,-3.6017,-3.6713,-3.6983,-3.6758,-3.6514,-3.6473,-3.6744,-3.8121,-3.8982,-3.9339,-4.0123,-4.0516,-4.0516,-4.0516,-4.0554,-4.0631,-4.0631,-4.0593,-4.0554,-4.0631,-4.0593,-4.0516,-4.0554,-4.0554,-4.0516,-4.0516,-4.0516,-4.0516,-4.0554,-4.0554,-4.0516,-4.0593,-4.0554,-4.0516,-4.0554,-4.0554,-4.0516,-4.0516,-4.0602,-4.0686,-4.0697,-4.0762,-4.0836,-4.0957,-4.0346,-3.9995,-4.0814,-4.0972,-4.1026,-4.1171,-4.1211,-4.0937,-4.0117,-3.9961,-3.9375,-3.7695,-3.8125,-3.8359,-3.7422,-3.7383,-3.7422,-3.7383,-3.7422,-3.7422,-3.7383,-3.7383,-3.7695,-3.8476,-3.7031,-3.6875,-3.8516,-3.7812,-3.7734,-3.8516,-3.7734,-3.6914,-3.6133,-3.6875,-3.6836,-3.6055,-3.6016,-3.6016,0.0,0.0,0.0,-3.4174,-3.41,-3.3954,0.0,0.0,0.0,0.0,0.0,0.0,0.0,0.0,0.0,0.0,0.0,0.0,0.0,0.0,0.0,0.0,0.0,0.0,0.0,0.0,0.0,0.0,0.0,0.0,-3.5893,-3.5694,-3.5589,-3.5605,-3.5528,-3.5967,-3.696,-3.7639,-3.8129,-3.8469,-3.9323,-3.9746,-3.9746,-4.0246,-4.0516,-4.0477,-3.9938,-4.0015,-4.0516,-4.0516,-4.0516,-4.0439,-3.9938,-3.9746,-3.9669,-3.9084,-3.8892,-3.8892,-3.8892,-3.8892,-3.8969,-3.9554,-3.9746,-3.9823,-4.0323,-4.0516,-4.0516,-4.0516,-4.0523,-4.059,-4.0713,-4.0395,-4.0075,-4.0258,-4.0463,-4.0737,-4.105,-4.1074,-4.103,-4.1171,-4.1211,-4.0937,-4.0039,-3.9883,-3.9297,-3.7578,-3.7578,-3.7461,-3.6562,-3.6953,-3.7305,-3.7305,-3.7812,-3.7891,-3.7344,-3.7305,-3.7187,-3.6953,-3.6367,-3.6289,-3.6914,-3.6641,-3.6601,-3.6914,-3.6601,-3.6601,-3.6836,-3.6601,-3.6328,-3.6016,-3.6016,-3.6016,-3.3592,0.0,0.0,0.0,0.0,-3.2265,0.0,0.0,0.0,0.0,0.0,0.0,0.0,0.0,0.0,0.0,0.0,0.0,0.0,0.0,0.0,0.0,0.0,0.0,0.0,0.0,0.0,0.0,0.0,0.0,-3.5468,-3.4883,-3.4603,-3.4716,-3.4857,-3.5413,-3.6432,-3.6945,-3.7324,-3.7584,-3.843,-3.8854,-3.8892,-3.9438,-3.9669,-3.9631,-3.9092,-3.9323,-4.0054,-3.9785,-3.9669,-3.9631,-3.9084,-3.8854,-3.8777,-3.82,-3.8007,-3.8046,-3.8315,-3.8243,-3.8162,-3.903,-3.9129,-3.9063,-3.9879,-4.0106,-4.0146,-4.0475,-4.0574,-4.0604,-4.077,-4.0474,-4.0108,-3.9959,-4.0586,-4.1133,-4.082,-4.0933,-4.1083,-4.1172,-4.1211,-4.082,-3.9648,-3.9453,-3.8867,-3.7148,-3.6875,-3.6641,-3.6055,-3.6523,-3.6875,-3.6875,-3.7383,-3.75,-3.6914,-3.6875,-3.6601,-3.6055,-3.6016,-3.6016,-3.6016,-3.6016,-3.6016,-3.6016,-3.6016,-3.6289,-3.6832,-3.6246,-3.5972,-3.5972,-3.5972,-3.5975,0.0,0.0,0.0,0.0,0.0,0.0,0.0,0.0,0.0,0.0,0.0,0.0,0.0,0.0,0.0,0.0,0.0,0.0,0.0,0.0,0.0,0.0,0.0,0.0,0.0,0.0,0.0,0.0,0.0,-3.4675,-3.4665,-3.4323,-3.4151,-3.42,-3.4502,-3.4803,-3.5115,-3.6136,-3.6654,-3.6692,-3.7546,-3.7969,-3.7969,-3.8007,-3.8007,-3.8007,-3.7969,-3.843,-3.9169,-3.8354,-3.8007,-3.8007,-3.7969,-3.7969,-3.7969,-3.793,-3.793,-3.8046,-3.89,-3.8665,-3.8152,-3.8958,-3.8711,-3.8252,-3.9116,-3.9354,-3.9514,-4.0455,-4.0697,-4.0693,-4.0753,-4.0976,-4.0937,-4.0078,-4.0508,-4.0898,-4.0039,-4.0547,-4.1172,-4.1172,-4.1172,-4.0625,-3.8906,-3.8633,-3.8047,-3.6289,-3.6055,-3.6016,-3.6016,-3.6016,-3.6016,-3.6016,-3.6016,-3.6016,-3.6016,-3.6016,-3.6016,-3.6016,-3.6016,-3.6016,-3.6016,-3.6016,-3.6016,-3.6016,-3.6016,-3.5972,-3.59,-3.5901,-3.5901,-3.59,-3.5901,-3.5922,-3.355,0.0,0.0,0.0,0.0,0.0,0.0,0.0,0.0,0.0,0.0,0.0,0.0,0.0,0.0,0.0,0.0,0.0,0.0,0.0,0.0,0.0,0.0,0.0,0.0,0.0,0.0,0.0,-3.3642,-3.3672,-3.3488,-3.2818,-3.2996,-3.4162,-3.4111,-3.4407,-3.5077,-3.5599,-3.5846,-3.5846,-3.6654,-3.7046,-3.7084,-3.77,-3.8007,-3.7969,-3.7315,-3.7199,-3.7469,-3.7853,-3.8007,-3.793,-3.7315,-3.7046,-3.7,-3.6423,-3.6192,-3.6213,-3.6529,-3.6483,-3.6433,-3.7278,-3.7793,-3.8235,-3.909,-3.9714,-4.0215,-4.046,-4.0649,-4.0599,-4.0133,-4.014,-4.0039,-3.918,-3.9141,-3.9258,-3.9023,-3.9648,-4.0273,-4.0273,-4.0273,-3.9922,-3.8789,-3.9101,-3.8945,-3.7187,-3.6953,-3.6719,-3.6094,-3.6016,-3.6016,-3.6016,-3.6016,-3.6016,-3.6016,-3.6016,-3.6016,-3.6016,-3.6016,-3.6016,-3.6016,-3.6016,-3.5975,-3.5919,-3.5918,-3.5861,-3.5758,-3.5845,-3.5845,-3.5761,-3.5845,-3.5908,0.0,0.0,0.0,0.0,0.0,0.0,-3.0723,-3.043,0.0,0.0,0.0,0.0,0.0,0.0,0.0,0.0,0.0,0.0,0.0,0.0,0.0,0.0,0.0,0.0,0.0,0.0,0.0,-3.2933,-3.282,-3.2654,-3.2523,-3.2065,-3.2473,-3.399,-3.3872,-3.4287,-3.5254,-3.5405,-3.55,-3.55,-3.5962,-3.6192,-3.6231,-3.6738,-3.6969,-3.693,-3.6423,-3.6192,-3.6231,-3.6731,-3.6969,-3.693,-3.6385,-3.6192,-3.6168,-3.5701,-3.5534,-3.5584,-3.5985,-3.5969,-3.5838,-3.6629,-3.7012,-3.7389,-3.8569,-3.8966,-3.9268,-4.0394,-4.0777,-4.0665,-3.9901,-3.9794,-3.9687,-3.8828,-3.8594,-3.8594,-3.8594,-3.8711,-3.9023,-3.9766,-4.0195,-4.0156,-3.9297,-3.957,-3.9297,-3.7578,-3.7305,-3.6992,-3.6094,-3.6016,-3.6016,-3.6016,-3.6016,-3.5976,-3.5971,-3.5975,-3.5975,-3.5876,-3.5926,-3.5927,-3.5875,-3.5875,-3.5862,-3.5829,-3.5829,-3.5755,-3.5663,-3.5758,-3.5716,-3.5663,-3.5758,-3.58,0.0,0.0,0.0,0.0,0.0,0.0,-3.1078,-3.0699,-3.0173,0.0,0.0,0.0,0.0,0.0,0.0,0.0,0.0,0.0,0.0,0.0,0.0,0.0,0.0,0.0,0.0,-3.1339,-3.1831,-3.2627,-3.2017,-3.1693,-3.1793,-3.164,-3.221,-3.362,-3.3614,-3.4144,-3.5346,-3.5346,-3.5385,-3.55,-3.55,-3.55,-3.55,-3.55,-3.55,-3.55,-3.55,-3.55,-3.55,-3.55,-3.55,-3.55,-3.552,-3.5489,-3.5509,-3.5582,-3.5591,-3.5707,-3.6498,-3.6363,-3.5994,-3.6587,-3.6459,-3.6292,-3.7771,-3.7726,-3.7637,-4.0023,-4.0701,-4.0547,-3.977,-3.9601,-3.9414,-3.8633,-3.8398,-3.832,-3.832,-3.7773,-3.7773,-3.9297,-4.0234,-4.0508,-3.9726,-3.9687,-3.9219,-3.7539,-3.7305,-3.6992,-3.6094,-3.6016,-3.6016,-3.5976,-3.5976,-3.5971,-3.5898,-3.5926,-3.588,-3.5697,-3.5827,-3.5834,-3.5691,-3.5687,-3.568,-3.5709,-3.5698,-3.5642,-3.5604,-3.5604,-3.5576,-3.5591,-3.5591,-3.5615,0.0,0.0,0.0,0.0,0.0,0.0,-3.0215,-3.0073,-3.0026,0.0,0.0,0.0,0.0,0.0,0.0,0.0,0.0,0.0,0.0,0.0,0.0,0.0,0.0,0.0,0.0,-2.9534,-2.9863,-3.0673,-3.0599,-3.0889,-3.1745,-3.0732,-3.0918,-3.2697,-3.2335,-3.2852,-3.443,-3.443,-3.4814,-3.55,-3.55,-3.55,-3.55,-3.55,-3.55,-3.55,-3.55,-3.55,-3.55,-3.55,-3.55,-3.5514,-3.5575,-3.5588,-3.5588,-3.562,-3.5591,-3.5645,-3.5861,-3.5836,-3.5794,-3.6016,-3.6428,-3.6904,-3.7205,-3.7633,-3.8178,-3.8731,-3.8904,-3.8874,-3.8824,-3.832,-3.7773,-3.7578,-3.7031,-3.6523,-3.6523,-3.6914,-3.7383,-3.7734,-3.793,-3.8008,-3.7851,-3.8398,-3.8516,-3.7461,-3.7305,-3.6992,-3.6094,-3.6016,-3.5975,-3.5917,-3.5914,-3.5859,-3.5755,-3.5764,-3.5722,-3.5687,-3.57,-3.5743,-3.5687,-3.5687,-3.5687,-3.5631,-3.5554,-3.5547,-3.5515,-3.5515,-3.5546,-3.5591,-3.5591,-3.5606,0.0,0.0,0.0,-3.1705,0.0,0.0,0.0,-2.9901,-2.95,0.0,0.0,0.0,0.0,0.0,0.0,0.0,0.0,0.0,0.0,0.0,0.0,0.0,0.0,0.0,0.0,-2.8767,-2.917,-2.9574,-3.0093,-3.0479,-3.075,-3.0174,-3.0555,-3.2046,-3.184,-3.2314,-3.3545,-3.3975,-3.443,-3.4853,-3.5269,-3.55,-3.55,-3.55,-3.55,-3.55,-3.55,-3.55,-3.5507,-3.556,-3.5541,-3.5507,-3.5521,-3.5552,-3.5564,-3.5604,-3.5631,-3.5655,-3.5709,-3.5777,-3.5864,-3.5901,-3.6187,-3.6627,-3.704,-3.7773,-3.8362,-3.7953,-3.8153,-3.843,-3.8046,-3.7617,-3.7187,-3.6758,-3.6328,-3.6016,-3.6016,-3.6328,-3.6641,-3.6641,-3.6641,-3.6914,-3.7812,-3.832,-3.8281,-3.7422,-3.7305,-3.6952,-3.6086,-3.5968,-3.5917,-3.5829,-3.5783,-3.5752,-3.5655,-3.5698,-3.5683,-3.5596,-3.5615,-3.5659,-3.5591,-3.5591,-3.5593,-3.5558,-3.5509,-3.55,-3.55,-3.55,-3.5509,-3.5552,-3.5552,-3.5552,0.0,0.0,0.0,0.0,0.0,-3.106,0.0,0.0,0.0,0.0,0.0,0.0,0.0,0.0,0.0,0.0,0.0,0.0,0.0,0.0,0.0,0.0,0.0,0.0,0.0,-2.8176,-2.862,-2.8767,-2.9598,-2.9914,-2.9489,-2.9825,-3.0442,-3.1423,-3.1468,-3.1852,-3.266,-3.3353,-3.3898,-3.4205,-3.493,-3.5346,-3.55,-3.55,-3.55,-3.55,-3.55,-3.55,-3.5514,-3.5575,-3.5436,-3.5276,-3.5464,-3.5527,-3.554,-3.5586,-3.5667,-3.5749,-3.5749,-3.5857,-3.5974,-3.5922,-3.597,-3.6133,-3.6836,-3.7539,-3.7969,-3.7266,-3.7578,-3.793,-3.7226,-3.7031,-3.6875,-3.6172,-3.6016,-3.6016,-3.6016,-3.6016,-3.6016,-3.6016,-3.6016,-3.6445,-3.7851,-3.8086,-3.7851,-3.7148,-3.7031,-3.6756,-3.5986,-3.5901,-3.5838,-3.5709,-3.5698,-3.5655,-3.5599,-3.5611,-3.5621,-3.552,-3.5558,-3.557,-3.5507,-3.55,-3.55,-3.55,-3.55,-3.55,-3.55,-3.55,-3.55,-3.55,-3.55,-3.5423,0.0,0.0,0.0,0.0,-3.181,0.0,0.0,0.0,-3.0723,-2.928,0.0,0.0,0.0,0.0,0.0,0.0,0.0,0.0,0.0,0.0,0.0,0.0,0.0,0.0,0.0,0.0,-2.7163,-2.786,-2.8211,-2.8446,-2.8617,-2.949,-3.0168,-3.0533,-3.0538,-3.0962,-3.1814,-3.1929,-3.2737,-3.4205,-3.4321,-3.4737,-3.55,-3.55,-3.55,-3.55,-3.55,-3.55,-3.55,-3.552,-3.5059,-3.4424,-3.5344,-3.569,-3.5694,-3.5705,-3.5761,-3.5894,-3.5894,-3.5901,-3.5914,-3.5974,-3.5976,-3.6016,-3.6133,-3.6211,-3.6289,-3.6172,-3.6211,-3.6289,-3.6172,-3.6133,-3.6133,-3.6016,-3.6016,-3.6016,-3.6016,-3.6016,-3.6016,-3.6016,-3.6016,-3.6055,-3.625,-3.6289,-3.625,-3.6172,-3.6133,-3.6092,-3.5908,-3.5901,-3.5821,-3.564,-3.5611,-3.5593,-3.5509,-3.5509,-3.5509,-3.55,-3.552,-3.552,-3.55,-3.55,-3.55,-3.55,-3.55,-3.55,-3.55,-3.55,-3.55,-3.55,-3.55,-3.5084,0.0,0.0,0.0,0.0,0.0,0.0,-3.0353,0.0,-3.0393,0.0,0.0,0.0,0.0,0.0,0.0,0.0,0.0,0.0,0.0,0.0,0.0,0.0,0.0,0.0,0.0,0.0,0.0,0.0,-2.7914,-2.8433,-2.867,-2.9657,-3.0273,-3.0379,-3.0385,-3.0577,-3.0923,-3.1468,-3.2275,-3.343,-3.3975,-3.4661,-3.5462,-3.4968,-3.5007,-3.5462,-3.4968,-3.5045,-3.5468,-3.4993,-3.4557,-3.4238,-3.4796,-3.4955,-3.49,-3.49,-3.5308,-3.5901,-3.5901,-3.5918,-3.5972,-3.5976,-3.6016,-3.6016,-3.6016,-3.6016,-3.6016,-3.6016,-3.6016,-3.6016,-3.6016,-3.6016,-3.6016,-3.6016,-3.6016,-3.6016,-3.6016,-3.6016,-3.6016,-3.6016,-3.6016,-3.5976,-3.5967,-3.5974,-3.5976,-3.5967,-3.5925,-3.5905,-3.5755,-3.5737,-3.5676,-3.5558,-3.5534,-3.5541,-3.5507,-3.55,-3.55,-3.55,-3.55,-3.55,-3.55,-3.55,-3.55,-3.55,-3.55,-3.55,-3.55,-3.55,-3.55,-3.55,-3.4968,-3.4814,-3.119,0.0,0.0,0.0,0.0,0.0,0.0,0.0,0.0,0.0,0.0,0.0,0.0,0.0,0.0,0.0,0.0,0.0,0.0,0.0,0.0,0.0,0.0,0.0,0.0,0.0,0.0,-2.6554,-2.7403,-2.8055,-2.845,-2.9461,-3.0154,-3.0385,-3.0385,-3.0385,-3.0385,-3.1038,-3.1775,-3.2583,-3.3199,-3.3968,-3.4769,-3.4391,-3.4545,-3.5115,-3.4737,-3.4776,-3.509,-3.4521,-3.3986,-3.356,-3.3688,-3.3736,-3.3713,-3.4218,-3.4901,-3.5567,-3.5567,-3.5775,-3.6016,-3.6016,-3.6016,-3.6016,-3.6016,-3.6016,-3.6016,-3.6016,-3.6016,-3.6016,-3.6016,-3.6016,-3.6016,-3.6016,-3.6016,-3.6016,-3.6016,-3.6016,-3.6016,-3.6016,-3.5976,-3.597,-3.5908,-3.5925,-3.5929,-3.5851,-3.5843,-3.58,-3.5621,-3.5591,-3.5571,-3.552,-3.55,-3.55,-3.55,-3.55,-3.55,-3.55,-3.55,-3.55,-3.55,-3.55,-3.55,-3.55,-3.55,-3.55,-3.55,-3.55,-3.5385,-3.5122,-3.4507,-3.4391,0.0,0.0,0.0,-3.0711,0.0,0.0,0.0,0.0,-2.9989,0.0,0.0,0.0,0.0,0.0,0.0,0.0,0.0,0.0,0.0,0.0,0.0,0.0,0.0,0.0,0.0,0.0,0.0,-2.5679,-2.6132,-2.674,-2.7593,-2.8591,-2.9544,-3.0385,-3.0385,-3.0385,-3.0385,-3.0423,-3.0885,-3.1737,-3.1775,-3.2199,-3.3006,-3.3821,-3.4205,-3.4282,-3.5115,-3.5007,-3.4244,-3.4212,-3.3296,-3.1864,-3.1873,-3.1965,-3.2274,-3.3984,-3.4634,-3.4726,-3.4726,-3.5273,-3.6016,-3.6016,-3.6016,-3.6016,-3.6016,-3.6016,-3.6016,-3.6016,-3.6016,-3.6016,-3.6016,-3.6016,-3.6016,-3.6016,-3.6016,-3.6016,-3.6016,-3.6016,-3.6016,-3.6016,-3.5967,-3.5903,-3.5901,-3.5903,-3.5849,-3.5743,-3.573,-3.5694,-3.5606,-3.5591,-3.5571,-3.552,-3.55,-3.55,-3.55,-3.55,-3.55,-3.55,-3.55,-3.55,-3.55,-3.55,-3.55,-3.55,-3.55,-3.55,-3.55,-3.55,-3.5084,-3.4244,-3.4205,-3.3776,0.0,0.0,-3.0795,-3.0628,0.0,0.0,0.0,0.0,0.0,0.0,0.0,0.0,0.0,0.0,0.0,0.0,0.0,0.0,0.0,0.0,0.0,0.0,0.0,0.0,0.0,0.0,0.0,-2.5194,-2.5907,-2.6485,-2.6929,-2.8291,-2.9242,-2.9544,-3.0115,-3.0385,-3.0385,-3.0385,-3.0846,-3.1698,-3.1698,-3.2429,-3.3744,-3.3468,-3.366,-3.4167,-3.3891,-3.3622,-3.3365,-3.344,-3.3161,-3.2675,-3.2772,-3.3189,-3.3724,-3.3722,-3.4131,-3.4766,-3.5351,-3.5742,-3.6016,-3.6016,-3.6016,-3.6016,-3.6016,-3.6016,-3.6016,-3.6016,-3.6016,-3.6016,-3.6016,-3.6016,-3.6016,-3.6016,-3.6016,-3.6016,-3.6016,-3.6016,-3.5976,-3.5926,-3.5913,-3.5841,-3.5737,-3.5714,-3.5702,-3.5624,-3.5615,-3.5611,-3.5534,-3.5515,-3.5528,-3.5507,-3.55,-3.55,-3.55,-3.55,-3.55,-3.55,-3.55,-3.55,-3.55,-3.55,-3.55,-3.55,-3.55,-3.55,-3.55,-3.493,-3.4414,-3.3922,-3.3325,-3.3241,-3.0886,-3.0698,0.0,-3.0141,-3.0209,0.0,-2.9531,0.0,0.0,0.0,0.0,0.0,0.0,0.0,0.0,0.0,0.0,0.0,0.0,-2.4862,0.0,0.0,0.0,0.0,0.0,0.0,-2.4708,-2.4967,-2.5606,-2.614,0.0,0.0,-2.8819,-2.9088,-2.9967,-3.0385,-3.0385,-3.0385,-3.0846,-3.1698,-3.1698,-3.2275,-3.3314,-3.3045,-3.3045,-3.3314,-3.3006,-3.2928,-3.2993,-3.3055,-3.3141,-3.318,-3.3273,-3.3654,-3.4091,-3.3544,-3.3903,-3.4766,-3.5351,-3.5742,-3.6016,-3.6016,-3.6016,-3.6016,-3.6016,-3.5781,-3.5586,-3.5898,-3.5547,-3.5234,-3.5859,-3.5781,-3.5625,-3.5937,-3.6016,-3.5976,-3.5973,-3.5972,-3.5927,-3.5847,-3.5816,-3.5762,-3.5621,-3.5588,-3.5548,-3.5548,-3.5548,-3.5552,-3.5514,-3.55,-3.55,-3.55,-3.55,-3.55,-3.55,-3.55,-3.55,-3.55,-3.55,-3.55,-3.55,-3.55,-3.55,-3.55,-3.5192,-3.5192,-3.55,-3.426,-3.3669,-3.3775,-3.2716,-3.2551]},{"header":{"parameterUnit":"m.s-1","parameterCategory":1,"la1":30.6,"la2":29.2853,"lo1":-89.7004,"lo2":-87.6739,"dy":0.0162,"dx":0.0183,"nx":112,"ny":82,"refTime":"2023-08-18T12:00:00:Z","depth":0,"parameterNumber":3,"parameterNumberName":"V-component_of_WINDS"},"data":[0.0,0.0,0.0,0.0,0.0,0.0,0.0,0.0,0.0,0.0,0.0,0.0,0.0,0.0,0.0,0.0,0.0,0.0,0.0,0.0,0.0,0.0,0.0,0.0,0.0,0.0,0.0,0.0,0.0,0.0,0.0,0.0,0.0,0.0,0.0,0.0,0.0,0.0,0.0,0.0,0.0,0.0,0.0,0.0,0.0,0.0,0.0,0.0,0.0,0.0,0.0,0.0,0.0,0.0,0.0,0.0,0.0,0.0,0.0,0.0,0.0,0.0,0.0,0.0,0.0,0.0,0.0,0.0,0.0,0.0,0.0,0.0,0.0,0.0,0.0,0.0,0.0,0.0,0.0,0.0,0.0,0.0,0.0,0.0,0.0,0.0,0.0,0.0,0.0,0.0,-0.5706,-0.6429,-0.7776,-0.8524,-0.832,-0.8238,-0.7719,-0.6763,0.0,0.0,0.0,0.0,0.0,0.0,0.0,0.0,0.0,0.0,0.0,0.0,0.0,0.0,0.0,0.0,0.0,0.0,0.0,0.0,0.0,0.0,0.0,0.0,0.0,0.0,0.0,0.0,0.0,0.0,0.0,0.0,0.0,0.0,0.0,0.0,0.0,0.0,0.0,0.0,0.0,0.0,0.0,0.0,0.0,0.0,0.0,0.0,0.0,0.0,0.0,0.0,0.0,0.0,0.0,0.0,0.0,0.0,0.0,0.0,0.0,0.0,0.0,0.0,0.0,0.0,0.0,0.0,0.0,0.0,0.0,0.0,0.0,0.0,0.0,0.0,0.0,0.0,0.0,0.0,0.0,0.0,0.0,0.0,0.0,0.0,0.0,0.0,0.0,0.0,0.0,0.0,0.0,0.0,0.0,0.0,0.0,0.0,0.0,0.0,0.0,0.0,0.0,0.0,-0.603,-0.7265,-0.8927,-0.947,-0.8371,-0.7849,-0.7278,-0.6736,0.0,0.0,0.0,0.0,0.0,0.0,0.0,0.0,0.0,0.0,0.0,0.0,0.0,0.0,0.0,0.0,0.0,0.0,0.0,0.0,0.0,0.0,0.0,0.0,0.0,0.0,0.0,0.0,0.0,0.0,0.0,0.0,0.0,0.0,0.0,0.0,0.0,0.0,0.0,0.0,0.0,0.0,0.0,0.0,0.0,0.0,0.0,0.0,0.0,0.0,0.0,0.0,0.0,0.0,0.0,0.0,0.0,0.0,0.0,0.0,0.0,0.0,0.0,0.0,0.0,0.0,0.0,0.0,0.0,0.0,0.0,0.0,0.0,0.0,0.0,0.0,0.0,0.0,0.0,0.0,0.0,0.0,0.0,0.0,0.0,0.0,0.0,0.0,0.0,0.0,0.0,0.0,0.0,0.0,0.0,0.0,0.0,0.0,0.0,0.0,0.0,0.0,0.0,-0.5752,-0.6464,-0.7489,-0.8454,-0.8786,-0.8197,-0.7672,-0.7177,-0.6729,-0.6193,0.0,0.0,0.0,0.0,0.0,0.0,0.0,0.0,0.0,0.0,0.0,0.0,0.0,0.0,0.0,0.0,0.0,0.0,0.0,0.0,0.0,0.0,0.0,0.0,0.0,0.0,0.0,0.0,0.0,0.0,0.0,0.0,0.0,0.0,0.0,0.0,0.0,0.0,0.0,0.0,0.0,0.0,0.0,0.0,0.0,0.0,0.0,0.0,0.0,0.0,0.0,0.0,0.0,0.0,0.0,0.0,0.0,0.0,0.0,0.0,0.0,0.0,0.0,0.0,0.0,0.0,0.0,0.0,0.0,0.0,0.0,0.0,0.0,0.0,0.0,0.0,0.0,0.0,0.0,0.0,0.0,0.0,0.0,0.0,0.0,0.0,0.0,0.0,0.0,0.0,0.0,0.0,0.0,0.0,0.0,0.0,0.0,0.0,0.0,0.0,0.0,0.0,-0.6628,-0.7157,-0.783,-0.8158,-0.8238,-0.7984,-0.7475,-0.7057,-0.6668,-0.5881,0.0,0.0,0.0,0.0,0.0,0.0,0.0,0.0,0.0,0.0,0.0,0.0,0.0,0.0,0.0,0.0,0.0,0.0,0.0,0.0,0.0,0.0,0.0,0.0,0.0,0.0,0.0,0.0,0.0,0.0,0.0,0.0,0.0,0.0,0.0,0.0,0.0,0.0,0.0,0.0,0.0,0.0,0.0,0.0,0.0,0.0,0.0,0.0,0.0,0.0,0.0,0.0,0.0,0.0,0.0,0.0,0.0,0.0,0.0,0.0,0.0,0.0,0.0,0.0,0.0,0.0,0.0,0.0,0.0,0.0,0.0,0.0,0.0,0.0,0.0,0.0,0.0,0.0,0.0,0.0,0.0,0.0,0.0,0.0,0.0,0.0,0.0,0.0,0.0,0.0,0.0,0.0,0.0,0.0,0.0,0.0,0.0,0.0,0.0,0.0,0.0,0.0,-0.7632,-0.8262,-0.8775,-0.9167,-0.8981,-0.7911,-0.7034,-0.6559,-0.6532,-0.5528,0.0,0.0,0.0,0.0,0.0,0.0,0.0,0.0,0.0,0.0,0.0,0.0,0.0,0.0,0.0,0.0,0.0,0.0,0.0,0.0,0.0,0.0,0.0,0.0,0.0,0.0,0.0,0.0,0.0,0.0,0.0,0.0,0.0,0.0,0.0,0.0,0.0,0.0,0.0,0.0,0.0,0.0,0.0,0.0,0.0,0.0,0.0,0.0,0.0,0.0,0.0,0.0,0.0,0.0,0.0,0.0,0.0,0.0,0.0,0.0,0.0,0.0,0.0,0.0,0.0,0.0,0.0,0.0,0.0,0.0,0.0,0.0,0.0,0.0,0.0,0.0,0.0,0.0,0.0,0.0,0.0,0.0,0.0,0.0,0.0,0.0,0.0,0.0,0.0,0.0,0.0,0.0,0.0,0.0,0.0,0.0,0.0,0.0,0.0,0.0,0.0,0.0,-0.8446,-0.8748,0.0,-0.9121,-0.8909,-0.7767,-0.6939,-0.6477,-0.6381,0.0,0.0,0.0,0.0,0.0,0.0,0.0,0.0,0.0,0.0,0.0,0.0,0.0,0.0,0.0,0.0,0.0,0.0,0.0,0.0,0.0,0.0,0.0,0.0,0.0,0.0,0.0,0.0,0.0,0.0,0.0,0.0,0.0,0.0,0.0,0.0,0.0,0.0,0.0,0.0,0.0,0.0,0.0,0.0,0.0,0.0,0.0,0.0,0.0,0.0,0.0,0.0,0.0,0.0,0.0,0.0,0.0,0.0,0.0,0.0,0.0,0.0,0.0,0.0,0.0,0.0,0.0,0.0,0.0,0.0,0.0,0.0,0.0,0.0,0.0,0.0,0.0,0.0,0.0,0.0,0.0,0.0,0.0,0.0,0.0,0.0,0.0,0.0,0.0,0.0,0.0,0.0,0.0,0.0,0.0,0.0,0.0,0.0,0.0,0.0,0.0,0.0,-0.8367,-0.8931,-0.9291,0.0,-0.9588,-0.9153,-0.8092,-0.7211,-0.6547,-0.6156,0.0,0.0,0.0,0.0,0.0,0.0,0.0,0.0,0.0,0.0,0.0,0.0,0.0,0.0,0.0,0.0,0.0,0.0,0.0,0.0,0.0,0.0,0.0,0.0,0.0,0.0,0.0,0.0,0.0,0.0,0.0,0.0,0.0,0.0,0.0,0.0,0.0,0.0,0.0,0.0,0.0,0.0,0.0,0.0,0.0,0.0,0.0,0.0,0.0,0.0,0.0,0.0,0.0,0.0,0.0,0.0,0.0,0.0,0.0,0.0,0.0,0.0,0.0,0.0,0.0,0.0,0.0,0.0,0.0,0.0,0.0,0.0,0.0,0.0,0.0,0.0,0.0,0.0,0.0,0.0,0.0,0.0,0.0,0.0,0.0,0.0,0.0,0.0,0.0,0.0,0.0,0.0,0.0,0.0,0.0,0.0,0.0,0.0,0.0,0.0,0.0,0.0,-0.8451,-0.9021,-0.9932,-1.1535,-1.0825,-0.9865,-0.8956,-0.7807,-0.6714,0.0,0.0,0.0,0.0,0.0,0.0,0.0,0.0,0.0,0.0,0.0,0.0,0.0,0.0,0.0,0.0,0.0,0.0,0.0,0.0,0.0,0.0,0.0,0.0,0.0,0.0,0.0,0.0,0.0,0.0,0.0,0.0,0.0,0.0,0.0,0.0,0.0,0.0,0.0,0.0,0.0,0.0,0.0,0.0,0.0,0.0,0.0,0.0,0.0,0.0,0.0,0.0,0.0,0.0,0.0,0.0,0.0,0.0,0.0,0.0,0.0,0.0,0.0,0.0,0.0,0.0,0.0,0.0,0.0,0.0,0.0,0.0,0.0,0.0,0.0,0.0,0.0,0.0,0.0,0.0,0.0,0.0,0.0,0.0,0.0,0.0,0.0,0.0,0.0,0.0,0.0,0.0,0.0,0.0,0.0,0.0,0.0,0.0,0.0,0.0,0.0,0.0,0.0,-1.035,-1.0719,-1.0985,-1.1502,-1.1271,-1.047,-0.8888,-0.773,-0.67,-0.572,0.0,0.0,0.0,0.0,0.0,0.0,0.0,0.0,0.0,0.0,0.0,0.0,0.0,0.0,0.0,0.0,0.0,0.0,0.0,0.0,0.0,0.0,0.0,0.0,0.0,0.0,0.0,0.0,0.0,0.0,0.0,0.0,0.0,0.0,0.0,0.0,0.0,0.0,0.0,0.0,0.0,0.0,0.0,0.0,0.0,0.0,0.0,0.0,0.0,0.0,0.0,0.0,0.0,0.0,0.0,0.0,0.0,0.0,0.0,0.0,0.0,0.0,0.0,0.0,0.0,0.0,0.0,0.0,0.0,0.0,0.0,0.0,0.0,0.0,0.0,0.0,0.0,0.0,0.0,0.0,0.0,0.0,0.0,0.0,0.0,0.0,0.0,0.0,0.0,0.0,0.0,0.0,0.0,0.0,0.0,0.0,0.0,0.0,0.0,0.0,0.0,0.0,-1.07,-1.1183,-1.154,-1.1987,-1.1654,-1.0755,-0.9152,-0.7789,-0.6571,-0.548,0.0,0.0,0.0,0.0,0.0,0.0,0.0,0.0,0.0,0.0,0.0,0.0,0.0,0.0,0.0,0.0,0.0,0.0,0.0,0.0,0.0,0.0,0.0,0.0,0.0,0.0,0.0,0.0,0.0,0.0,0.0,0.0,0.0,0.0,0.0,0.0,0.0,0.0,0.0,0.0,0.0,0.0,0.0,0.0,0.0,0.0,0.0,0.0,0.0,0.0,0.0,0.0,0.0,0.0,0.0,0.0,0.0,0.0,0.0,0.0,0.0,0.0,0.0,0.0,0.0,0.0,0.0,0.0,0.0,0.0,0.0,0.0,0.0,0.0,0.0,0.0,0.0,0.0,0.0,0.0,0.0,0.0,0.0,0.0,0.0,0.0,0.0,0.0,0.0,0.0,0.0,0.0,0.0,0.0,0.0,0.0,0.0,0.0,0.0,0.0,0.0,0.0,-1.0109,-1.0826,-1.1629,-1.2565,-1.1684,-1.0577,-0.9476,-0.7878,-0.64,-0.5194,0.0,0.0,0.0,0.0,0.0,0.0,0.0,0.0,0.0,0.0,0.0,0.0,0.0,0.0,0.0,0.0,0.0,0.0,0.0,0.0,0.0,0.0,0.0,0.0,0.0,0.0,0.0,0.0,0.0,0.0,0.0,0.0,0.0,0.0,0.0,0.0,0.0,0.0,0.0,0.0,0.0,0.0,0.0,0.0,0.0,0.0,0.0,0.0,0.0,0.0,0.0,0.0,0.0,0.0,0.0,0.0,0.0,0.0,0.0,0.0,-0.3661,0.0,0.0,0.0,0.0,0.0,0.0,0.0,0.0,0.0,0.0,0.0,0.0,0.0,0.0,0.0,0.0,0.0,0.0,0.0,0.0,0.0,0.0,0.0,0.0,0.0,0.0,0.0,0.0,0.0,0.0,0.0,0.0,0.0,0.0,0.0,0.0,0.0,0.0,0.0,0.0,0.0,-1.1023,-1.0585,-1.0611,-1.1657,-1.0545,-0.9406,-0.8698,-0.7575,-0.6457,-0.541,-0.4805,0.0,0.0,0.0,0.0,0.0,0.0,0.0,0.0,0.0,0.0,0.0,0.0,0.0,0.0,0.0,0.0,0.0,0.0,0.0,0.0,0.0,0.0,0.0,0.0,0.0,0.0,0.0,0.0,0.0,0.0,0.0,0.0,0.0,0.0,0.0,0.0,0.0,0.0,0.0,0.0,0.0,0.0,0.0,0.0,0.0,0.0,0.0,0.0,0.0,0.0,0.0,0.0,0.0,0.0,0.0,0.0,0.0,0.0,0.0,0.0,-0.3961,0.0,0.0,0.0,0.0,0.0,0.0,0.0,0.0,0.0,0.0,0.0,0.0,0.0,0.0,0.0,0.0,0.0,0.0,0.0,0.0,0.0,0.0,0.0,0.0,0.0,0.0,0.0,0.0,0.0,0.0,0.0,0.0,0.0,0.0,0.0,0.0,0.0,0.0,0.0,0.0,-1.0635,-1.0158,-0.9967,-1.0418,-0.9369,-0.8487,-0.8,-0.6916,-0.5966,-0.5289,-0.4853,0.0,0.0,0.0,0.0,0.0,0.0,0.0,0.0,0.0,0.0,0.0,0.0,0.0,0.0,0.0,0.0,0.0,0.0,0.0,0.0,0.0,0.0,0.0,0.0,0.0,0.0,0.0,0.0,0.0,0.0,0.0,0.0,0.0,0.0,0.0,0.0,0.0,0.0,0.0,0.0,0.0,0.0,0.0,0.0,0.0,0.0,0.0,0.0,0.0,0.0,0.0,0.0,0.0,-0.0854,-0.1951,-0.477,-0.4771,-0.6465,-0.9269,-0.6564,-0.5641,-0.5882,0.0,0.0,0.0,0.0,0.0,0.0,0.0,0.0,0.0,0.0,0.0,0.0,0.0,0.0,0.0,0.0,0.0,0.0,0.0,0.0,0.0,0.0,0.0,0.0,0.0,-0.6776,-0.6661,0.0,0.0,0.0,0.0,0.0,0.0,0.0,0.0,0.0,0.0,0.0,0.0,-0.9926,-0.9671,-0.9432,-0.9112,-0.8242,-0.7616,-0.7355,-0.6279,-0.5467,-0.5157,-0.487,-0.4648,0.0,0.0,0.0,0.0,0.0,0.0,0.0,0.0,0.0,0.0,0.0,0.0,0.0,0.0,0.0,0.0,0.0,0.0,0.0,0.0,0.0,0.0,0.0,0.0,0.0,0.0,0.0,0.0,0.0,0.0,0.0,0.0,0.1547,0.0146,0.0,0.0,0.0,0.0,0.0,0.0,0.0,0.0,0.0,0.0,0.0,0.0,0.0,-0.1672,-0.0304,-0.1647,-0.1662,-0.025,-0.1648,-0.3303,-0.5013,-0.4896,-0.6792,-1.0114,-0.9418,0.0,-0.6536,-0.6189,0.0,0.0,0.0,0.0,0.0,0.0,0.0,0.0,0.0,0.0,0.0,0.0,0.0,0.0,0.0,0.0,0.0,0.0,0.0,0.0,0.0,0.0,-0.7011,-0.7031,-0.7038,-0.695,0.0,-0.6543,-0.6356,-0.6042,-0.6666,0.0,0.0,0.0,0.0,0.0,0.0,0.0,-0.9973,-0.9321,-0.8736,-0.8238,-0.7203,-0.6556,-0.6641,-0.6018,-0.5515,-0.5378,-0.4962,-0.4648,-0.4498,-0.4491,0.0,0.0,0.0,0.0,0.0,0.0,0.0,0.0,0.0,0.0,0.0,0.0,0.0,0.0,0.0,0.0,0.0,0.0,0.0,0.0,0.0,0.0,0.0,0.0,0.0,0.0,0.0,0.0,0.0,0.211,0.133,0.0146,0.0,0.0,0.0,0.0,0.0,0.0,0.0,0.0,0.0,0.0,0.0,-0.4629,-0.4677,-0.3739,-0.1768,-0.2506,-0.1925,0.0,-0.0773,-0.266,-0.5383,-0.5315,-0.7224,-1.0649,-1.0449,-0.9745,-0.871,-0.8146,-0.7352,-0.6412,0.0,0.0,0.0,0.0,-0.4285,-0.4871,-0.5127,-0.5541,0.0,-0.6643,0.0,0.0,0.0,0.0,0.0,0.0,0.0,0.0,0.0,0.0,0.0,-0.74,-0.7461,-0.7461,-0.7251,-0.6905,-0.6525,0.0,-0.6737,-0.7094,-0.6427,0.0,0.0,0.0,0.0,-0.9378,-0.9289,-0.8594,-0.7862,-0.711,-0.6606,-0.6286,-0.6227,-0.5833,-0.5488,-0.525,-0.4972,-0.4714,-0.4498,-0.4491,-0.4622,0.0,0.0,0.0,0.0,0.0,0.0,0.0,0.0,0.0,0.0,0.0,0.0,0.0,0.0,0.0,0.0,0.0,0.0,0.0,0.0,0.0,0.0,0.0,0.0,0.0,0.0,0.0,0.0,0.1341,0.1018,0.0098,0.0,0.0,0.0,0.0,0.0,0.0,0.0,0.0,-0.6832,-0.7108,-0.7079,-0.6889,-0.7016,-0.5764,-0.309,-0.3083,-0.2035,0.0,0.0,-0.1962,-0.5652,-0.5631,-0.7589,-1.1002,-1.0894,-1.0717,-1.0276,-0.9564,-0.9043,-0.848,-0.737,-0.6822,-0.657,-0.5513,-0.5698,-0.6477,-0.6719,-0.7223,-0.7821,-0.7902,0.0,-0.7407,-0.7,0.0,0.0,0.0,0.0,-0.7075,-0.7173,-0.7455,-0.7665,-0.7706,-0.7794,-0.7821,-0.7638,-0.7305,-0.6912,0.0,-0.6885,-0.6996,-0.6132,0.0,0.0,0.0,0.0,-0.8479,-0.8752,-0.814,-0.7264,-0.6322,-0.6238,-0.6139,-0.5946,-0.5739,-0.546,-0.5117,-0.4968,-0.4782,-0.4505,-0.4491,-0.4574,-0.4759,0.0,0.0,0.0,0.0,0.0,0.0,0.0,0.0,0.0,0.0,0.0,0.0,0.0,0.0,0.0,0.0,0.0,0.0,0.0,0.0,0.0,0.0,0.0,0.0,0.0,0.0,0.0,0.0,0.0,0.0,0.0,0.0,0.0,0.0,0.0,-0.471,-0.5022,-0.6638,-1.0234,-1.0731,-1.0177,-0.8642,-0.8867,-0.712,-0.3158,-0.3086,-0.2025,0.0,0.0,-0.2063,-0.5801,-0.5658,-0.7626,-1.1145,-1.1009,-1.0772,-1.0432,-0.9836,-0.9483,-0.9279,-0.879,-0.8562,-0.8541,-0.8335,-0.8247,-0.8184,-0.8204,-0.8015,-0.7862,-0.8153,-0.8038,-0.7733,-0.7428,-0.7378,0.0,0.0,-0.7231,-0.7387,-0.7536,-0.7685,-0.7834,-0.7934,-0.7975,-0.7901,-0.7658,-0.7468,-0.7217,0.0,-0.6491,-0.629,-0.6057,0.0,-0.7616,-0.8478,-0.8678,-0.8772,-0.8792,-0.8215,-0.7339,-0.6132,-0.6006,-0.5939,-0.5827,-0.5677,-0.546,-0.5117,-0.4968,-0.4782,-0.4505,-0.4491,-0.4787,-0.5429,-0.4814,0.0,0.0,0.0,0.0,0.0,0.0,0.0,0.0,0.0,0.0,0.0,0.0,0.0,0.0,0.0,0.0,0.0,0.0,0.0,0.0,0.0,0.0,0.0,0.0,0.0,0.0,0.0,0.0,0.0,0.0,0.0,0.0,-0.0805,-0.2465,-0.5349,-0.6428,-0.8376,-1.1549,-1.1918,-1.1815,-1.132,-1.142,-1.0103,-0.7176,-0.5791,-0.4085,-0.1998,-0.0606,-0.2023,-0.5796,-0.5752,-0.7761,-1.1227,-1.1111,-1.0914,-1.0609,-1.0209,-0.989,-0.9618,-0.9171,-0.8994,-0.8967,-0.8716,-0.8601,-0.8554,-0.8554,-0.8357,-0.8092,-0.8004,-0.7773,-0.7509,-0.7446,-0.7419,-0.7426,-0.7421,-0.7543,-0.7692,-0.7841,-0.7874,-0.7921,-0.7975,-0.7988,-0.7961,-0.7853,-0.7692,-0.7468,-0.7312,-0.6878,-0.6525,-0.6471,-0.6652,-0.7095,-0.8067,-0.7635,-0.7412,-0.8092,-0.7401,-0.6614,-0.6044,-0.5905,-0.5827,-0.5677,-0.5562,-0.5318,-0.4982,-0.4914,-0.4782,-0.4505,-0.4491,-0.4601,-0.4842,-0.4622,-0.4622,0.0,0.0,0.0,0.0,0.0,0.0,0.0,0.0,0.0,0.0,0.0,0.0,0.0,0.0,0.0,0.0,0.0,0.0,0.0,0.0,0.0,0.0,0.0,0.0,0.0,0.0,0.0,0.0,0.0,0.0,0.0,-0.081,-0.2624,-0.5827,-0.6917,-0.8981,-1.2326,-1.2651,-1.2732,-1.2732,-1.2732,-1.1601,-0.9315,-0.789,-0.5781,-0.2997,-0.2271,-0.3287,-0.5763,-0.6395,-0.8313,-1.109,-1.109,-1.0948,-1.0704,-1.0453,-1.0202,-0.9937,-0.9537,-0.9381,-0.9347,-0.9103,-0.8981,-0.8906,-0.8703,-0.8506,-0.8289,-0.7991,-0.7753,-0.7597,-0.7597,-0.7597,-0.7617,-0.7719,-0.7814,-0.7909,-0.7961,-0.7988,-0.7988,-0.7988,-0.7988,-0.7975,-0.7921,-0.7807,-0.7645,-0.7543,-0.7156,-0.6837,-0.6783,-0.6654,-0.6888,-0.7859,-0.7047,-0.6679,-0.7672,-0.6911,-0.6218,-0.5976,-0.5861,-0.5725,-0.5562,-0.5453,-0.5269,-0.4908,-0.4887,-0.4782,-0.4505,-0.4539,-0.4566,-0.4566,-0.4818,-0.4901,-0.4842,0.0,0.0,0.0,0.0,0.0,0.0,0.0,0.0,0.0,0.0,0.0,0.0,0.0,0.0,0.0,0.0,0.0,0.0,0.0,0.0,0.0,0.0,0.0,0.0,0.0,0.0,0.0,0.0,0.0,0.0,-0.0074,-0.1907,-0.6152,-0.6537,-0.8466,-1.2795,-1.3105,-1.3044,-1.2745,-1.2739,-1.1641,-0.9284,-0.9026,-0.697,-0.3115,-0.4889,-0.57,-0.5774,-0.761,-0.9324,-1.0887,-1.088,-1.0793,-1.0704,-1.0548,-1.0399,-1.0243,-0.9944,-0.9822,-0.9802,-0.9659,-0.9503,-0.9279,-0.8696,-0.8486,-0.8431,-0.8089,-0.7995,-0.7988,-0.7988,-0.7988,-0.7988,-0.7988,-0.7988,-0.7988,-0.7988,-0.7988,-0.7988,-0.7988,-0.7988,-0.7948,-0.7848,-0.7814,-0.7726,-0.7487,-0.7258,-0.7058,-0.6916,-0.681,-0.6983,-0.7844,-0.7023,0.0,-0.7633,-0.6911,-0.6184,-0.584,-0.5806,-0.5691,-0.5426,-0.5399,-0.5276,-0.4914,-0.4887,-0.4782,-0.4518,-0.4641,-0.4716,-0.4709,-0.5423,-0.5732,-0.5565,0.0,0.0,0.0,0.0,0.0,0.0,0.0,0.0,0.0,0.0,0.0,0.0,0.0,0.0,0.0,0.0,0.0,0.0,0.0,0.0,0.0,0.0,0.0,0.0,0.0,0.0,0.0,0.0,0.0,0.0,-0.1587,-0.3713,-0.6465,-0.8251,-1.047,-1.311,-1.3315,-1.32,-1.2908,-1.2895,-1.2462,-1.1441,-0.9862,-0.8498,-0.7199,-0.4832,-0.5161,-0.7824,-0.6817,-0.8103,-1.1097,-1.0995,-1.0799,-1.0541,-1.0399,-1.0249,-1.0044,-0.9957,-0.9856,-0.9788,-0.9537,-0.9279,-0.9022,-0.8743,-0.8574,-0.8452,-0.8269,-0.8133,-0.7988,-0.7988,-0.7988,-0.7988,-0.7988,-0.7988,-0.7988,-0.7988,-0.7988,-0.7988,-0.7988,-0.7988,-0.7975,-0.7934,-0.7889,-0.7787,-0.7706,-0.7482,-0.7258,-0.7065,-0.7004,-0.7018,-0.7039,-0.6804,0.0,-0.6708,-0.6493,-0.6224,-0.5989,-0.5932,-0.5847,-0.5555,-0.5562,-0.5399,-0.5063,-0.4941,-0.4884,-0.4796,-0.4648,-0.4769,-0.5262,-0.5484,-0.6092,0.0,0.0,0.0,0.0,0.0,0.0,0.0,0.0,0.0,0.0,0.0,0.0,0.0,0.0,0.0,0.0,0.0,0.0,0.0,0.0,0.0,0.0,0.0,0.0,0.0,0.0,0.0,0.0,-0.0869,-0.145,-0.1458,-0.3537,-0.5811,-0.7958,-0.9428,-1.1137,-1.3314,-1.3403,-1.3268,-1.2969,-1.2901,-1.2678,-1.2291,-1.0938,-0.9858,-0.8894,-0.7267,-0.7183,-0.8514,-0.8053,-0.8963,0.0,-1.0887,-1.0717,-1.0487,-1.0405,-1.0243,0.0,0.0,0.0,0.0,0.0,-0.9178,-0.8988,-0.871,-0.8554,-0.8445,-0.8241,-0.8113,-0.7988,-0.7988,-0.7988,-0.7988,-0.7988,-0.7988,-0.7988,-0.7988,-0.7988,-0.7988,-0.7988,-0.7988,-0.7988,-0.7988,-0.7921,-0.7889,-0.7821,-0.7624,0.0,-0.7265,-0.7092,-0.693,-0.6736,-0.6647,-0.6519,-0.6327,-0.63,-0.6238,-0.6006,-0.5993,-0.5872,-0.5616,-0.5589,0.0,0.0,0.0,-0.4975,-0.4975,-0.4836,0.0,0.0,0.0,-0.674,-0.7533,0.0,0.0,0.0,-0.9273,-0.9512,0.0,0.0,0.0,0.0,0.0,0.0,0.0,0.0,0.0,0.0,0.0,0.0,0.0,0.0,0.0,0.0,0.0,0.0,0.0,-0.0228,-0.0231,0.0,-0.2002,-0.3422,-0.3379,-0.5668,-0.7964,-0.9961,-1.031,-1.1309,-1.3294,0.0,0.0,0.0,0.0,-1.2596,-1.2271,-1.1993,-1.0951,-0.9223,-1.046,-1.0269,-0.8665,-1.0004,-1.0617,-1.0744,-1.0711,-1.0609,-1.0466,-1.0446,-1.0276,-0.995,-0.9856,-0.9707,-0.9551,-0.9316,-0.92,-0.9125,-0.8676,0.0,0.0,-0.8174,-0.8015,-0.7988,-0.7988,-0.7988,-0.7988,-0.7988,-0.7988,-0.7988,-0.7988,-0.7988,-0.7988,-0.7988,-0.7988,-0.7988,-0.7988,-0.7988,-0.7941,-0.7841,-0.7699,-0.755,-0.7446,-0.7143,-0.6856,-0.6749,-0.6614,-0.6504,-0.634,-0.6327,-0.6265,-0.6071,0.0,0.0,-0.5637,-0.5596,-0.5467,-0.5143,-0.5123,-0.511,-0.5076,-0.509,-0.5121,-0.5196,-0.6693,-0.7461,-0.7438,-0.8999,-0.986,-1.0083,-0.9846,-0.9782,0.0,0.0,0.0,0.0,0.0,0.0,0.0,0.0,0.0,0.0,0.0,0.0,0.0,0.0,0.0,-0.0264,0.0,0.0,0.0,-0.1405,-0.1899,-0.0239,-0.2013,-0.3341,-0.3297,-0.7132,-0.9721,-0.9971,-1.1819,-1.3054,-1.3227,-1.3336,-1.3207,-1.2786,-1.2868,-1.2657,-1.2108,-1.2047,-1.175,-1.1076,0.0,0.0,-1.0773,-0.944,-0.9525,-1.0826,-1.0643,-1.0453,-1.031,-1.0188,-0.9963,-0.9849,-0.9707,-0.9557,-0.9401,-0.9275,-0.9083,-0.8967,-0.8879,-0.8689,-0.8472,-0.8418,-0.8235,-0.7988,-0.7988,-0.7988,0.0,-0.7988,-0.7988,-0.7988,-0.7988,-0.7988,-0.7988,-0.7988,-0.7988,-0.7988,-0.7988,-0.7988,-0.7941,-0.7841,-0.7699,-0.755,-0.7446,-0.7217,-0.7004,-0.6862,-0.6858,-0.6742,-0.6504,-0.647,-0.6416,-0.6272,-0.6105,-0.5919,-0.5779,-0.5657,-0.5515,-0.5358,-0.5351,-0.5209,-0.4941,-0.5036,-0.5325,-0.5807,-0.6819,-0.7628,-0.8176,-0.9424,-1.006,-1.0083,-1.006,-1.0167,0.0,0.0,0.0,0.0,0.0,0.0,0.0,0.0,0.0,0.0,0.0,-0.5781,0.0,0.0,-0.2892,-0.0421,0.0,0.0,0.0,-0.1751,-0.2722,-0.1663,-0.4568,-0.657,-0.6526,-0.9745,-1.1795,-1.1724,-1.2798,-1.3451,-1.3295,-1.3288,-1.3152,-1.2854,-1.2773,-1.2556,-1.2182,-1.2026,-1.187,-1.1721,-1.0488,-1.0422,-1.1267,-1.0073,-0.9949,-1.0759,-1.067,-1.048,-1.0263,-1.0032,-0.989,-0.9808,-0.9666,-0.9517,-0.9354,-0.913,-0.9001,-0.8871,-0.8797,-0.8676,-0.8472,-0.8397,-0.8221,-0.7988,-0.7988,-0.7988,-0.7988,-0.7988,-0.7988,-0.7988,-0.7988,-0.7988,-0.7988,-0.7988,-0.7988,-0.7988,-0.7988,-0.7928,-0.7902,-0.7828,-0.7638,-0.7461,-0.7433,-0.7244,-0.7051,-0.691,-0.6883,-0.6817,-0.6552,-0.6511,-0.6457,-0.6313,-0.6193,-0.6051,-0.582,-0.5603,-0.5474,-0.5399,-0.5392,-0.533,-0.5148,-0.5209,-0.5403,-0.5706,-0.6979,-0.784,-0.8211,-0.9631,-1.0341,-1.0341,-1.0341,-1.0452,0.0,0.0,0.0,0.0,0.0,0.0,0.0,0.0,-0.3613,-0.4741,-0.6752,-0.7681,-0.5402,-0.5037,-0.3949,-0.0517,0.0,-0.0157,-0.0638,-0.2412,-0.3843,-0.422,-0.7552,-0.9763,-0.9783,-1.193,-1.3329,-1.3356,-1.3356,-1.3342,-1.3315,-1.3227,-1.3064,-1.284,-1.2617,-1.2406,-1.2203,-1.1952,-1.1816,-1.1782,-1.1396,-1.1261,-1.122,-1.0887,-1.0751,-1.0717,-1.0663,-1.048,-1.0215,-0.9937,-0.9822,-0.9808,-0.9666,-0.9517,-0.9347,-0.9076,-0.8905,-0.8865,-0.8764,-0.8608,-0.8459,-0.8368,-0.8167,-0.7988,-0.7988,-0.7988,-0.7988,-0.7988,-0.7988,-0.7988,-0.7988,-0.7988,-0.7988,-0.7988,-0.7988,-0.7988,-0.7988,-0.7874,-0.7801,-0.7773,-0.7556,-0.7405,-0.7333,-0.7224,-0.7058,-0.6943,-0.6923,-0.6871,-0.66,-0.6532,-0.6504,-0.6354,-0.6286,-0.6105,-0.5827,-0.559,-0.544,-0.544,-0.5412,-0.5392,-0.5392,-0.5392,-0.5392,-0.5392,-0.6957,-0.773,-0.7762,-0.948,-1.0333,-1.0333,-1.0523,-1.0586,0.0,0.0,0.0,0.0,0.0,0.0,0.0,0.0,-0.5451,-0.5355,-0.8381,-0.9838,-0.6034,-0.5467,-0.4305,-0.06,0.0,-0.0701,-0.2703,-0.4706,-0.6559,-0.8324,-0.9188,-0.9601,-0.9622,-1.1684,-1.3064,-1.3186,-1.32,-1.3146,-1.3017,-1.3112,-1.2922,-1.2379,-1.2454,-1.2305,-1.1884,-1.185,-1.1769,-1.164,-1.1457,-1.1294,-1.1158,-1.0995,-1.0779,-1.0704,-1.0446,-1.0229,-0.9997,-0.989,-0.9822,-0.9808,-0.9666,-0.9517,-0.9361,-0.9248,-0.9049,-0.8865,-0.8764,-0.8608,-0.8459,-0.8368,-0.8167,-0.7988,-0.7988,-0.7988,-0.7988,-0.7988,-0.7988,-0.7988,-0.7988,-0.7988,-0.7988,-0.7988,-0.7988,-0.7988,-0.7988,-0.7874,-0.7773,-0.7645,-0.7489,-0.7326,-0.7146,-0.7105,-0.7092,-0.7071,-0.7071,-0.7018,-0.6856,-0.6756,-0.6614,-0.6504,-0.6213,-0.5983,-0.5813,-0.5657,-0.5562,-0.5562,-0.5474,-0.5392,-0.5392,-0.5392,-0.5392,-0.5392,-0.6367,-0.685,-0.685,-0.8581,-0.944,-0.946,-1.0238,-1.0586,0.0,0.0,0.0,0.0,0.0,-0.0317,-0.154,-0.3845,-0.6178,-0.7384,-0.9717,-1.0687,-0.7942,-0.649,-0.4847,0.0,-0.0769,-0.0781,-0.2914,-0.4855,-0.6737,-0.8673,-0.9988,-1.0806,-1.1016,-1.2037,-1.2752,-1.2901,-1.2915,-1.2963,-1.3078,-1.2976,-1.284,-1.2684,-1.24,-1.2155,-1.1965,-1.1796,-1.1633,-1.1484,-1.1335,-1.1179,-1.1029,-1.0887,-1.0778,-1.0711,-1.0493,-1.0317,-1.0175,-1.0019,-0.9842,-0.9815,-0.9754,-0.9646,-0.9483,-0.9303,-0.9062,-0.8871,-0.8811,-0.8743,-0.8587,-0.8438,-0.8296,-0.816,-0.8015,-0.7988,-0.7988,-0.7988,-0.7988,-0.7988,-0.7988,-0.7988,-0.7988,-0.7988,-0.7988,-0.7988,-0.7988,-0.7874,-0.7767,-0.7631,-0.7475,-0.7319,-0.7125,-0.7098,-0.7098,-0.7098,-0.7098,-0.7045,-0.6903,-0.6797,-0.6614,-0.6416,-0.6159,-0.5966,-0.5905,-0.58,-0.5711,-0.5711,-0.5576,-0.5528,-0.5528,-0.544,-0.5392,-0.5392,-0.6268,-0.6687,-0.6719,-0.8452,-0.93,-0.9332,-1.0206,-1.0586,0.0,0.0,0.0,0.0,0.0,-0.0544,-0.2617,-0.453,-0.652,-0.8749,-1.0529,-1.1081,-0.9191,-0.7178,-0.5161,-0.3161,-0.176,-0.155,-0.3673,-0.5553,-0.7364,-0.9266,-1.0686,-1.1606,-1.1742,-1.2094,-1.24,-1.2596,-1.2644,-1.2779,-1.3037,-1.2847,-1.2745,-1.2773,-1.2311,-1.204,-1.1999,-1.1748,-1.1545,-1.1389,-1.124,-1.109,-1.0873,-1.0792,-1.0717,-1.0711,-1.0561,-1.0432,-1.0324,-1.0127,-0.9923,-0.9876,-0.9836,-0.9734,-0.9578,-0.9313,-0.9123,-0.8988,-0.8906,-0.8804,-0.8676,-0.8486,-0.835,-0.8241,-0.8085,-0.7988,-0.7988,-0.7988,-0.7988,-0.7988,-0.7988,-0.7988,-0.7988,-0.7988,-0.7988,-0.7988,-0.7988,-0.7874,-0.7767,-0.7631,-0.7509,-0.7373,-0.7132,-0.7132,-0.7146,-0.7105,-0.7098,-0.7058,-0.6957,-0.6817,-0.6586,-0.6334,-0.6159,-0.6091,-0.6091,-0.5956,-0.5847,-0.5806,-0.5671,-0.5569,-0.5562,-0.5453,-0.5392,-0.5392,-0.6013,-0.6334,-0.6334,-0.8158,-0.9049,-0.9081,-1.027,-1.0827,0.0,0.0,0.0,0.0,0.0,-0.0511,-0.2655,-0.462,-0.6612,-0.8721,-1.0577,-1.1158,-0.9097,-0.7102,-0.5126,-0.3077,-0.2842,-0.3759,-0.5913,-0.7735,-0.9488,-1.1299,-1.142,-1.1287,0.0,-1.144,-1.1979,-1.2284,-1.2433,-1.2576,-1.2732,-1.2732,-1.2603,-1.2318,-1.2149,-1.1986,-1.1837,-1.1694,-1.1545,-1.1389,-1.124,-1.109,-1.0873,-1.0792,-1.0717,-1.0711,-1.0561,-1.0487,-1.0466,-1.0168,-0.9984,-0.9963,-0.9876,-0.9734,-0.9591,-0.9435,-0.9337,-0.9159,-0.8818,-0.8716,-0.8662,-0.837,-0.8327,-0.8241,-0.8085,-0.7988,-0.7988,-0.7988,-0.7988,-0.7988,-0.7988,-0.7988,-0.7988,-0.7988,-0.7988,-0.7988,-0.7988,-0.7874,-0.7767,-0.7631,-0.7597,-0.7495,-0.7146,-0.7265,-0.7312,-0.7119,-0.7098,-0.7092,-0.7092,-0.6878,-0.6586,-0.6334,-0.6293,-0.6293,-0.6293,-0.6112,-0.5925,-0.5813,-0.5671,-0.5556,-0.5405,-0.5399,-0.5392,-0.5392,-0.5425,-0.5425,-0.5425,-0.7444,-0.8415,-0.8482,-1.0436,-1.1362,-0.1413,-0.0756,0.0,0.0,0.0,-0.0922,-0.4422,-0.5544,-0.6831,-1.0224,-1.0967,-1.0851,-1.0066,-0.8215,-0.6723,-0.6176,-0.5373,-0.5523,-0.7739,-0.8515,-0.9497,-1.1164,-1.1274,0.0,0.0,0.0,0.0,-1.1823,-1.2074,-1.2318,-1.2562,-1.2678,-1.2637,-1.2433,-1.2189,-1.1945,-1.1694,-1.1545,-1.1341,-1.1097,-1.0941,-1.0846,-1.0799,-1.0744,-1.0717,-1.0717,-1.0663,-1.0582,-1.0473,-1.0283,-1.0141,-0.997,-0.9883,-0.9788,-0.972,-0.9469,-0.9347,-0.9259,-0.8967,-0.8804,-0.8811,-0.8513,-0.8411,-0.8364,-0.8062,-0.7988,-0.7988,-0.7988,-0.7988,-0.7988,-0.7988,-0.7988,-0.7988,-0.7988,-0.7988,-0.7988,-0.7988,-0.7948,-0.7867,-0.7767,-0.7665,-0.7536,-0.7326,-0.7251,-0.7159,-0.7105,-0.7098,-0.7024,-0.6871,-0.6763,-0.6586,-0.6334,-0.63,-0.63,-0.63,-0.6252,-0.6159,-0.6149,-0.5867,-0.5752,-0.58,-0.5556,-0.5487,-0.565,-0.5494,-0.5494,-0.565,-0.6829,-0.7448,-0.7573,-0.9523,-1.04,-0.233,-0.1216,0.0,0.0,0.0,-0.1124,-0.5235,-0.59,-0.6788,-1.0665,-1.0962,-1.0419,-1.0215,-0.8505,-0.7189,-0.7413,-0.6816,-0.6786,-0.842,-0.9294,-1.0119,-1.1288,-1.1355,-1.1253,0.0,0.0,0.0,-1.1606,-1.1891,-1.2169,-1.2413,-1.2569,-1.2583,-1.2433,-1.2189,-1.1918,-1.1619,-1.147,-1.124,-1.088,-1.0725,-1.0717,-1.0717,-1.0717,-1.0717,-1.0717,-1.0717,-1.0636,-1.048,-1.0337,-1.0188,-0.997,-0.9883,-0.9822,-0.9788,-0.949,-0.9381,-0.934,-0.9042,-0.8885,-0.8844,-0.8648,-0.8526,-0.8438,-0.8194,-0.8035,-0.7988,-0.7988,-0.7988,-0.7988,-0.7988,-0.7988,-0.7988,-0.7988,-0.7988,-0.7988,-0.7988,-0.7988,-0.7941,-0.7841,-0.778,-0.7678,-0.746,-0.7244,-0.7098,-0.7098,-0.7098,-0.7011,-0.681,-0.6736,-0.6607,-0.6402,-0.6327,-0.63,-0.63,-0.63,-0.6279,-0.6179,-0.5989,-0.5901,-0.5912,-0.5671,-0.561,-0.58,-0.5616,-0.561,-0.58,-0.6667,-0.7336,-0.7852,-0.946,-1.0219,-0.2773,-0.1449,0.0,0.0,0.0,-0.108,-0.5055,-0.5663,-0.6411,-1.0085,-1.0348,-0.9829,0.0,0.0,-0.6705,-0.7012,-0.7348,-0.7791,-0.8384,-1.0092,-1.1375,0.0,0.0,0.0,0.0,0.0,0.0,-1.1653,0.0,-1.2135,-1.2284,-1.2433,-1.244,-1.2284,-1.2128,-1.1904,-1.1599,-1.1436,-1.1219,-1.088,-1.0725,-1.0717,-1.0717,-1.0717,-1.0717,-1.0717,-1.0717,-1.0636,-1.048,-1.0337,-1.0125,-0.9846,-0.9754,-0.964,-0.9539,-0.9372,-0.9265,-0.9218,-0.8986,-0.8885,-0.8858,-0.875,-0.8608,-0.8465,-0.8303,-0.816,-0.8002,-0.7988,-0.7988,-0.7988,-0.7988,-0.7988,-0.7988,-0.7988,-0.7988,-0.7988,-0.7988,-0.7988,-0.7948,-0.7848,-0.7887,-0.7889,-0.7448,-0.7251,-0.7105,-0.7098,-0.7098,-0.7045,-0.6903,-0.6797,-0.6641,-0.6525,-0.6381,-0.63,-0.63,-0.63,-0.6193,-0.6,-0.5993,-0.5925,-0.582,-0.5806,-0.5806,-0.5827,-0.5813,-0.5806,-0.5827,-0.6903,-0.7941,-0.8978,-1.0122,-1.0634,-0.4573,-0.241,0.0,0.0,0.0,-0.0985,-0.4836,-0.5293,-0.5866,-0.9497,-0.9566,-0.8994,0.0,0.0,0.0,-0.8838,-0.9418,0.0,-1.0676,-1.1517,0.0,-1.2006,0.0,-1.2121,-1.2121,-1.2013,0.0,0.0,-1.2189,-1.225,-1.2291,-1.2535,-1.2501,-1.2135,-1.1972,-1.1694,-1.1287,-1.1023,-1.0907,-1.088,-1.0725,-1.0717,-1.0717,-1.0717,-1.0717,-1.0717,-1.0717,-1.0636,-1.048,-1.0337,-0.9488,-0.8211,-0.8083,-0.724,-0.6241,-0.7172,-0.7555,-0.7638,-0.8588,-0.8885,-0.8838,-0.8628,-0.8587,-0.8581,-0.8214,-0.8153,-0.8187,-0.8022,-0.7988,-0.7988,-0.7988,-0.7988,-0.7988,-0.7988,-0.7988,-0.7988,-0.7988,-0.7988,-0.7975,-0.7941,-0.7923,-0.7767,-0.7428,-0.7339,-0.7272,-0.7112,-0.7098,-0.7045,-0.6903,-0.6797,-0.6641,-0.6525,-0.6381,-0.63,-0.63,-0.63,-0.6193,-0.6,-0.5993,-0.5973,-0.5939,-0.5861,-0.5908,-0.6177,-0.5915,-0.5915,-0.6184,-0.6327,-0.6611,-0.7034,-0.8096,-0.8571,-0.5652,-0.2957,0.0,0.0,-0.0586,-0.187,-0.4641,-0.5527,-0.6431,-0.8916,-0.9008,-0.8526,-0.8241,-0.8255,0.0,0.0,0.0,0.0,-1.1104,-1.1552,-1.1911,0.0,-1.2393,0.0,-1.2481,-1.2467,-1.2494,0.0,-1.24,-1.2291,-1.2291,-1.2508,-1.2454,-1.2074,-1.1979,-1.1681,-1.1165,-1.0867,-1.0765,-1.0779,-1.0758,-1.0717,-1.0717,-1.0717,-1.0717,-1.0717,0.0,-1.0602,-1.0392,-1.0317,-0.9192,-0.7511,-0.7444,-0.6381,-0.5082,-0.64,-0.691,-0.7111,-0.842,-0.8885,-0.8858,-0.8737,-0.8696,-0.8648,-0.833,-0.8248,-0.8241,-0.8035,-0.7988,-0.7988,-0.7988,-0.7988,-0.7988,-0.7988,-0.7988,-0.7988,-0.7988,-0.7988,-0.7988,-0.7988,-0.7916,-0.776,-0.759,-0.7455,-0.7339,-0.7251,-0.7139,-0.7065,-0.6991,-0.6892,-0.6742,-0.6586,-0.6477,-0.6368,-0.6306,-0.63,-0.6259,-0.6139,-0.6132,-0.6132,-0.6132,-0.6051,-0.6122,-0.6293,-0.6129,-0.6122,-0.63,-0.6173,-0.6402,-0.6988,-0.7557,-0.7778,-0.6309,-0.351,-0.044,-0.0086,-0.1174,-0.2809,-0.4493,-0.5801,-0.7075,-0.8384,-0.8513,-0.8275,-0.7882,-0.7828,-0.8004,-0.8492,0.0,-0.9377,-1.0616,-1.1036,-1.1538,-1.24,-1.2657,-1.2766,-1.2786,-1.2908,-1.307,-1.307,-1.2589,-1.2345,-1.2345,-1.2447,-1.2359,-1.204,-1.1972,-1.1773,-1.1199,-1.088,-1.0731,-1.0751,-1.0731,-1.0717,-1.0717,-1.0717,-1.0717,-1.0717,0.0,0.0,-1.0276,-1.0256,-0.9006,-0.7052,-0.7052,-0.5892,-0.441,-0.5987,-0.656,-0.6821,-0.8357,-0.8885,-0.8878,-0.8858,-0.8818,-0.8676,-0.8506,-0.837,-0.8241,-0.8035,-0.7988,-0.7988,-0.7988,-0.7988,-0.7988,-0.7988,-0.7988,-0.7988,-0.7988,-0.7988,-0.7988,-0.7988,-0.788,-0.7834,-0.7814,-0.7597,-0.7421,-0.7453,-0.7272,-0.7125,-0.7125,-0.6984,-0.6829,-0.6715,-0.6566,-0.6457,-0.6313,-0.63,-0.6293,-0.6272,-0.6286,-0.6293,-0.6272,-0.6286,-0.63,-0.63,-0.63,-0.63,-0.63,-0.63,-0.6756,-0.7595,-0.7595,-0.7595,-0.7057,-0.4813,-0.2488,-0.0523,-0.0249,-0.1164,-0.394,-0.4541,0.0,0.0,-0.8126,-0.7902,-0.7828,-0.7916,-0.8228,-0.8975,-0.9293,-0.9863,-1.0934,-1.1348,-1.1782,0.0,-1.2752,-1.2969,-1.3085,-1.3119,0.0,0.0,0.0,-1.2657,-1.2657,-1.2556,-1.2305,-1.1884,-1.1511,-1.1328,-1.1348,-1.0934,-1.0785,-1.084,-1.0778,-1.0717,-1.0717,-1.0717,-1.0717,-1.0711,-1.0588,0.0,-1.027,-1.0141,-0.8172,-0.5345,-0.5345,-0.3505,-0.1167,-0.3917,-0.4922,-0.5307,-0.7965,-0.8885,-0.8865,-0.8791,-0.873,-0.8662,-0.8391,-0.834,-0.8241,-0.8035,-0.7988,-0.7988,-0.7988,-0.7988,-0.7988,-0.7988,-0.7988,-0.7988,-0.7988,-0.7988,-0.7988,-0.7988,-0.7968,-0.7914,-0.7834,-0.7767,-0.7692,-0.7577,-0.7428,-0.7333,-0.7333,-0.7095,-0.6829,-0.6715,-0.6566,-0.6457,-0.6313,-0.63,-0.6245,-0.6078,-0.6193,-0.6245,-0.6078,-0.6193,-0.63,-0.63,-0.63,-0.63,-0.63,-0.63,-0.6377,-0.6563,-0.6563,-0.6563,-0.8805,-0.6183,-0.3296,-0.2181,-0.1644,-0.1901,-0.3839,0.0,0.0,0.0,-0.7862,-0.7767,-0.7611,-0.7767,0.0,-0.8499,-0.8825,-0.9388,-1.0439,-1.0839,0.0,-1.2176,-1.261,-1.2868,0.0,-1.3085,0.0,0.0,0.0,-1.2732,-1.2732,-1.244,-1.2135,-1.1837,-1.1396,-1.1165,-1.1158,-1.0867,-1.0758,-1.0826,-1.0758,-1.0717,-1.0717,-1.0717,-1.0717,-1.0717,-1.0643,0.0,-1.0276,-1.0202,-0.8584,-0.6137,-0.5223,-0.3444,-0.1473,-0.2791,-0.3811,-0.4784,-0.7001,-0.8269,-0.8871,-0.8797,-0.8832,-0.8771,-0.8472,-0.8377,-0.8336,-0.8056,-0.7988,-0.7988,-0.7988,-0.7988,-0.7988,-0.7988,-0.7988,-0.7988,-0.7988,-0.7988,-0.7988,-0.7988,-0.7988,-0.7968,-0.7894,-0.7862,-0.7787,-0.7719,-0.7516,-0.7419,-0.7419,-0.7177,-0.6937,-0.6837,-0.6681,-0.6532,-0.6422,-0.634,-0.6265,-0.6152,-0.6259,-0.6265,-0.6152,-0.6259,-0.63,-0.63,-0.63,-0.63,-0.63,-0.63,-0.63,-0.63,-0.63,-0.63,-1.0355,-0.7757,-0.4965,-0.4427,-0.3819,-0.3582,-0.4433,-0.5639,0.0,-0.745,-0.7658,-0.7645,-0.746,-0.7563,-0.7801,0.0,-0.8282,-0.8804,-0.9788,-1.0283,-1.0846,0.0,-1.2372,0.0,0.0,0.0,0.0,0.0,0.0,0.0,-1.2637,-1.2643,-1.2571,-1.2415,-1.2367,-1.2125,-1.16,-1.134,-1.1049,-1.0717,-1.0717,-1.0717,-1.0717,-1.0717,-1.0717,-1.0717,-1.0683,0.0,0.0,-1.0243,-0.9118,-0.7235,-0.5529,-0.3927,-0.2503,-0.2255,-0.3162,-0.4702,-0.6205,-0.7648,-0.8885,-0.8885,-0.8838,-0.8798,-0.8554,-0.8438,-0.8336,-0.8056,-0.7988,-0.7988,-0.7988,-0.7988,-0.7988,-0.7988,-0.7988,-0.7988,-0.7988,-0.7988,-0.7988,-0.7988,-0.7988,-0.7988,-0.7988,-0.7887,-0.7862,-0.7862,-0.7638,-0.7468,-0.7468,-0.7305,-0.7105,-0.7034,-0.6831,-0.6641,-0.6525,-0.6381,-0.63,-0.63,-0.63,-0.63,-0.63,-0.63,-0.63,-0.63,-0.63,-0.63,-0.63,-0.63,-0.63,-0.63,-0.63,-0.63,-1.0488,-0.9965,-0.9284,-0.7031,-0.5982,-0.5749,-0.6631,0.0,-0.637,-0.7391,-0.7502,-0.7446,-0.7419,-0.7439,-0.7644,-0.816,0.0,-0.8655,-0.9693,-1.0215,-1.0731,-1.1375,0.0,0.0,0.0,0.0,0.0,0.0,0.0,0.0,-1.2338,-1.3783,-1.4612,-1.4438,-1.5482,-1.5362,-1.3721,-1.3303,-1.2281,-1.0717,-1.0717,-1.0717,-1.0717,-1.0717,-1.0717,-1.0711,-1.0575,0.0,0.0,-1.0127,-0.8971,-0.7235,-0.5529,-0.3902,-0.2466,-0.2245,-0.3197,-0.469,-0.6182,-0.7648,-0.8885,-0.8885,-0.875,-0.852,-0.8492,-0.8296,-0.8022,-0.7995,-0.7988,-0.7988,-0.7988,-0.7988,-0.7988,-0.7988,-0.7988,-0.7988,-0.7988,-0.7988,-0.7988,-0.7988,-0.7988,-0.7988,-0.7988,-0.7975,-0.7968,-0.7968,-0.7875,-0.7773,-0.7773,-0.7522,-0.7392,-0.7333,-0.6953,-0.6641,-0.6525,-0.6381,-0.63,-0.63,-0.63,-0.63,-0.63,-0.63,-0.63,-0.63,-0.63,-0.63,-0.63,-0.63,-0.63,-0.63,-0.63,-0.63,-1.1907,-1.1104,-1.0113,-0.8905,-0.708,-0.582,-0.6788,0.0,-0.6221,-0.7469,-0.7536,-0.7419,-0.7419,-0.7419,-0.7494,-0.774,0.0,0.0,-0.8893,0.0,-0.9707,0.0,0.0,0.0,0.0,0.0,0.0,0.0,0.0,0.0,-1.3784,-1.418,-1.4926,-1.5924,-1.6186,-1.5386,-1.3611,-1.3401,-1.2413,-1.0717,-1.0717,-1.0717,-1.0717,-1.0717,-1.0717,-1.0711,-1.0561,0.0,0.0,-1.0051,-0.952,-0.8714,-0.7057,-0.596,-0.5152,-0.4071,-0.4582,-0.593,-0.6512,-0.7648,-0.8885,-0.8885,-0.873,-0.8479,-0.8479,-0.8343,-0.816,-0.8015,-0.7988,-0.7988,-0.7988,-0.7988,-0.7988,-0.7988,-0.7988,-0.7988,-0.7988,-0.7988,-0.7988,-0.7988,-0.7988,-0.7988,-0.7988,-0.7988,-0.7988,-0.7988,-0.7909,-0.7814,-0.7814,-0.7556,-0.7419,-0.7419,-0.6966,-0.6715,-0.6742,-0.6491,-0.6334,-0.6422,-0.6347,-0.63,-0.63,-0.63,-0.63,-0.63,-0.63,-0.63,-0.63,-0.63,-0.63,-0.63,-0.63,-0.63,-1.2471,-1.1715,-1.0804,-1.0631,-0.8701,-0.7047,0.0,0.0,-0.6693,-0.7566,-0.755,-0.7405,-0.7312,-0.7305,-0.7319,0.0,0.0,-0.7665,-0.8323,-0.8492,0.0,0.0,0.0,0.0,0.0,0.0,0.0,0.0,0.0,0.0,0.0,-1.5438,-1.6185,-1.7591,-1.7684,-1.6834,-1.4969,-1.439,-1.3193,-1.1439,-1.0982,-1.0717,-1.0717,-1.067,-1.0656,-1.0643,0.0,0.0,0.0,-1.0031,-0.9896,-0.9633,-0.7939,-0.7245,-0.6897,-0.5268,-0.5529,-0.6689,-0.6725,-0.7648,-0.8878,-0.8831,-0.8696,-0.8472,-0.8431,-0.8316,-0.818,-0.8022,-0.7988,-0.7988,-0.7988,-0.7988,-0.7988,-0.7988,-0.7988,-0.7988,-0.7988,-0.7988,-0.7988,-0.7988,-0.7988,-0.7988,-0.7988,-0.7988,-0.7988,-0.7988,-0.7901,-0.7862,-0.7814,-0.759,-0.7421,-0.7419,-0.7007,-0.6797,-0.6858,-0.6532,-0.6388,-0.6443,-0.6354,-0.63,-0.63,-0.63,-0.63,-0.63,-0.63,-0.63,-0.63,-0.63,-0.63,-0.63,-0.63,-0.63,-1.1629,-1.185,-1.2305,-1.2298,-1.1325,-1.0321,0.0,-0.8844,-0.7907,-0.7665,-0.7482,-0.7326,-0.7125,-0.7098,-0.7146,-0.7346,-0.7419,0.0,-0.8238,-0.8526,0.0,0.0,0.0,0.0,0.0,0.0,0.0,0.0,0.0,0.0,0.0,-1.7973,-1.8948,-1.9584,-2.0846,-2.0682,-1.8953,-1.6871,-1.5005,-1.3259,-1.1505,-1.0717,-1.0717,-1.0561,-1.0493,0.0,0.0,0.0,0.0,-0.9984,-0.9896,-0.962,-0.7785,-0.7074,-0.6899,-0.5123,-0.5435,-0.6705,-0.67,-0.7648,-0.8858,-0.8764,-0.8608,-0.8459,-0.8368,-0.8167,-0.7988,-0.7988,-0.7988,-0.7988,-0.7988,-0.7988,-0.7988,-0.7988,-0.7988,-0.7988,-0.7988,-0.7988,-0.7988,-0.7988,-0.7988,-0.7988,-0.7988,-0.7988,-0.7988,-0.7988,-0.7988,-0.7934,-0.7828,-0.7685,-0.7543,-0.7433,-0.7102,-0.6865,-0.6715,-0.6559,-0.645,-0.6313,-0.63,-0.63,-0.63,-0.63,-0.63,-0.63,-0.63,-0.63,-0.63,-0.63,-0.63,-0.63,-0.63,-0.63,-1.0735,-1.0839,-1.1165,-1.0968,-1.0317,-0.9639,-0.93,-0.8452,-0.774,-0.7746,-0.7461,-0.7231,-0.7285,-0.721,-0.7146,-0.7346,-0.7419,0.0,0.0,0.0,0.0,0.0,0.0,0.0,0.0,0.0,0.0,0.0,0.0,0.0,0.0,-1.922,-2.0772,-2.0952,-2.1186,-2.04,-1.8694,-1.8022,-1.6165,-1.313,-1.2613,-1.166,-1.0419,-1.0371,0.0,0.0,0.0,0.0,0.0,-0.9876,-0.9863,-0.9748,-0.9055,-0.8738,-0.8601,-0.7938,-0.7927,-0.8208,-0.8208,-0.8491,-0.8858,-0.8757,-0.8608,-0.8459,-0.8368,-0.816,-0.7988,-0.7988,-0.7988,-0.7988,-0.7988,-0.7988,-0.7988,-0.7988,-0.7988,-0.7988,-0.7988,-0.7988,-0.7988,-0.7988,-0.7988,-0.7988,-0.7988,-0.7988,-0.7988,-0.7988,-0.7988,-0.7975,-0.7921,-0.7753,-0.7584,-0.7536,-0.7258,-0.7011,-0.6964,-0.677,-0.6654,-0.6715,-0.662,-0.6512,-0.645,-0.6443,-0.6402,-0.63,-0.63,-0.63,-0.63,-0.63,-0.63,-0.63,-0.63,-0.63,0.0,-1.0339,-1.0181,-1.0059,-0.9578,0.0,-0.8893,-0.8241,-0.7692,-0.7726,-0.7461,-0.7238,-0.7278,-0.7204,-0.7125,-0.7272,-0.7285,0.0,0.0,0.0,0.0,0.0,0.0,0.0,0.0,0.0,0.0,0.0,0.0,0.0,0.0,-1.9569,-2.139,-2.139,-2.1203,-2.0537,-1.9334,-1.8689,-1.689,-1.3943,-1.3254,-1.2004,-1.0276,-1.0222,0.0,0.0,0.0,0.0,0.0,-0.9863,-0.9788,-0.9727,-0.9578,-0.9429,-0.9279,-0.913,-0.9015,-0.8885,-0.8885,-0.8885,-0.8851,-0.8696,-0.8486,-0.8296,-0.8208,-0.8113,-0.7988,-0.7988,-0.7988,-0.7988,-0.7988,-0.7988,-0.7988,-0.7988,-0.7988,-0.7988,-0.7988,-0.7988,-0.7988,-0.7988,-0.7988,-0.7988,-0.7988,-0.7988,-0.7988,-0.7988,-0.7988,-0.7968,-0.7914,-0.7746,-0.7577,-0.7516,-0.7292,-0.7098,-0.7098,-0.6883,-0.6803,-0.6844,-0.6756,-0.6661,-0.6559,-0.6559,-0.6532,-0.6381,-0.6381,-0.6354,-0.63,-0.63,-0.63,-0.63,-0.63,-0.63,0.0,-1.0062,-0.932,0.0,0.0,0.0,-0.8648,-0.8208,0.0,-0.7611,-0.7461,-0.7312,-0.7139,-0.7105,-0.7105,-0.7125,-0.7125,-0.7233,0.0,-0.8144,0.0,0.0,0.0,0.0,0.0,0.0,0.0,0.0,0.0,0.0,0.0,-1.9228,-2.1096,-2.1082,-2.1082,-2.0949,-2.0681,-1.9063,-1.7275,-1.5288,-1.3617,-1.1933,-1.0243,-1.01,0.0,0.0,0.0,0.0,0.0,-0.9802,-0.972,-0.9578,-0.9422,-0.9337,-0.9193,-0.8994,-0.8885,-0.8885,-0.8871,-0.8865,-0.8817,-0.8567,-0.8275,-0.7988,-0.7988,-0.7988,-0.7988,-0.7988,-0.7988,-0.7988,-0.7988,-0.7988,-0.7988,-0.7988,-0.7988,-0.7988,-0.7988,-0.7988,-0.7988,-0.7988,-0.7988,-0.7988,-0.7988,-0.7988,-0.7988,-0.7988,-0.7988,-0.7934,-0.7828,-0.7685,-0.7543,-0.7433,-0.7231,-0.7098,-0.7098,-0.6977,-0.6842,-0.6742,-0.6729,-0.6729,-0.6715,-0.6715,-0.6647,-0.6532,-0.6525,-0.6457,-0.6313,-0.6313,-0.6313,-0.63,-0.63,-0.63,-1.0506,0.0,-0.8312,-0.8346,-0.8251,-0.8116,0.0,-0.7828,-0.7604,-0.7455,-0.7299,-0.7217,-0.7299,-0.7217,-0.7173,-0.7455,-0.7489,-0.7556,-0.7733,0.0,0.0,-1.757,0.0,0.0,0.0,0.0,0.0,0.0,0.0,0.0,0.0,-1.9228,-2.1002,-2.0788,-2.0775,-2.0748,-2.0681,-2.0012,-1.8142,-1.5064,-1.4637,-1.2847,-0.9924,-0.989,0.0,0.0,0.0,0.0,-0.9659,-0.9659,-0.9571,-0.9422,-0.9323,-0.9241,-0.9193,-0.8994,-0.8885,-0.8865,-0.8804,-0.8764,-0.8716,-0.8418,-0.8194,-0.7988,-0.7988,-0.7988,-0.7988,-0.7988,-0.7988,-0.7988,-0.7988,-0.7988,-0.7988,-0.7988,-0.7988,-0.7988,-0.7988,-0.7988,-0.7988,-0.7988,-0.7988,-0.7988,-0.7988,-0.7988,-0.7988,-0.7988,-0.7988,-0.7934,-0.7828,-0.7685,-0.7543,-0.7433,-0.7231,-0.7098,-0.7098,-0.7065,-0.7031,-0.6997,-0.6991,-0.6943,-0.6836,-0.6829,-0.6803,-0.6647,-0.6647,-0.6573,-0.6463,-0.6463,-0.6409,-0.63,-0.63,-0.63,-0.9608,-0.8528,-0.7988,-0.7988,-0.7988,-0.7968,-0.7887,-0.7753,-0.7577,-0.7495,-0.7299,-0.7119,-0.7251,-0.7152,-0.7173,-0.7455,-0.7495,0.0,0.0,0.0,-1.4326,0.0,0.0,0.0,0.0,0.0,0.0,0.0,0.0,0.0,0.0,-1.886,-2.0641,-2.0481,-2.0347,-2.0281,-2.0281,-2.012,-1.8298,-1.4841,-1.4729,-1.2961,-0.972,-0.9652,-0.9618,0.0,0.0,0.0,-0.9503,-0.9503,-0.9415,-0.9323,-0.9241,-0.9166,-0.9049,-0.8967,-0.8885,-0.8865,-0.8764,-0.8621,-0.8479,-0.8323,-0.8167,-0.7988,-0.7988,-0.7988,-0.7988,-0.7988,-0.7988,-0.7988,-0.7988,-0.7988,-0.7988,-0.7988,-0.7988,-0.7988,-0.7988,-0.7988,-0.7988,-0.7988,-0.7988,-0.7988,-0.7988,-0.7988,-0.7988,-0.7988,-0.7988,-0.7961,-0.788,-0.7733,-0.757,-0.7489,-0.7272,-0.7098,-0.7098,-0.7098,-0.7098,-0.7098,-0.7098,-0.7058,-0.6984,-0.6984,-0.6916,-0.681,-0.6736,-0.6627,-0.6511,-0.6511,-0.6436,-0.63,-0.63,-0.63,-0.8936,-0.8117,-0.7988,-0.7988,-0.7988,-0.7982,-0.7961,-0.7807,-0.7617,-0.7577,-0.736,-0.7132,-0.7132,-0.7132,0.0,0.0,0.0,0.0,-1.0766,-1.2865,0.0,0.0,0.0,0.0,0.0,0.0,0.0,0.0,0.0,0.0,0.0,-1.8483,-2.0127,-2.0107,-1.9867,-1.9693,-1.9599,-1.9639,-1.7978,-1.4548,-1.4384,-1.2655,-0.9571,-0.9442,-0.9381,-0.9381,0.0,0.0,-0.9347,-0.9347,-0.9259,-0.918,-0.918,-0.9049,-0.8878,-0.8858,-0.8851,-0.8824,-0.8703,-0.8465,-0.8235,-0.8235,-0.8147,-0.7988,-0.7988,-0.7988,-0.7988,-0.7988,-0.7988,-0.7988,-0.7988,-0.7988,-0.7988,-0.7988,-0.7988,-0.7988,-0.7988,-0.7988,-0.7988,-0.7988,-0.7988,-0.7988,-0.7988,-0.7988,-0.7988,-0.7988,-0.7988,-0.7982,-0.7961,-0.7787,-0.7617,-0.757,-0.7333,-0.7119,-0.7098,-0.7098,-0.7098,-0.7098,-0.7098,-0.7098,-0.7098,-0.7098,-0.7038,-0.6923,-0.681,-0.6661,-0.6545,-0.6525,-0.6436,-0.63,-0.63,-0.63,-0.9944,-0.8762,-0.7988,-0.7988,-0.7988,-0.7955,-0.7875,-0.7814,-0.7706,-0.7455,0.0,0.0,0.0,-0.7333,-0.7387,0.0,0.0,-0.9615,0.0,0.0,0.0,0.0,0.0,0.0,0.0,0.0,0.0,0.0,0.0,0.0,0.0,-1.8447,-2.0013,-1.9519,-1.9452,-1.9199,-1.8691,-1.8931,-1.751,-1.4432,-1.4141,-1.2391,-0.9415,-0.9395,-0.9381,-0.9381,0.0,-0.9306,-0.9248,-0.9248,-0.9103,-0.8974,-0.8974,-0.8905,-0.8865,-0.8791,-0.8743,-0.871,-0.8431,-0.8221,-0.8022,-0.8022,-0.8008,-0.7988,-0.7988,-0.7988,-0.7988,-0.7988,-0.7988,-0.7988,-0.7988,-0.7988,-0.7988,-0.7988,-0.7988,-0.7988,-0.7988,-0.7988,-0.7988,-0.7988,-0.7988,-0.7988,-0.7988,-0.7988,-0.7988,-0.7988,-0.7988,-0.7941,-0.7862,-0.7807,-0.7685,-0.7434,-0.7366,-0.7285,-0.7105,-0.7098,-0.7098,-0.7098,-0.7098,-0.7098,-0.7098,-0.7098,-0.7085,-0.7065,-0.6923,-0.6817,-0.6668,-0.6532,-0.6436,-0.63,-0.63,-0.63,-1.0389,-0.9397,-0.8975,-0.8975,-0.9045,-0.9026,-0.8898,-0.9427,-0.9664,-0.8847,0.0,0.0,0.0,0.0,-0.7597,-0.7909,0.0,-0.9816,0.0,0.0,0.0,0.0,0.0,0.0,0.0,0.0,0.0,0.0,0.0,0.0,0.0,0.0,-1.9172,-1.8905,-1.8731,-1.8531,-1.825,-1.8063,-1.6692,-1.4141,-1.3917,-1.2233,-0.9309,-0.9178,-0.9144,-0.9144,0.0,-0.9103,-0.9035,-0.9035,-0.8947,-0.8818,-0.8818,-0.8764,-0.8682,-0.8615,-0.854,-0.8452,-0.8316,-0.8167,-0.7988,-0.7988,-0.7988,-0.7988,-0.7988,-0.7988,-0.7988,-0.7988,-0.7988,-0.7988,-0.7988,-0.7988,-0.7988,-0.7988,-0.7988,-0.7988,-0.7988,-0.7988,-0.7988,-0.7988,-0.7988,-0.7988,-0.7988,-0.7988,-0.7988,-0.7988,-0.7988,-0.7968,-0.7894,-0.7794,-0.7645,-0.7509,-0.7346,-0.6949,-0.6257,-0.6163,-0.6428,-0.7048,-0.7098,-0.7098,-0.7098,-0.7098,-0.7058,-0.6984,-0.6997,-0.6889,-0.6702,-0.6627,-0.6519,-0.6416,-0.6334,-0.63,-1.1161,-1.0357,-1.0094,-1.0006,-0.9962,-1.0072,-1.0396,-1.126,-1.1694,-1.0727,0.0,0.0,0.0,-0.7832,0.0,-0.8758,-0.9125,0.0,0.0,0.0,0.0,0.0,0.0,0.0,0.0,0.0,0.0,0.0,0.0,0.0,0.0,0.0,-1.8317,-1.8183,-1.7956,-1.7742,-1.7676,-1.7275,-1.5915,-1.3689,-1.3521,-1.1891,-0.905,-0.892,-0.8831,-0.8831,-0.8865,-0.8865,-0.8831,-0.8831,-0.8798,-0.8655,-0.8655,-0.8567,-0.8431,-0.8431,-0.8343,-0.8214,-0.8214,-0.814,-0.7988,-0.7988,-0.7988,-0.7988,-0.7988,-0.7988,-0.7988,-0.7988,-0.7988,-0.7988,-0.7988,-0.7988,-0.7988,-0.7988,-0.7988,-0.7988,-0.7988,-0.7988,-0.7988,-0.7988,-0.7988,-0.7988,-0.7988,-0.7988,-0.7988,-0.7988,-0.7988,-0.7988,-0.7988,-0.7807,-0.7537,-0.7221,-0.6943,-0.6281,-0.5092,-0.4999,-0.5354,-0.6245,-0.6561,-0.6681,-0.6643,-0.6913,-0.689,-0.6488,-0.6552,-0.6354,-0.59,-0.5864,-0.5798,-0.5689,-0.5872,-0.5944,-1.3032,-1.1992,-1.0918,-1.0612,-1.0159,-1.0303,-1.2142,-1.2639,-1.2741,-1.2781,0.0,0.0,0.0,-0.8822,-0.8557,-1.0269,0.0,0.0,0.0,0.0,0.0,0.0,0.0,0.0,0.0,0.0,0.0,0.0,0.0,0.0,0.0,0.0,0.0,-1.7313,-1.7273,-1.7139,-1.6807,-1.6767,-1.5501,-1.3044,-1.2821,-1.1227,-0.8533,-0.8669,-0.8723,-0.8737,-0.8824,-0.8804,-0.8723,-0.8723,-0.8635,-0.8499,-0.8499,-0.8411,-0.834,-0.834,-0.8187,-0.8008,-0.8008,-0.8002,-0.7988,-0.7988,-0.7988,-0.7988,-0.7988,-0.7988,-0.7988,-0.7988,-0.7988,-0.7988,-0.7988,-0.7988,-0.7988,-0.7988,-0.7988,-0.7988,-0.7988,-0.7988,-0.7988,-0.7988,-0.7988,-0.7988,-0.7988,-0.7988,-0.7988,-0.7988,-0.7988,-0.7988,-0.7988,-0.7896,-0.7308,-0.6083,-0.582,-0.5153,-0.3846,-0.3749,-0.3749,-0.3838,-0.491,-0.5445,-0.5244,-0.6331,-0.6397,-0.5241,-0.5104,-0.4561,-0.3528,-0.341,-0.337,-0.3366,-0.4336,-0.4802,-1.3213,-1.2665,-1.2349,-1.2037,-1.1923,-1.217,-1.3165,-1.419,-1.4761,-1.3952,-1.4146,0.0,0.0,0.0,-1.0708,0.0,0.0,0.0,0.0,0.0,0.0,0.0,0.0,0.0,0.0,0.0,0.0,0.0,0.0,0.0,0.0,0.0,0.0,-1.6874,-1.675,-1.6603,-1.6433,-1.6259,-1.4863,-1.2314,-1.2506,-1.1156,-0.8486,-0.854,-0.8567,-0.8574,-0.8628,-0.8621,-0.8567,-0.8567,-0.8479,-0.8343,-0.8241,-0.8174,-0.8126,-0.8126,-0.8092,-0.7988,-0.7988,-0.7988,-0.7988,-0.7988,-0.7988,-0.7988,-0.7988,-0.7988,-0.7988,-0.7988,-0.7988,-0.7988,-0.7988,-0.7988,-0.7988,-0.7988,-0.7988,-0.7988,-0.7988,-0.7988,-0.7988,-0.7988,-0.7988,-0.7988,-0.7988,-0.7988,-0.7988,-0.7988,-0.7285,-0.6752,-0.6776,-0.5919,-0.5142,-0.4619,-0.3751,-0.3021,-0.2504,-0.1791,-0.1343,-0.1343,-0.3215,-0.4267,-0.419,-0.4619,-0.4585,-0.3976,-0.4072,-0.3821,-0.3318,-0.3291,-0.3273,-0.3313,-0.3577,-0.3709,-1.3492,-1.3255,-1.3317,-1.325,-1.3422,-1.3779,-1.4403,-1.558,-1.6394,-1.5644,-1.5403,-1.4896,-1.3329,0.0,0.0,0.0,0.0,0.0,0.0,0.0,0.0,0.0,0.0,0.0,0.0,0.0,0.0,0.0,0.0,0.0,0.0,0.0,0.0,0.0,-1.6233,-1.6126,-1.6126,-1.5925,-1.4472,-1.1901,-1.2253,-1.0977,-0.8343,-0.8391,-0.8418,-0.8418,-0.8465,-0.8459,-0.8418,-0.8418,-0.833,-0.8187,-0.8029,-0.7988,-0.7988,-0.7988,-0.7988,-0.7988,-0.7988,-0.7988,-0.7988,-0.7988,-0.7988,-0.7988,-0.7988,-0.7988,-0.7988,-0.7988,-0.7988,-0.7988,-0.7988,-0.7988,-0.7988,-0.7988,-0.7988,-0.7988,-0.7988,-0.7988,-0.7988,-0.7988,-0.7988,-0.7988,-0.7988,-0.7651,-0.7372,-0.7372,-0.624,-0.5356,-0.5383,-0.4474,-0.3638,-0.32,-0.1987,-0.121,-0.121,-0.0494,0.0,0.0,-0.1567,-0.2628,-0.2964,-0.3336,-0.331,-0.2781,-0.2882,-0.2727,-0.2244,-0.2324,-0.2324,-0.2324,-0.252,-0.2618,-1.4082,-1.3868,-1.368,-1.4015,-1.4309,-1.483,-1.6005,-1.6777,-1.7367,-1.7862,-1.6313,-1.4767,-1.4566,-1.3024,0.0,0.0,0.0,0.0,0.0,0.0,0.0,0.0,0.0,0.0,0.0,0.0,0.0,0.0,0.0,0.0,0.0,0.0,0.0,0.0,-1.5784,-1.5784,-1.5784,-1.5784,-1.4472,-1.1901,-1.1901,-1.0534,-0.7995,-0.8201,-0.832,-0.8327,-0.8418,-0.8397,-0.832,-0.832,-0.818,-0.7988,-0.7988,-0.7988,-0.7988,-0.7988,-0.7988,-0.7988,-0.7988,-0.7988,-0.7988,-0.7988,-0.7988,-0.7988,-0.7988,-0.7988,-0.7988,-0.7988,-0.7988,-0.7988,-0.7988,-0.7988,-0.7988,-0.7988,-0.7988,-0.7988,-0.7988,-0.7988,-0.7988,-0.7988,-0.7988,-0.7988,-0.7988,-0.6874,-0.5955,-0.5955,-0.4853,-0.3989,-0.3938,-0.3824,-0.3246,-0.1929,-0.0718,0.0,0.0,0.0,0.0,0.0,0.0,-0.0489,-0.1561,-0.2714,-0.2822,-0.1625,-0.1588,-0.1059,0.0,0.0,0.0,-0.0039,-0.1097,-0.1568,-1.4082,-1.4175,-1.4239,-1.4362,-1.4763,-1.5337,0.0,-1.6455,0.0,0.0,-1.7003,-1.611,-1.6082,0.0,0.0,0.0,0.0,0.0,0.0,0.0,0.0,0.0,0.0,0.0,0.0,0.0,0.0,0.0,0.0,0.0,0.0,0.0,0.0,0.0,-1.5784,-1.5784,-1.5784,-1.5784,-1.4472,-1.1901,-1.1901,-1.0534,-0.7988,-0.8035,-0.8106,-0.8113,-0.8153,-0.8147,-0.8106,-0.8106,-0.8029,-0.7988,-0.7988,-0.7988,-0.7988,-0.7988,-0.7988,-0.7988,-0.7988,-0.7988,-0.7988,-0.7988,-0.7988,-0.7988,-0.7988,-0.7988,-0.7988,-0.7988,-0.7988,-0.7988,-0.7988,-0.7988,-0.7988,-0.7988,-0.7988,-0.7988,-0.7988,-0.7988,-0.7988,-0.7988,-0.7235,-0.6581,-0.6581,-0.5492,-0.4594,-0.4594,-0.3463,-0.2271,-0.1306,-0.1145,-0.0994,-0.0584,-0.0225,0.0,0.0,0.0,0.0,0.0,0.0,-0.013,-0.0444,-0.0827,-0.0858,-0.0469,-0.0493,-0.0322,0.0,0.0,0.0,0.0,-0.0314,-0.0471,-1.3734,-1.3948,-1.4186,-1.4456,-1.5044,-1.5685,-1.6166,0.0,0.0,0.0,-1.7408,-1.674,-1.686,-1.6353,0.0,0.0,0.0,0.0,0.0,0.0,0.0,0.0,0.0,0.0,0.0,0.0,0.0,0.0,0.0,0.0,0.0,0.0,0.0,0.0,-1.5784,-1.5784,-1.5784,-1.5784,-1.4472,-1.1901,-1.1901,-1.0534,-0.7988,-0.7988,-0.7988,-0.7988,-0.7988,-0.7988,-0.7988,-0.7988,-0.7988,-0.7988,-0.7988,-0.7988,-0.7988,-0.7988,-0.7988,-0.7982,-0.7921,-0.7941,-0.7982,-0.7921,-0.7941,-0.7988,-0.7988,-0.7988,-0.7988,-0.7988,-0.7948,-0.7914,-0.7975,-0.7901,-0.7847,-0.7961,-0.7988,-0.7988,-0.7988,-0.7941,-0.7921,-0.7975,-0.6897,-0.5958,-0.6005,-0.4425,-0.3203,-0.3203,-0.2071,-0.0926,-0.0092,0.0,0.0,0.0,0.0,0.0,0.0,0.0,0.0,0.0,0.0,0.0,0.0,0.0,0.0,0.0,0.0,0.0,0.0,0.0,0.0,0.0,0.0,0.0,-1.328,-1.344,-1.3786,-1.4372,-1.5244,-1.5979,-1.6246,-1.7168,-1.7969,-1.8237,0.0,-1.678,-1.7072,0.0,0.0,0.0,0.0,0.0,0.0,0.0,0.0,0.0,0.0,0.0,0.0,0.0,0.0,0.0,0.0,0.0,0.0,0.0,0.0,-1.5738,-1.5752,-1.5752,-1.5752,-1.5752,-1.4398,0.0,-1.1841,-1.0489,-0.7968,-0.7982,-0.7988,-0.7988,-0.7988,-0.7988,-0.7988,-0.7988,-0.7988,-0.7988,-0.7988,-0.7982,-0.7968,-0.7982,-0.7975,-0.7934,-0.7855,-0.7902,-0.7941,-0.7841,-0.7902,-0.7982,-0.7961,-0.7968,-0.7982,-0.7961,-0.7909,-0.7841,-0.7921,-0.7801,-0.7665,-0.7887,-0.7961,-0.7968,-0.7968,-0.7909,-0.78,-0.7822,-0.6605,-0.5626,-0.5635,-0.3499,-0.1799,-0.1798,-0.0772,0.0,0.0,0.0,0.0,0.0,0.0,0.0,0.0,0.0,0.0,0.0,0.0,0.0,0.0,0.0,0.0,0.0,0.0,0.0,0.0,0.0,0.0,0.0,0.0,0.0,-1.3828,-1.3948,-1.4135,-1.4723,-1.5698,-1.654,-1.6593,-1.6994,-1.7286,-1.6884,-1.6727,-1.666,0.0,0.0,0.0,0.0,0.0,0.0,0.0,0.0,0.0,0.0,0.0,0.0,0.0,0.0,0.0,0.0,0.0,0.0,0.0,0.0,0.0,-1.515,-1.515,-1.515,-1.515,-1.515,-1.3893,0.0,-1.1424,-1.015,-0.7862,-0.7934,-0.7988,-0.7988,-0.7988,-0.7988,-0.7988,-0.7988,-0.7988,-0.7988,-0.7988,-0.7914,-0.7875,-0.7948,-0.7847,-0.7706,-0.7787,-0.7834,-0.7834,-0.7692,-0.7821,-0.7948,-0.7767,-0.7855,-0.7941,-0.776,-0.7753,-0.7794,-0.7712,-0.7645,-0.7617,-0.7678,-0.778,-0.7862,-0.7862,-0.7834,-0.7491,-0.6494,-0.5151,-0.3945,-0.301,-0.1502,-0.0414,-0.0408,-0.018,0.0,0.0,0.0,0.0,0.0,0.0,0.0,0.0,0.0,0.0,0.0,0.0,0.0,0.0,0.0,0.0,0.0,0.0,0.0,0.0,0.0,0.0,0.0,0.0,0.0,-1.3667,-1.3774,0.0,-1.495,0.0,-1.65,-1.65,-1.6513,-1.6393,-1.5939,-1.6192,0.0,0.0,0.0,0.0,0.0,0.0,0.0,0.0,0.0,0.0,0.0,0.0,0.0,0.0,0.0,0.0,0.0,0.0,0.0,0.0,-1.4471,-1.4594,-1.4128,-1.4681,-1.5008,-1.5008,-1.5008,-1.3767,-1.1283,-1.1283,-1.0045,-0.7719,-0.7887,-0.7988,-0.7988,-0.7988,-0.7948,-0.7887,-0.7961,-0.7907,-0.7834,-0.7853,-0.7841,-0.7719,-0.7801,-0.7733,-0.7611,-0.7685,-0.7712,-0.7706,-0.7706,-0.776,-0.7814,-0.7726,-0.776,-0.7794,-0.7645,-0.7597,-0.7597,-0.7597,-0.7489,-0.7421,-0.7563,-0.7658,-0.7563,-0.6983,-0.7266,-0.7073,-0.5266,-0.4251,-0.3331,-0.22,-0.0878,0.0,0.0,0.0,0.0,0.0,0.0,0.0,0.0,0.0,0.0,0.0,0.0,0.0,0.0,0.0,0.0,0.0,0.0,0.0,0.0,0.0,0.0,0.0,0.0,0.0,0.0,0.0,0.0,-1.328,-1.3413,-1.3866,-1.4977,-1.5645,0.0,-1.6094,-1.5899,-1.5671,-1.5378,0.0,0.0,0.0,0.0,0.0,0.0,0.0,0.0,0.0,0.0,0.0,0.0,0.0,0.0,0.0,0.0,0.0,0.0,0.0,0.0,-1.2655,-1.3566,-1.3793,-1.3069,-1.4212,-1.4861,-1.4861,-1.4625,-1.3395,-1.1162,-1.0791,-0.9532,-0.757,-0.7841,-0.7914,-0.7914,-0.7914,-0.7889,-0.7787,-0.786,-0.7821,-0.7611,-0.7726,-0.7685,-0.7563,-0.759,-0.7563,-0.7522,-0.755,-0.7563,-0.7577,-0.7665,-0.7651,-0.7611,-0.7678,-0.7651,-0.759,-0.7536,-0.7448,-0.7439,-0.7495,-0.7287,-0.7115,-0.7178,-0.7237,-0.701,-0.6222,-0.6617,-0.6471,-0.4359,-0.3428,-0.2695,-0.1786,-0.0726,0.0,0.0,0.0,0.0,0.0,0.0,0.0,0.0,0.0,0.0,0.0,0.0,0.0,0.0,0.0,0.0,0.0,0.0,0.0,0.0,0.0,0.0,0.0,0.0,0.0,0.0,0.0,0.0,-1.3413,0.0,-1.376,0.0,-1.4897,-1.5182,0.0,0.0,-1.5378,0.0,0.0,0.0,0.0,0.0,0.0,0.0,0.0,0.0,0.0,0.0,0.0,0.0,0.0,0.0,0.0,0.0,0.0,0.0,0.0,0.0,-1.2052,-1.239,-1.2533,-1.2428,-1.3579,-1.4202,-1.4202,-1.3181,-1.1997,-1.0663,-0.8808,-0.7766,-0.7453,-0.7584,-0.7658,-0.7658,-0.7658,-0.7645,-0.7631,-0.7651,-0.7638,-0.7604,-0.7617,-0.7536,-0.7421,-0.755,-0.7428,-0.7179,-0.7353,-0.7446,-0.738,-0.722,-0.74,-0.7556,-0.726,-0.74,-0.7543,-0.7233,-0.7285,-0.7346,-0.7186,-0.7125,-0.6884,-0.5936,-0.5673,-0.5975,-0.6956,-0.6459,-0.541,-0.3927,-0.1932,-0.045,-0.027,-0.0135,0.0,0.0,0.0,0.0,0.0,0.0,0.0,0.0,0.0,0.0,0.0,0.0,0.0,0.0,0.0,0.0,0.0,0.0,0.0,0.0,0.0,0.0,0.0,0.0,0.0,0.0,0.0,0.0,-1.312,-1.3267,-1.3427,0.0,-1.4135,-1.4512,-1.4512,0.0,-1.4376,0.0,0.0,0.0,0.0,0.0,0.0,0.0,0.0,0.0,0.0,0.0,0.0,0.0,0.0,0.0,0.0,0.0,0.0,0.0,0.0,-1.1548,-1.1106,-1.1633,-1.2011,-1.2069,-1.3192,-1.3841,-1.3841,-1.2826,-1.1423,-0.9628,-0.8004,-0.7244,-0.7244,-0.7312,-0.7434,-0.7597,-0.7597,-0.755,-0.7482,-0.7563,-0.7495,-0.7353,-0.7434,-0.738,-0.7251,-0.7319,-0.7213,-0.7119,-0.7319,-0.7312,-0.7258,-0.736,-0.7373,-0.7333,-0.7285,-0.7305,-0.7267,-0.7132,-0.7146,-0.7045,-0.6352,-0.6157,-0.5847,-0.4688,-0.4372,-0.4563,-0.5145,-0.484,-0.4107,-0.2819,-0.121,0.0,0.0,0.0,0.0,0.0,0.0,0.0,0.0,0.0,0.0,0.0,0.0,0.0,0.0,0.0,0.0,0.0,0.0,0.0,0.0,0.0,0.0,0.0,0.0,0.0,0.0,0.0,0.0,0.0,0.0,0.0,0.0,0.0,-1.2999,-1.308,-1.348,-1.3868,0.0,0.0,0.0,0.0,0.0,0.0,0.0,0.0,0.0,0.0,0.0,0.0,0.0,0.0,0.0,0.0,0.0,0.0,0.0,0.0,0.0,0.0,0.0,-1.0866,-1.0223,-1.0862,-1.141,-1.1799,-1.2898,-1.3371,-1.3114,-1.1985,-1.0396,-0.8392,-0.7518,-0.7098,-0.7098,-0.7098,-0.722,-0.7482,-0.7482,-0.7421,-0.7319,-0.7434,-0.7346,-0.7105,-0.7265,-0.7244,-0.7098,-0.7098,-0.7098,-0.7112,-0.7272,-0.7238,-0.7132,-0.7407,-0.728,-0.7119,-0.7278,-0.7231,-0.7098,-0.7098,-0.6871,-0.6473,-0.5625,-0.5181,-0.4643,-0.3438,-0.3158,-0.3149,-0.3123,-0.3126,-0.2769,-0.1567,-0.0628,0.0,0.0,0.0,0.0,0.0,0.0,0.0,0.0,0.0,0.0,0.0,0.0,0.0,0.0,0.0,0.0,0.0,0.0,0.0,0.0,0.0,0.0,0.0,0.0,0.0,0.0,0.0,0.0,0.0,0.0,0.0,0.0,-1.2345,0.0,-1.2744,-1.3052,0.0,0.0,0.0,0.0,0.0,0.0,0.0,0.0,0.0,0.0,0.0,0.0,0.0,0.0,0.0,0.0,0.0,0.0,0.0,0.0,0.0,0.0,0.0,0.0,-0.9596,-0.9566,-0.9837,-1.0474,-1.1502,-1.2617,-1.2737,-1.1806,-0.9859,-0.8241,-0.7025,-0.7075,-0.7098,-0.7098,-0.7098,-0.7105,-0.7119,-0.7119,-0.7112,-0.7105,-0.7119,-0.7112,-0.7098,-0.7105,-0.7105,-0.7098,-0.7098,-0.7098,-0.7098,-0.7105,-0.7105,-0.7098,-0.7112,-0.7105,-0.7098,-0.7105,-0.7105,-0.7098,-0.7098,-0.634,-0.5492,-0.5403,-0.4554,-0.3393,-0.2191,-0.1894,-0.1877,-0.1916,-0.1878,-0.1522,-0.0314,-0.0045,0.0,0.0,0.0,0.0,0.0,0.0,0.0,0.0,0.0,0.0,0.0,0.0,0.0,0.0,0.0,0.0,0.0,0.0,0.0,0.0,0.0,0.0,0.0,0.0,0.0,0.0,0.0,0.0,0.0,0.0,0.0,0.0,0.0,0.0,-1.2438,-1.2412,-1.2358,0.0,0.0,0.0,0.0,0.0,0.0,0.0,0.0,0.0,0.0,0.0,0.0,0.0,0.0,0.0,0.0,0.0,0.0,0.0,0.0,0.0,0.0,0.0,0.0,-0.9576,-0.9564,-1.0373,-1.226,-1.2712,-1.2165,-1.0554,-0.921,-0.7931,-0.6783,-0.6889,-0.6964,-0.6964,-0.7051,-0.7098,-0.7092,-0.6997,-0.7011,-0.7098,-0.7098,-0.7098,-0.7085,-0.6997,-0.6964,-0.695,-0.6892,-0.6858,-0.6858,-0.6858,-0.6858,-0.6871,-0.693,-0.6964,-0.6977,-0.7065,-0.7098,-0.7098,-0.7098,-0.6827,-0.6157,-0.4639,-0.3934,-0.311,-0.1098,-0.0662,-0.0667,-0.0627,-0.1255,-0.1433,-0.0225,0.0,0.0,0.0,0.0,0.0,0.0,0.0,0.0,0.0,0.0,0.0,0.0,0.0,0.0,0.0,0.0,0.0,0.0,0.0,0.0,0.0,0.0,0.0,0.0,0.0,0.0,0.0,0.0,0.0,0.0,0.0,0.0,-1.2769,0.0,0.0,0.0,0.0,-1.1744,0.0,0.0,0.0,0.0,0.0,0.0,0.0,0.0,0.0,0.0,0.0,0.0,0.0,0.0,0.0,0.0,0.0,0.0,0.0,0.0,0.0,0.0,0.0,0.0,-0.9503,-0.9715,-1.0538,-1.2081,-1.179,-1.0827,-0.921,-0.8233,-0.7382,-0.6627,-0.6776,-0.6851,-0.6858,-0.691,-0.695,-0.6943,-0.6849,-0.6889,-0.7018,-0.697,-0.695,-0.6943,-0.6892,-0.6851,-0.6837,-0.6736,-0.6702,-0.6709,-0.6756,-0.6485,-0.6258,-0.675,-0.6636,-0.6318,-0.6405,-0.6711,-0.6943,-0.6637,-0.6517,-0.6068,-0.4105,-0.3008,-0.197,-0.0392,0.0,0.0,0.0,-0.0625,-0.0941,-0.0135,0.0,0.0,0.0,0.0,0.0,0.0,0.0,0.0,0.0,0.0,0.0,0.0,0.0,0.0,0.0,0.0,0.0,0.0,0.0,0.0,0.0,0.0,0.0,0.0,0.0,0.0158,0.0522,0.0554,0.0549,0.0549,0.0549,0.0353,0.0,0.0,0.0,0.0,0.0,0.0,0.0,0.0,0.0,0.0,0.0,0.0,0.0,0.0,0.0,0.0,0.0,0.0,0.0,0.0,0.0,0.0,0.0,0.0,0.0,0.0,0.0,0.0,0.0,-0.9291,-0.9329,-1.0248,-1.0809,-1.0783,-0.9771,-0.8799,-0.7825,-0.6942,-0.6504,-0.6511,-0.662,-0.6695,-0.6695,-0.6702,-0.6702,-0.6702,-0.6695,-0.6776,-0.6862,-0.6763,-0.6702,-0.6702,-0.6695,-0.6695,-0.6695,-0.6688,-0.6688,-0.6709,-0.6815,-0.6081,-0.5277,-0.6476,-0.6045,-0.5121,-0.515,-0.5969,-0.6701,-0.5731,-0.5403,-0.5132,-0.3879,-0.1789,0.0,0.0,0.0,0.0,0.0,0.0,0.0,0.0,0.0,0.0,0.0,0.0,0.0,0.0,0.0,0.0,0.0,0.0,0.0,0.0,0.0,0.0,0.0,0.0,0.0,0.0,0.0,0.0,0.0,0.0,0.0,0.0039,0.0039,0.0589,0.1646,0.1607,0.1607,0.1646,0.1607,0.1058,-1.2879,0.0,0.0,0.0,0.0,0.0,0.0,0.0,0.0,0.0,0.0,0.0,0.0,0.0,0.0,0.0,0.0,0.0,0.0,0.0,0.0,0.0,0.0,0.0,0.0,0.0,0.0,0.0,-0.9369,-0.9259,-1.0039,-1.0229,-1.0443,-1.0771,-0.8981,-0.7944,-0.7817,-0.6839,-0.6361,-0.6361,-0.6504,-0.6532,-0.6539,-0.6647,-0.6702,-0.6695,-0.658,-0.6559,-0.6607,-0.6675,-0.6702,-0.6688,-0.658,-0.6532,-0.6566,-0.6463,-0.6422,-0.6304,-0.5582,-0.5087,-0.4877,-0.5322,-0.5311,-0.5246,-0.6148,-0.669,-0.7001,-0.6725,-0.603,-0.494,-0.285,-0.1139,0.0,0.0,0.0,0.0,0.0,0.0,0.0,0.0,0.0,0.0,0.0,0.0,0.0,0.0,0.0,0.0,0.0,0.0,0.0,0.0,0.0,0.0,0.0,0.0,0.0,0.0,0.0,0.0,0.0,0.0,0.0353,0.1137,0.1176,0.1644,0.2696,0.1957,0.1957,0.2657,0.1957,0.145,0.0,0.0,0.0,0.0,0.0,0.0,-1.1182,-1.1076,0.0,0.0,0.0,0.0,0.0,0.0,0.0,0.0,0.0,0.0,0.0,0.0,0.0,0.0,0.0,0.0,0.0,0.0,0.0,-1.0384,-0.9683,-0.9556,-1.0255,-1.0149,-0.9889,-0.9426,-0.8171,-0.7405,-0.7173,-0.6602,-0.63,-0.63,-0.6381,-0.6422,-0.6429,-0.6478,-0.6519,-0.6512,-0.6463,-0.6422,-0.6429,-0.6518,-0.6519,-0.6512,-0.6457,-0.6422,-0.6337,-0.5814,-0.5628,-0.5556,-0.4977,-0.4178,-0.3569,-0.4579,-0.434,-0.3765,-0.448,-0.5087,-0.5475,-0.5005,-0.4421,-0.3558,-0.2178,-0.0912,0.0,0.0,0.0,0.0,0.0,0.0,0.0,0.0,0.0,0.0,0.0,0.0,0.0,0.0,0.0,0.0,0.0,0.0,0.0,0.0,0.0,0.0196,0.0628,0.0275,0.0353,0.1253,0.0902,0.0862,0.1292,0.1292,0.1605,0.2231,0.2231,0.2735,0.3748,0.3168,0.3203,0.3748,0.3168,0.266,0.0,0.0,0.0,0.0,0.0,0.0,-1.1465,-1.1249,-1.0982,0.0,0.0,0.0,0.0,0.0,0.0,0.0,0.0,0.0,0.0,0.0,0.0,0.0,0.0,0.0,0.0,-1.0486,-1.0113,-1.0444,-1.0172,-1.0031,-1.0101,-0.9938,-0.9122,-0.753,-0.7375,-0.6947,-0.6272,-0.6272,-0.6279,-0.63,-0.63,-0.63,-0.63,-0.63,-0.63,-0.63,-0.63,-0.63,-0.63,-0.63,-0.63,-0.63,-0.6183,-0.6138,-0.6022,-0.504,-0.4686,-0.4701,-0.4684,-0.3421,-0.2083,-0.3926,-0.323,-0.1624,-0.1773,-0.2555,-0.321,-0.2098,-0.1822,-0.177,-0.1649,-0.0821,0.0,0.0,0.0,0.0,0.0,0.0,0.0,0.0,0.0,0.0,0.0,0.0,0.0,0.0,0.0,0.0,0.0,0.0,0.0039,0.0157,0.0196,0.0628,0.1685,0.0902,0.1135,0.2966,0.227,0.2152,0.3044,0.3083,0.3161,0.3281,0.3398,0.3943,0.4885,0.4885,0.4802,0.4686,0.4686,0.4176,0.0,0.0,0.0,0.0,0.0,0.0,-1.2285,-1.1582,-1.0929,0.0,0.0,0.0,0.0,0.0,0.0,0.0,0.0,0.0,0.0,0.0,0.0,0.0,0.0,0.0,0.0,-1.0567,-1.0575,-1.0862,-1.0836,-1.0598,-1.0124,-0.903,-0.8068,-0.7361,-0.6432,-0.6015,-0.6071,-0.6071,-0.6139,-0.63,-0.63,-0.63,-0.63,-0.63,-0.63,-0.63,-0.63,-0.63,-0.63,-0.63,-0.63,-0.6222,-0.5356,-0.5002,-0.5002,-0.4768,-0.4686,-0.4574,-0.373,-0.3175,-0.2738,-0.2361,-0.2029,-0.1894,-0.2724,-0.3251,-0.3298,-0.2115,-0.1784,-0.157,-0.0593,-0.0167,0.0,0.0,0.0,0.0,0.0,0.0,0.0,0.0,0.0,0.0,0.0,0.0,0.0,0.0,0.0,0.0,0.0,0.0,0.0314,0.1215,0.1293,0.1683,0.2735,0.2618,0.2655,0.3083,0.2927,0.2891,0.3083,0.3083,0.3515,0.4375,0.5234,0.5789,0.5983,0.5983,0.555,0.4686,0.4686,0.4569,0.0,0.0,0.0,-1.5549,0.0,0.0,0.0,-1.1703,-1.0774,0.0,0.0,0.0,0.0,0.0,0.0,0.0,0.0,0.0,0.0,0.0,0.0,0.0,0.0,0.0,0.0,-1.0506,-1.0653,-1.0801,-1.0509,-0.9977,-0.9108,-0.7979,-0.7089,-0.6483,-0.5901,-0.5698,-0.5915,-0.5952,-0.6071,-0.6146,-0.6259,-0.63,-0.63,-0.63,-0.63,-0.63,-0.63,-0.63,-0.6261,-0.5712,-0.5828,-0.6261,-0.5705,-0.5512,-0.5434,-0.4885,-0.4375,-0.3826,-0.3281,-0.2423,-0.1566,-0.1607,-0.1303,-0.0999,-0.1496,-0.1732,-0.1675,-0.1077,-0.0916,-0.0755,-0.0166,0.0,0.0,0.0,0.0,0.0,0.0,0.0,0.0,0.0,0.0,0.0,0.0,0.0,0.0,0.0,0.0,0.0202,0.0748,0.0785,0.1215,0.2231,0.2345,0.2774,0.3826,0.3398,0.3554,0.4647,0.4176,0.4142,0.4686,0.4686,0.4963,0.5473,0.6022,0.63,0.63,0.63,0.6022,0.5512,0.5512,0.5512,0.0,0.0,0.0,0.0,0.0,-1.3304,0.0,0.0,0.0,0.0,0.0,0.0,0.0,0.0,0.0,0.0,0.0,0.0,0.0,0.0,0.0,0.0,0.0,0.0,0.0,-1.0186,-1.0452,-1.0506,-0.9903,-0.9039,-0.797,-0.7126,-0.6332,-0.5576,-0.5549,-0.5616,-0.5759,-0.5881,-0.5939,-0.5993,-0.6159,-0.6272,-0.63,-0.63,-0.63,-0.63,-0.63,-0.63,-0.6222,-0.5356,-0.5494,-0.622,-0.5815,-0.5667,-0.5589,-0.4724,-0.3709,-0.2813,-0.2813,-0.1722,-0.0432,-0.1058,-0.0706,0.0,0.0,0.0,0.0,0.0,0.0,0.0,0.0,0.0,0.0,0.0,0.0,0.0,0.0,0.0,0.0,0.0,0.0,0.0,0.0,0.0,0.0,0.0,0.0,0.0401,0.1453,0.1607,0.2074,0.3281,0.3398,0.3826,0.4924,0.4215,0.4453,0.6183,0.5473,0.5395,0.6261,0.63,0.63,0.63,0.63,0.63,0.63,0.63,0.63,0.63,0.63,0.6286,0.0,0.0,0.0,0.0,-1.6383,0.0,0.0,0.0,-1.1182,-1.0693,0.0,0.0,0.0,0.0,0.0,0.0,0.0,0.0,0.0,0.0,0.0,0.0,0.0,0.0,0.0,0.0,-0.9886,-1.014,-0.9371,-0.8494,-0.7601,-0.7012,-0.6309,-0.5452,-0.5419,-0.5494,-0.561,-0.563,-0.5772,-0.5993,-0.6013,-0.6125,-0.63,-0.63,-0.63,-0.63,-0.63,-0.63,-0.63,-0.6183,-0.6103,-0.5876,-0.4144,-0.3476,-0.3437,-0.332,-0.2657,-0.1763,-0.1763,-0.1607,-0.1293,-0.0432,-0.0118,0.0,0.0,0.0,0.0,0.0,0.0,0.0,0.0,0.0,0.0,0.0,0.0,0.0,0.0,0.0,0.0,0.0,0.0,0.0,0.0,0.0,0.0,0.0,0.0,0.0394,0.145,0.1607,0.2348,0.4297,0.453,0.4963,0.6022,0.6022,0.6022,0.63,0.6183,0.6183,0.63,0.63,0.63,0.63,0.63,0.63,0.63,0.63,0.63,0.63,0.63,0.6186,0.0,0.0,0.0,0.0,0.0,0.0,-1.4396,0.0,-1.1062,0.0,0.0,0.0,0.0,0.0,0.0,0.0,0.0,0.0,0.0,0.0,0.0,0.0,0.0,0.0,0.0,0.0,0.0,0.0,-0.8501,-0.7685,-0.6916,-0.627,-0.5782,-0.5425,-0.5392,-0.5426,-0.5487,-0.5549,-0.5691,-0.5895,-0.5952,-0.6112,-0.6293,-0.6166,-0.6173,-0.6293,-0.6166,-0.6179,-0.6254,-0.5542,-0.5551,-0.5806,-0.3772,-0.3366,-0.3899,-0.3899,-0.2934,-0.1607,-0.1607,-0.1176,-0.0589,-0.0157,0.0,0.0,0.0,0.0,0.0,0.0,0.0,0.0,0.0,0.0,0.0,0.0,0.0,0.0,0.0,0.0,0.0,0.0,0.0,0.0196,0.0824,0.0432,0.0196,0.0824,0.0941,0.1528,0.3207,0.3402,0.3986,0.5473,0.5628,0.5828,0.6261,0.63,0.63,0.63,0.63,0.63,0.63,0.63,0.63,0.63,0.63,0.63,0.63,0.63,0.63,0.63,0.6166,0.6139,-1.8008,0.0,0.0,0.0,0.0,0.0,0.0,0.0,0.0,0.0,0.0,0.0,0.0,0.0,0.0,0.0,0.0,0.0,0.0,0.0,0.0,0.0,0.0,0.0,0.0,0.0,0.0,-0.8532,-0.76,-0.68,-0.6307,-0.566,-0.5351,-0.5392,-0.5392,-0.5392,-0.5392,-0.5508,-0.5603,-0.5745,-0.5854,-0.5989,-0.617,-0.6064,-0.6091,-0.6231,-0.6125,-0.6132,-0.6148,-0.5275,-0.5155,-0.5353,-0.3838,-0.3397,-0.3618,-0.3672,-0.2632,-0.1164,-0.1164,-0.0663,0.0,0.0,0.0,0.0,0.0,0.0,0.0,0.0,0.0,0.0,0.0,0.0,0.0,0.0,0.0,0.0,0.0,0.0,0.0,0.0,0.0235,0.0667,0.145,0.0941,0.0784,0.184,0.1996,0.266,0.4453,0.4686,0.5118,0.6183,0.63,0.63,0.63,0.63,0.63,0.63,0.63,0.63,0.63,0.63,0.63,0.63,0.63,0.63,0.63,0.63,0.6279,0.6193,0.6084,0.6064,0.0,0.0,0.0,-1.6459,0.0,0.0,0.0,0.0,-1.0915,0.0,0.0,0.0,0.0,0.0,0.0,0.0,0.0,0.0,0.0,0.0,0.0,0.0,0.0,0.0,0.0,0.0,0.0,-0.8189,-0.6758,-0.5898,-0.6022,-0.5428,-0.5209,-0.5392,-0.5392,-0.5392,-0.5392,-0.5399,-0.5481,-0.5596,-0.5603,-0.5677,-0.582,-0.5925,-0.5993,-0.6006,-0.6231,-0.6173,-0.6,-0.5956,-0.5274,-0.4266,-0.4196,-0.3043,-0.1409,-0.1632,-0.0983,-0.0038,-0.0038,-0.0038,0.0,0.0,0.0,0.0,0.0,0.0,0.0,0.0,0.0,0.0,0.0,0.0,0.0,0.0,0.0,0.0,0.0,0.0,0.0,0.0,0.0824,0.1568,0.1607,0.1568,0.1879,0.2891,0.3047,0.3437,0.4569,0.4686,0.5118,0.6183,0.63,0.63,0.63,0.63,0.63,0.63,0.63,0.63,0.63,0.63,0.63,0.63,0.63,0.63,0.63,0.63,0.6186,0.6,0.5993,0.5956,0.0,0.0,-1.6633,-1.62,0.0,0.0,0.0,0.0,0.0,0.0,0.0,0.0,0.0,0.0,0.0,0.0,0.0,0.0,0.0,0.0,0.0,0.0,0.0,0.0,0.0,0.0,0.0,-0.6486,-0.6041,-0.5599,-0.5174,-0.5116,-0.5123,-0.5209,-0.5344,-0.5392,-0.5392,-0.5392,-0.5474,-0.5589,-0.5589,-0.5718,-0.5912,-0.5901,-0.5935,-0.5986,-0.5976,-0.5928,-0.5808,-0.511,-0.4587,-0.4084,-0.2795,-0.1885,-0.1325,-0.1362,-0.0819,0.0,0.0,0.0,0.0,0.0,0.0,0.0,0.0,0.0,0.0,0.0,0.0,0.0,0.0,0.0,0.0,0.0,0.0,0.0,0.0,0.0,0.0196,0.0902,0.1333,0.2035,0.3402,0.3636,0.3752,0.4098,0.4176,0.453,0.5628,0.5744,0.5906,0.6261,0.63,0.63,0.63,0.63,0.63,0.63,0.63,0.63,0.63,0.63,0.63,0.63,0.63,0.63,0.63,0.6159,0.6378,0.6863,0.6856,0.6876,-1.7832,-1.6973,0.0,-1.5358,-1.3966,0.0,-1.1894,0.0,0.0,0.0,0.0,0.0,0.0,0.0,0.0,0.0,0.0,0.0,0.0,-0.766,0.0,0.0,0.0,0.0,0.0,0.0,-0.6794,-0.5592,-0.5413,-0.514,0.0,0.0,-0.5049,-0.5096,-0.5284,-0.5392,-0.5392,-0.5392,-0.5474,-0.5589,-0.5589,-0.5691,-0.5874,-0.5827,-0.5827,-0.5874,-0.582,-0.5584,-0.5189,-0.4499,-0.3813,-0.3049,-0.178,-0.1102,-0.0855,-0.0842,-0.0481,0.0,0.0,0.0,0.0,0.0,0.0,0.0,0.0,0.0,0.0,0.0,0.0,0.0,0.0,0.0,0.0,0.0,0.0,0.0118,0.0471,0.0589,0.0862,0.1918,0.2426,0.3129,0.4453,0.5002,0.5273,0.5273,0.5273,0.5512,0.6222,0.63,0.63,0.63,0.63,0.63,0.63,0.63,0.63,0.63,0.63,0.63,0.63,0.63,0.63,0.63,0.6245,0.6245,0.63,0.635,0.6735,0.7372,0.7968,0.8305]}]]